<?xml version="1.0" encoding="UTF-8" standalone="no" ?>
<gpx xmlns="http://www.topografix.com/GPX/1/1" xmlns:xsi="http://www.w3.org/2001/XMLSchema-instance" xsi:schemaLocation="http://www.topografix.com/GPX/1/1 http://www.topografix.com/GPX/1/1/gpx.xsd" version="1.1" creator="VisuGPX - https://www.visugpx.com">
  <metadata>
    <name>Grand tour du Loup</name>
    <desc><![CDATA[Villeneuve/Tourrettes/Courmes/Cipières/Gourdon/Rouret/Roquefort/Villeneuve]]></desc>
  </metadata>
  <trk>
    <name><![CDATA[Virée du Loup]]></name>
    <trkseg>
      <trkpt lat="43.66248" lon="7.1218">
        <ele>16.39999961853</ele>
        <time>2014-04-20T06:14:35.000Z</time>
      </trkpt>
      <trkpt lat="43.66245" lon="7.12167">
        <ele>15.60000038147</ele>
        <time>2014-04-20T06:14:37.000Z</time>
      </trkpt>
      <trkpt lat="43.66237" lon="7.12114">
        <ele>12.199999809265</ele>
        <time>2014-04-20T06:14:44.000Z</time>
      </trkpt>
      <trkpt lat="43.66228" lon="7.12074">
        <ele>9.8000001907349</ele>
        <time>2014-04-20T06:14:49.000Z</time>
      </trkpt>
      <trkpt lat="43.66223" lon="7.12052">
        <ele>9.8000001907349</ele>
        <time>2014-04-20T06:14:52.000Z</time>
      </trkpt>
      <trkpt lat="43.66215" lon="7.12025">
        <ele>8.8000001907349</ele>
        <time>2014-04-20T06:14:56.000Z</time>
      </trkpt>
      <trkpt lat="43.66207" lon="7.11995">
        <ele>8.3999996185303</ele>
        <time>2014-04-20T06:15:01.000Z</time>
      </trkpt>
      <trkpt lat="43.66202" lon="7.11987">
        <ele>7.4000000953674</ele>
        <time>2014-04-20T06:15:04.000Z</time>
      </trkpt>
      <trkpt lat="43.66197" lon="7.11987">
        <ele>6.8000001907349</ele>
        <time>2014-04-20T06:15:06.000Z</time>
      </trkpt>
      <trkpt lat="43.66181" lon="7.11998">
        <ele>5</ele>
        <time>2014-04-20T06:15:13.000Z</time>
      </trkpt>
      <trkpt lat="43.66164" lon="7.12005">
        <ele>5.4000000953674</ele>
        <time>2014-04-20T06:15:19.000Z</time>
      </trkpt>
      <trkpt lat="43.6614" lon="7.12002">
        <ele>5.4000000953674</ele>
        <time>2014-04-20T06:15:26.000Z</time>
      </trkpt>
      <trkpt lat="43.66109" lon="7.1199">
        <ele>6</ele>
        <time>2014-04-20T06:15:35.000Z</time>
      </trkpt>
      <trkpt lat="43.66095" lon="7.11985">
        <ele>6</ele>
        <time>2014-04-20T06:15:39.000Z</time>
      </trkpt>
      <trkpt lat="43.66069" lon="7.11983">
        <ele>5.4000000953674</ele>
        <time>2014-04-20T06:15:46.000Z</time>
      </trkpt>
      <trkpt lat="43.66035" lon="7.11984">
        <ele>5.4000000953674</ele>
        <time>2014-04-20T06:15:55.000Z</time>
      </trkpt>
      <trkpt lat="43.66011" lon="7.11985">
        <ele>5</ele>
        <time>2014-04-20T06:16:02.000Z</time>
      </trkpt>
      <trkpt lat="43.65989" lon="7.11988">
        <ele>5</ele>
        <time>2014-04-20T06:16:08.000Z</time>
      </trkpt>
      <trkpt lat="43.65975" lon="7.11988">
        <ele>5</ele>
        <time>2014-04-20T06:16:12.000Z</time>
      </trkpt>
      <trkpt lat="43.6596" lon="7.12002">
        <ele>4.4000000953674</ele>
        <time>2014-04-20T06:16:17.000Z</time>
      </trkpt>
      <trkpt lat="43.65949" lon="7.12018">
        <ele>3</ele>
        <time>2014-04-20T06:16:22.000Z</time>
      </trkpt>
      <trkpt lat="43.65938" lon="7.12033">
        <ele>2.5999999046326</ele>
        <time>2014-04-20T06:16:26.000Z</time>
      </trkpt>
      <trkpt lat="43.6593" lon="7.1205">
        <ele>2.5999999046326</ele>
        <time>2014-04-20T06:16:30.000Z</time>
      </trkpt>
      <trkpt lat="43.65917" lon="7.1205">
        <ele>2.5999999046326</ele>
        <time>2014-04-20T06:16:35.000Z</time>
      </trkpt>
      <trkpt lat="43.65898" lon="7.12031">
        <ele>2.5999999046326</ele>
        <time>2014-04-20T06:16:40.000Z</time>
      </trkpt>
      <trkpt lat="43.65881" lon="7.12012">
        <ele>4</ele>
        <time>2014-04-20T06:16:46.000Z</time>
      </trkpt>
      <trkpt lat="43.65871" lon="7.11997">
        <ele>4.4000000953674</ele>
        <time>2014-04-20T06:16:51.000Z</time>
      </trkpt>
      <trkpt lat="43.65862" lon="7.11982">
        <ele>5</ele>
        <time>2014-04-20T06:16:56.000Z</time>
      </trkpt>
      <trkpt lat="43.65867" lon="7.11967">
        <ele>5.4000000953674</ele>
        <time>2014-04-20T06:17:00.000Z</time>
      </trkpt>
      <trkpt lat="43.65876" lon="7.11954">
        <ele>5.4000000953674</ele>
        <time>2014-04-20T06:17:04.000Z</time>
      </trkpt>
      <trkpt lat="43.65885" lon="7.11937">
        <ele>6</ele>
        <time>2014-04-20T06:17:09.000Z</time>
      </trkpt>
      <trkpt lat="43.65896" lon="7.11923">
        <ele>6</ele>
        <time>2014-04-20T06:17:14.000Z</time>
      </trkpt>
      <trkpt lat="43.65907" lon="7.11912">
        <ele>6.4000000953674</ele>
        <time>2014-04-20T06:17:18.000Z</time>
      </trkpt>
      <trkpt lat="43.65916" lon="7.11899">
        <ele>6</ele>
        <time>2014-04-20T06:17:22.000Z</time>
      </trkpt>
      <trkpt lat="43.65935" lon="7.11867">
        <ele>6.8000001907349</ele>
        <time>2014-04-20T06:17:30.000Z</time>
      </trkpt>
      <trkpt lat="43.65945" lon="7.1184">
        <ele>6.8000001907349</ele>
        <time>2014-04-20T06:17:36.000Z</time>
      </trkpt>
      <trkpt lat="43.65956" lon="7.11818">
        <ele>6.8000001907349</ele>
        <time>2014-04-20T06:17:42.000Z</time>
      </trkpt>
      <trkpt lat="43.65965" lon="7.11802">
        <ele>7.4000000953674</ele>
        <time>2014-04-20T06:17:46.000Z</time>
      </trkpt>
      <trkpt lat="43.65974" lon="7.11785">
        <ele>7.4000000953674</ele>
        <time>2014-04-20T06:17:50.000Z</time>
      </trkpt>
      <trkpt lat="43.65977" lon="7.11776">
        <ele>7.4000000953674</ele>
        <time>2014-04-20T06:17:52.000Z</time>
      </trkpt>
      <trkpt lat="43.65983" lon="7.11759">
        <ele>8.8000001907349</ele>
        <time>2014-04-20T06:17:57.000Z</time>
      </trkpt>
      <trkpt lat="43.65988" lon="7.11745">
        <ele>9.8000001907349</ele>
        <time>2014-04-20T06:18:00.000Z</time>
      </trkpt>
      <trkpt lat="43.65993" lon="7.11739">
        <ele>10.199999809265</ele>
        <time>2014-04-20T06:18:02.000Z</time>
      </trkpt>
      <trkpt lat="43.66005" lon="7.11719">
        <ele>11.199999809265</ele>
        <time>2014-04-20T06:18:07.000Z</time>
      </trkpt>
      <trkpt lat="43.66012" lon="7.11706">
        <ele>12.199999809265</ele>
        <time>2014-04-20T06:18:10.000Z</time>
      </trkpt>
      <trkpt lat="43.66017" lon="7.11689">
        <ele>13.199999809265</ele>
        <time>2014-04-20T06:18:14.000Z</time>
      </trkpt>
      <trkpt lat="43.66022" lon="7.11681">
        <ele>14</ele>
        <time>2014-04-20T06:18:17.000Z</time>
      </trkpt>
      <trkpt lat="43.66032" lon="7.11669">
        <ele>14</ele>
        <time>2014-04-20T06:18:21.000Z</time>
      </trkpt>
      <trkpt lat="43.66039" lon="7.11653">
        <ele>15.60000038147</ele>
        <time>2014-04-20T06:18:25.000Z</time>
      </trkpt>
      <trkpt lat="43.66042" lon="7.1164">
        <ele>17</ele>
        <time>2014-04-20T06:18:28.000Z</time>
      </trkpt>
      <trkpt lat="43.66045" lon="7.1162">
        <ele>18.39999961853</ele>
        <time>2014-04-20T06:18:33.000Z</time>
      </trkpt>
      <trkpt lat="43.66053" lon="7.1161">
        <ele>18</ele>
        <time>2014-04-20T06:18:37.000Z</time>
      </trkpt>
      <trkpt lat="43.6606" lon="7.11593">
        <ele>18</ele>
        <time>2014-04-20T06:18:41.000Z</time>
      </trkpt>
      <trkpt lat="43.66063" lon="7.11584">
        <ele>18</ele>
        <time>2014-04-20T06:18:43.000Z</time>
      </trkpt>
      <trkpt lat="43.66063" lon="7.11584">
        <ele>18</ele>
        <time>2014-04-20T06:18:43.000Z</time>
      </trkpt>
      <trkpt lat="43.66072" lon="7.1156">
        <ele>18</ele>
        <time>2014-04-20T06:18:49.000Z</time>
      </trkpt>
      <trkpt lat="43.66079" lon="7.11534">
        <ele>18.799999237061</ele>
        <time>2014-04-20T06:18:54.000Z</time>
      </trkpt>
      <trkpt lat="43.66091" lon="7.11508">
        <ele>18</ele>
        <time>2014-04-20T06:18:59.000Z</time>
      </trkpt>
      <trkpt lat="43.66099" lon="7.11496">
        <ele>18.39999961853</ele>
        <time>2014-04-20T06:19:02.000Z</time>
      </trkpt>
      <trkpt lat="43.66121" lon="7.11468">
        <ele>19.799999237061</ele>
        <time>2014-04-20T06:19:10.000Z</time>
      </trkpt>
      <trkpt lat="43.66126" lon="7.11457">
        <ele>20.39999961853</ele>
        <time>2014-04-20T06:19:14.000Z</time>
      </trkpt>
      <trkpt lat="43.6614" lon="7.11447">
        <ele>20.39999961853</ele>
        <time>2014-04-20T06:19:19.000Z</time>
      </trkpt>
      <trkpt lat="43.66149" lon="7.11437">
        <ele>21.200000762939</ele>
        <time>2014-04-20T06:19:23.000Z</time>
      </trkpt>
      <trkpt lat="43.66173" lon="7.11418">
        <ele>22.200000762939</ele>
        <time>2014-04-20T06:19:30.000Z</time>
      </trkpt>
      <trkpt lat="43.66188" lon="7.11411">
        <ele>22.200000762939</ele>
        <time>2014-04-20T06:19:34.000Z</time>
      </trkpt>
      <trkpt lat="43.662" lon="7.11401">
        <ele>22.799999237061</ele>
        <time>2014-04-20T06:19:37.000Z</time>
      </trkpt>
      <trkpt lat="43.66226" lon="7.1138">
        <ele>22.799999237061</ele>
        <time>2014-04-20T06:19:44.000Z</time>
      </trkpt>
      <trkpt lat="43.6623" lon="7.11377">
        <ele>22.799999237061</ele>
        <time>2014-04-20T06:19:45.000Z</time>
      </trkpt>
      <trkpt lat="43.66247" lon="7.11374">
        <ele>23.200000762939</ele>
        <time>2014-04-20T06:19:50.000Z</time>
      </trkpt>
      <trkpt lat="43.66265" lon="7.11369">
        <ele>24.200000762939</ele>
        <time>2014-04-20T06:19:55.000Z</time>
      </trkpt>
      <trkpt lat="43.66274" lon="7.11367">
        <ele>24.200000762939</ele>
        <time>2014-04-20T06:19:58.000Z</time>
      </trkpt>
      <trkpt lat="43.66288" lon="7.11366">
        <ele>23.60000038147</ele>
        <time>2014-04-20T06:20:02.000Z</time>
      </trkpt>
      <trkpt lat="43.66305" lon="7.11359">
        <ele>23.200000762939</ele>
        <time>2014-04-20T06:20:07.000Z</time>
      </trkpt>
      <trkpt lat="43.66316" lon="7.11354">
        <ele>23.200000762939</ele>
        <time>2014-04-20T06:20:10.000Z</time>
      </trkpt>
      <trkpt lat="43.66336" lon="7.11347">
        <ele>23.60000038147</ele>
        <time>2014-04-20T06:20:15.000Z</time>
      </trkpt>
      <trkpt lat="43.66351" lon="7.11341">
        <ele>24.60000038147</ele>
        <time>2014-04-20T06:20:19.000Z</time>
      </trkpt>
      <trkpt lat="43.66366" lon="7.11337">
        <ele>24.60000038147</ele>
        <time>2014-04-20T06:20:23.000Z</time>
      </trkpt>
      <trkpt lat="43.66378" lon="7.11328">
        <ele>25.200000762939</ele>
        <time>2014-04-20T06:20:27.000Z</time>
      </trkpt>
      <trkpt lat="43.66399" lon="7.11307">
        <ele>25.60000038147</ele>
        <time>2014-04-20T06:20:33.000Z</time>
      </trkpt>
      <trkpt lat="43.66407" lon="7.11301">
        <ele>25.60000038147</ele>
        <time>2014-04-20T06:20:35.000Z</time>
      </trkpt>
      <trkpt lat="43.66419" lon="7.11294">
        <ele>26</ele>
        <time>2014-04-20T06:20:39.000Z</time>
      </trkpt>
      <trkpt lat="43.66434" lon="7.1129">
        <ele>27</ele>
        <time>2014-04-20T06:20:43.000Z</time>
      </trkpt>
      <trkpt lat="43.6645" lon="7.11267">
        <ele>28.39999961853</ele>
        <time>2014-04-20T06:20:48.000Z</time>
      </trkpt>
      <trkpt lat="43.66468" lon="7.11249">
        <ele>29</ele>
        <time>2014-04-20T06:20:53.000Z</time>
      </trkpt>
      <trkpt lat="43.66486" lon="7.11234">
        <ele>29</ele>
        <time>2014-04-20T06:20:58.000Z</time>
      </trkpt>
      <trkpt lat="43.66489" lon="7.11232">
        <ele>29</ele>
        <time>2014-04-20T06:20:59.000Z</time>
      </trkpt>
      <trkpt lat="43.66497" lon="7.11228">
        <ele>29.39999961853</ele>
        <time>2014-04-20T06:21:01.000Z</time>
      </trkpt>
      <trkpt lat="43.66523" lon="7.11212">
        <ele>29</ele>
        <time>2014-04-20T06:21:08.000Z</time>
      </trkpt>
      <trkpt lat="43.66527" lon="7.1121">
        <ele>29</ele>
        <time>2014-04-20T06:21:09.000Z</time>
      </trkpt>
      <trkpt lat="43.66539" lon="7.11205">
        <ele>28</ele>
        <time>2014-04-20T06:21:12.000Z</time>
      </trkpt>
      <trkpt lat="43.66551" lon="7.11199">
        <ele>28</ele>
        <time>2014-04-20T06:21:15.000Z</time>
      </trkpt>
      <trkpt lat="43.66574" lon="7.11191">
        <ele>26.60000038147</ele>
        <time>2014-04-20T06:21:21.000Z</time>
      </trkpt>
      <trkpt lat="43.66601" lon="7.11189">
        <ele>26.60000038147</ele>
        <time>2014-04-20T06:21:28.000Z</time>
      </trkpt>
      <trkpt lat="43.66619" lon="7.11179">
        <ele>26.60000038147</ele>
        <time>2014-04-20T06:21:33.000Z</time>
      </trkpt>
      <trkpt lat="43.66639" lon="7.11168">
        <ele>26</ele>
        <time>2014-04-20T06:21:38.000Z</time>
      </trkpt>
      <trkpt lat="43.66654" lon="7.11159">
        <ele>25.60000038147</ele>
        <time>2014-04-20T06:21:42.000Z</time>
      </trkpt>
      <trkpt lat="43.66662" lon="7.11155">
        <ele>25.60000038147</ele>
        <time>2014-04-20T06:21:44.000Z</time>
      </trkpt>
      <trkpt lat="43.66688" lon="7.11137">
        <ele>26</ele>
        <time>2014-04-20T06:21:51.000Z</time>
      </trkpt>
      <trkpt lat="43.66707" lon="7.11114">
        <ele>26.60000038147</ele>
        <time>2014-04-20T06:21:57.000Z</time>
      </trkpt>
      <trkpt lat="43.66713" lon="7.11108">
        <ele>26</ele>
        <time>2014-04-20T06:21:59.000Z</time>
      </trkpt>
      <trkpt lat="43.66728" lon="7.11096">
        <ele>25.60000038147</ele>
        <time>2014-04-20T06:22:03.000Z</time>
      </trkpt>
      <trkpt lat="43.66749" lon="7.11075">
        <ele>25.60000038147</ele>
        <time>2014-04-20T06:22:09.000Z</time>
      </trkpt>
      <trkpt lat="43.66771" lon="7.11047">
        <ele>26.60000038147</ele>
        <time>2014-04-20T06:22:16.000Z</time>
      </trkpt>
      <trkpt lat="43.66795" lon="7.11">
        <ele>26.60000038147</ele>
        <time>2014-04-20T06:22:26.000Z</time>
      </trkpt>
      <trkpt lat="43.6681" lon="7.1098">
        <ele>26</ele>
        <time>2014-04-20T06:22:31.000Z</time>
      </trkpt>
      <trkpt lat="43.6681" lon="7.1098">
        <ele>26</ele>
        <time>2014-04-20T06:22:31.000Z</time>
      </trkpt>
      <trkpt lat="43.66816" lon="7.10954">
        <ele>26.60000038147</ele>
        <time>2014-04-20T06:22:36.000Z</time>
      </trkpt>
      <trkpt lat="43.66817" lon="7.10949">
        <ele>26.60000038147</ele>
        <time>2014-04-20T06:22:37.000Z</time>
      </trkpt>
      <trkpt lat="43.6682" lon="7.1092">
        <ele>26</ele>
        <time>2014-04-20T06:22:42.000Z</time>
      </trkpt>
      <trkpt lat="43.66833" lon="7.10884">
        <ele>25.60000038147</ele>
        <time>2014-04-20T06:22:49.000Z</time>
      </trkpt>
      <trkpt lat="43.66841" lon="7.10863">
        <ele>25.200000762939</ele>
        <time>2014-04-20T06:22:53.000Z</time>
      </trkpt>
      <trkpt lat="43.66847" lon="7.10829">
        <ele>24.60000038147</ele>
        <time>2014-04-20T06:22:59.000Z</time>
      </trkpt>
      <trkpt lat="43.66853" lon="7.10789">
        <ele>24.60000038147</ele>
        <time>2014-04-20T06:23:06.000Z</time>
      </trkpt>
      <trkpt lat="43.66858" lon="7.10768">
        <ele>24.200000762939</ele>
        <time>2014-04-20T06:23:10.000Z</time>
      </trkpt>
      <trkpt lat="43.66868" lon="7.1073">
        <ele>23.60000038147</ele>
        <time>2014-04-20T06:23:17.000Z</time>
      </trkpt>
      <trkpt lat="43.66882" lon="7.10683">
        <ele>24.200000762939</ele>
        <time>2014-04-20T06:23:26.000Z</time>
      </trkpt>
      <trkpt lat="43.66892" lon="7.1064">
        <ele>24.200000762939</ele>
        <time>2014-04-20T06:23:34.000Z</time>
      </trkpt>
      <trkpt lat="43.669" lon="7.10602">
        <ele>24.60000038147</ele>
        <time>2014-04-20T06:23:40.000Z</time>
      </trkpt>
      <trkpt lat="43.66915" lon="7.10556">
        <ele>25.200000762939</ele>
        <time>2014-04-20T06:23:49.000Z</time>
      </trkpt>
      <trkpt lat="43.6693" lon="7.10515">
        <ele>25.200000762939</ele>
        <time>2014-04-20T06:23:57.000Z</time>
      </trkpt>
      <trkpt lat="43.66939" lon="7.10492">
        <ele>25.200000762939</ele>
        <time>2014-04-20T06:24:02.000Z</time>
      </trkpt>
      <trkpt lat="43.66944" lon="7.10467">
        <ele>25.60000038147</ele>
        <time>2014-04-20T06:24:07.000Z</time>
      </trkpt>
      <trkpt lat="43.66941" lon="7.10443">
        <ele>25.60000038147</ele>
        <time>2014-04-20T06:24:12.000Z</time>
      </trkpt>
      <trkpt lat="43.66922" lon="7.10433">
        <ele>26</ele>
        <time>2014-04-20T06:24:18.000Z</time>
      </trkpt>
      <trkpt lat="43.66893" lon="7.10411">
        <ele>26</ele>
        <time>2014-04-20T06:24:26.000Z</time>
      </trkpt>
      <trkpt lat="43.66886" lon="7.10408">
        <ele>26.60000038147</ele>
        <time>2014-04-20T06:24:28.000Z</time>
      </trkpt>
      <trkpt lat="43.66854" lon="7.10413">
        <ele>26.60000038147</ele>
        <time>2014-04-20T06:24:36.000Z</time>
      </trkpt>
      <trkpt lat="43.66828" lon="7.10421">
        <ele>28</ele>
        <time>2014-04-20T06:24:43.000Z</time>
      </trkpt>
      <trkpt lat="43.66819" lon="7.10423">
        <ele>29</ele>
        <time>2014-04-20T06:24:46.000Z</time>
      </trkpt>
      <trkpt lat="43.66816" lon="7.10423">
        <ele>29.39999961853</ele>
        <time>2014-04-20T06:24:52.000Z</time>
      </trkpt>
      <trkpt lat="43.66813" lon="7.10419">
        <ele>29.39999961853</ele>
        <time>2014-04-20T06:24:57.000Z</time>
      </trkpt>
      <trkpt lat="43.66815" lon="7.10417">
        <ele>29.39999961853</ele>
        <time>2014-04-20T06:25:00.000Z</time>
      </trkpt>
      <trkpt lat="43.66818" lon="7.10414">
        <ele>29</ele>
        <time>2014-04-20T06:25:03.000Z</time>
      </trkpt>
      <trkpt lat="43.66817" lon="7.10405">
        <ele>29.39999961853</ele>
        <time>2014-04-20T06:25:08.000Z</time>
      </trkpt>
      <trkpt lat="43.66815" lon="7.10399">
        <ele>29.39999961853</ele>
        <time>2014-04-20T06:25:13.000Z</time>
      </trkpt>
      <trkpt lat="43.66815" lon="7.10398">
        <ele>29.39999961853</ele>
        <time>2014-04-20T06:25:14.000Z</time>
      </trkpt>
      <trkpt lat="43.66814" lon="7.10394">
        <ele>30</ele>
        <time>2014-04-20T06:25:21.000Z</time>
      </trkpt>
      <trkpt lat="43.66814" lon="7.10388">
        <ele>30</ele>
        <time>2014-04-20T06:25:26.000Z</time>
      </trkpt>
      <trkpt lat="43.66812" lon="7.10382">
        <ele>30.39999961853</ele>
        <time>2014-04-20T06:25:30.000Z</time>
      </trkpt>
      <trkpt lat="43.66809" lon="7.10373">
        <ele>31.39999961853</ele>
        <time>2014-04-20T06:25:36.000Z</time>
      </trkpt>
      <trkpt lat="43.66809" lon="7.1037">
        <ele>32.400001525879</ele>
        <time>2014-04-20T06:25:45.000Z</time>
      </trkpt>
      <trkpt lat="43.66808" lon="7.10365">
        <ele>33.799999237061</ele>
        <time>2014-04-20T06:25:51.000Z</time>
      </trkpt>
      <trkpt lat="43.66808" lon="7.10357">
        <ele>34.200000762939</ele>
        <time>2014-04-20T06:25:58.000Z</time>
      </trkpt>
      <trkpt lat="43.66808" lon="7.10352">
        <ele>34.200000762939</ele>
        <time>2014-04-20T06:26:04.000Z</time>
      </trkpt>
      <trkpt lat="43.66807" lon="7.10349">
        <ele>34.200000762939</ele>
        <time>2014-04-20T06:26:06.000Z</time>
      </trkpt>
      <trkpt lat="43.66803" lon="7.10339">
        <ele>34.799999237061</ele>
        <time>2014-04-20T06:26:12.000Z</time>
      </trkpt>
      <trkpt lat="43.66796" lon="7.10332">
        <ele>36.599998474121</ele>
        <time>2014-04-20T06:26:18.000Z</time>
      </trkpt>
      <trkpt lat="43.6679" lon="7.10324">
        <ele>37.200000762939</ele>
        <time>2014-04-20T06:26:24.000Z</time>
      </trkpt>
      <trkpt lat="43.66781" lon="7.10312">
        <ele>38.599998474121</ele>
        <time>2014-04-20T06:26:32.000Z</time>
      </trkpt>
      <trkpt lat="43.66772" lon="7.10304">
        <ele>39</ele>
        <time>2014-04-20T06:26:38.000Z</time>
      </trkpt>
      <trkpt lat="43.66766" lon="7.10292">
        <ele>39.599998474121</ele>
        <time>2014-04-20T06:26:45.000Z</time>
      </trkpt>
      <trkpt lat="43.66758" lon="7.10284">
        <ele>40</ele>
        <time>2014-04-20T06:26:51.000Z</time>
      </trkpt>
      <trkpt lat="43.66751" lon="7.10276">
        <ele>40</ele>
        <time>2014-04-20T06:26:56.000Z</time>
      </trkpt>
      <trkpt lat="43.66745" lon="7.10268">
        <ele>40.599998474121</ele>
        <time>2014-04-20T06:27:01.000Z</time>
      </trkpt>
      <trkpt lat="43.66742" lon="7.10256">
        <ele>40</ele>
        <time>2014-04-20T06:27:07.000Z</time>
      </trkpt>
      <trkpt lat="43.66742" lon="7.10254">
        <ele>40</ele>
        <time>2014-04-20T06:27:08.000Z</time>
      </trkpt>
      <trkpt lat="43.66736" lon="7.10239">
        <ele>41.400001525879</ele>
        <time>2014-04-20T06:27:16.000Z</time>
      </trkpt>
      <trkpt lat="43.66731" lon="7.10237">
        <ele>42</ele>
        <time>2014-04-20T06:27:20.000Z</time>
      </trkpt>
      <trkpt lat="43.66727" lon="7.10227">
        <ele>43.400001525879</ele>
        <time>2014-04-20T06:27:26.000Z</time>
      </trkpt>
      <trkpt lat="43.66723" lon="7.10219">
        <ele>45.400001525879</ele>
        <time>2014-04-20T06:27:31.000Z</time>
      </trkpt>
      <trkpt lat="43.66714" lon="7.1021">
        <ele>47.200000762939</ele>
        <time>2014-04-20T06:27:39.000Z</time>
      </trkpt>
      <trkpt lat="43.6671" lon="7.10204">
        <ele>48.200000762939</ele>
        <time>2014-04-20T06:27:43.000Z</time>
      </trkpt>
      <trkpt lat="43.66701" lon="7.10196">
        <ele>48.599998474121</ele>
        <time>2014-04-20T06:27:50.000Z</time>
      </trkpt>
      <trkpt lat="43.66697" lon="7.10187">
        <ele>49.200000762939</ele>
        <time>2014-04-20T06:27:55.000Z</time>
      </trkpt>
      <trkpt lat="43.66696" lon="7.10185">
        <ele>49.200000762939</ele>
        <time>2014-04-20T06:27:56.000Z</time>
      </trkpt>
      <trkpt lat="43.66689" lon="7.10174">
        <ele>50.200000762939</ele>
        <time>2014-04-20T06:28:03.000Z</time>
      </trkpt>
      <trkpt lat="43.66688" lon="7.10171">
        <ele>50.599998474121</ele>
        <time>2014-04-20T06:28:05.000Z</time>
      </trkpt>
      <trkpt lat="43.66681" lon="7.10168">
        <ele>51.599998474121</ele>
        <time>2014-04-20T06:28:10.000Z</time>
      </trkpt>
      <trkpt lat="43.66675" lon="7.10162">
        <ele>53</ele>
        <time>2014-04-20T06:28:16.000Z</time>
      </trkpt>
      <trkpt lat="43.66672" lon="7.10158">
        <ele>53</ele>
        <time>2014-04-20T06:28:19.000Z</time>
      </trkpt>
      <trkpt lat="43.66664" lon="7.10158">
        <ele>53.400001525879</ele>
        <time>2014-04-20T06:28:25.000Z</time>
      </trkpt>
      <trkpt lat="43.66663" lon="7.10157">
        <ele>54</ele>
        <time>2014-04-20T06:28:26.000Z</time>
      </trkpt>
      <trkpt lat="43.66654" lon="7.1015">
        <ele>56.400001525879</ele>
        <time>2014-04-20T06:28:34.000Z</time>
      </trkpt>
      <trkpt lat="43.66646" lon="7.1014">
        <ele>56.799999237061</ele>
        <time>2014-04-20T06:28:41.000Z</time>
      </trkpt>
      <trkpt lat="43.66641" lon="7.10126">
        <ele>58.200000762939</ele>
        <time>2014-04-20T06:28:48.000Z</time>
      </trkpt>
      <trkpt lat="43.6664" lon="7.10115">
        <ele>60.200000762939</ele>
        <time>2014-04-20T06:28:54.000Z</time>
      </trkpt>
      <trkpt lat="43.66641" lon="7.10102">
        <ele>63.200000762939</ele>
        <time>2014-04-20T06:29:01.000Z</time>
      </trkpt>
      <trkpt lat="43.6664" lon="7.10093">
        <ele>64.599998474121</ele>
        <time>2014-04-20T06:29:07.000Z</time>
      </trkpt>
      <trkpt lat="43.6664" lon="7.10088">
        <ele>65.599998474121</ele>
        <time>2014-04-20T06:29:10.000Z</time>
      </trkpt>
      <trkpt lat="43.66635" lon="7.10078">
        <ele>67.400001525879</ele>
        <time>2014-04-20T06:29:17.000Z</time>
      </trkpt>
      <trkpt lat="43.66636" lon="7.10066">
        <ele>68.800003051758</ele>
        <time>2014-04-20T06:29:24.000Z</time>
      </trkpt>
      <trkpt lat="43.66639" lon="7.10064">
        <ele>69.800003051758</ele>
        <time>2014-04-20T06:29:27.000Z</time>
      </trkpt>
      <trkpt lat="43.66639" lon="7.10064">
        <ele>69.800003051758</ele>
        <time>2014-04-20T06:29:27.000Z</time>
      </trkpt>
      <trkpt lat="43.66641" lon="7.1006">
        <ele>70.800003051758</ele>
        <time>2014-04-20T06:29:31.000Z</time>
      </trkpt>
      <trkpt lat="43.6664" lon="7.10053">
        <ele>72.199996948242</ele>
        <time>2014-04-20T06:29:35.000Z</time>
      </trkpt>
      <trkpt lat="43.66643" lon="7.10042">
        <ele>72.800003051758</ele>
        <time>2014-04-20T06:29:43.000Z</time>
      </trkpt>
      <trkpt lat="43.66643" lon="7.1004">
        <ele>72.800003051758</ele>
        <time>2014-04-20T06:29:49.000Z</time>
      </trkpt>
      <trkpt lat="43.66643" lon="7.10032">
        <ele>75.199996948242</ele>
        <time>2014-04-20T06:30:19.000Z</time>
      </trkpt>
      <trkpt lat="43.66646" lon="7.10026">
        <ele>75.599998474121</ele>
        <time>2014-04-20T06:30:22.000Z</time>
      </trkpt>
      <trkpt lat="43.66648" lon="7.10011">
        <ele>75.599998474121</ele>
        <time>2014-04-20T06:30:30.000Z</time>
      </trkpt>
      <trkpt lat="43.6665" lon="7.1">
        <ele>77</ele>
        <time>2014-04-20T06:30:36.000Z</time>
      </trkpt>
      <trkpt lat="43.66652" lon="7.09986">
        <ele>78</ele>
        <time>2014-04-20T06:30:44.000Z</time>
      </trkpt>
      <trkpt lat="43.66651" lon="7.09985">
        <ele>78</ele>
        <time>2014-04-20T06:30:45.000Z</time>
      </trkpt>
      <trkpt lat="43.66647" lon="7.09967">
        <ele>80.400001525879</ele>
        <time>2014-04-20T06:30:54.000Z</time>
      </trkpt>
      <trkpt lat="43.66648" lon="7.09949">
        <ele>81.400001525879</ele>
        <time>2014-04-20T06:31:01.000Z</time>
      </trkpt>
      <trkpt lat="43.66651" lon="7.09935">
        <ele>82.800003051758</ele>
        <time>2014-04-20T06:31:08.000Z</time>
      </trkpt>
      <trkpt lat="43.66656" lon="7.09923">
        <ele>83.199996948242</ele>
        <time>2014-04-20T06:31:14.000Z</time>
      </trkpt>
      <trkpt lat="43.66657" lon="7.0991">
        <ele>83.800003051758</ele>
        <time>2014-04-20T06:31:19.000Z</time>
      </trkpt>
      <trkpt lat="43.66663" lon="7.09897">
        <ele>84.800003051758</ele>
        <time>2014-04-20T06:31:25.000Z</time>
      </trkpt>
      <trkpt lat="43.66663" lon="7.09889">
        <ele>85.199996948242</ele>
        <time>2014-04-20T06:31:28.000Z</time>
      </trkpt>
      <trkpt lat="43.66666" lon="7.09865">
        <ele>86.599998474121</ele>
        <time>2014-04-20T06:31:37.000Z</time>
      </trkpt>
      <trkpt lat="43.66674" lon="7.09851">
        <ele>87.199996948242</ele>
        <time>2014-04-20T06:31:44.000Z</time>
      </trkpt>
      <trkpt lat="43.66679" lon="7.09837">
        <ele>87.199996948242</ele>
        <time>2014-04-20T06:31:50.000Z</time>
      </trkpt>
      <trkpt lat="43.66685" lon="7.09819">
        <ele>87.599998474121</ele>
        <time>2014-04-20T06:31:57.000Z</time>
      </trkpt>
      <trkpt lat="43.66688" lon="7.09803">
        <ele>88.599998474121</ele>
        <time>2014-04-20T06:32:03.000Z</time>
      </trkpt>
      <trkpt lat="43.66688" lon="7.09794">
        <ele>89.599998474121</ele>
        <time>2014-04-20T06:32:06.000Z</time>
      </trkpt>
      <trkpt lat="43.6669" lon="7.09775">
        <ele>90</ele>
        <time>2014-04-20T06:32:12.000Z</time>
      </trkpt>
      <trkpt lat="43.6669" lon="7.09763">
        <ele>90.599998474121</ele>
        <time>2014-04-20T06:32:16.000Z</time>
      </trkpt>
      <trkpt lat="43.66677" lon="7.09752">
        <ele>90</ele>
        <time>2014-04-20T06:32:22.000Z</time>
      </trkpt>
      <trkpt lat="43.66661" lon="7.09737">
        <ele>89</ele>
        <time>2014-04-20T06:32:27.000Z</time>
      </trkpt>
      <trkpt lat="43.66656" lon="7.09704">
        <ele>89.599998474121</ele>
        <time>2014-04-20T06:32:34.000Z</time>
      </trkpt>
      <trkpt lat="43.66651" lon="7.09681">
        <ele>90.599998474121</ele>
        <time>2014-04-20T06:32:40.000Z</time>
      </trkpt>
      <trkpt lat="43.66646" lon="7.09659">
        <ele>91</ele>
        <time>2014-04-20T06:32:46.000Z</time>
      </trkpt>
      <trkpt lat="43.66637" lon="7.09641">
        <ele>90.599998474121</ele>
        <time>2014-04-20T06:32:51.000Z</time>
      </trkpt>
      <trkpt lat="43.6663" lon="7.0962">
        <ele>91.400001525879</ele>
        <time>2014-04-20T06:32:56.000Z</time>
      </trkpt>
      <trkpt lat="43.66637" lon="7.09607">
        <ele>92.400001525879</ele>
        <time>2014-04-20T06:33:01.000Z</time>
      </trkpt>
      <trkpt lat="43.66643" lon="7.09593">
        <ele>93.400001525879</ele>
        <time>2014-04-20T06:33:06.000Z</time>
      </trkpt>
      <trkpt lat="43.66643" lon="7.09583">
        <ele>94.400001525879</ele>
        <time>2014-04-20T06:33:09.000Z</time>
      </trkpt>
      <trkpt lat="43.66635" lon="7.09559">
        <ele>94.800003051758</ele>
        <time>2014-04-20T06:33:17.000Z</time>
      </trkpt>
      <trkpt lat="43.66622" lon="7.09541">
        <ele>96.199996948242</ele>
        <time>2014-04-20T06:33:25.000Z</time>
      </trkpt>
      <trkpt lat="43.66616" lon="7.09527">
        <ele>96.800003051758</ele>
        <time>2014-04-20T06:33:30.000Z</time>
      </trkpt>
      <trkpt lat="43.66611" lon="7.09503">
        <ele>97.199996948242</ele>
        <time>2014-04-20T06:33:38.000Z</time>
      </trkpt>
      <trkpt lat="43.66604" lon="7.09487">
        <ele>98.199996948242</ele>
        <time>2014-04-20T06:33:44.000Z</time>
      </trkpt>
      <trkpt lat="43.666" lon="7.09462">
        <ele>99.599998474121</ele>
        <time>2014-04-20T06:33:52.000Z</time>
      </trkpt>
      <trkpt lat="43.666" lon="7.09428">
        <ele>101.59999847412</ele>
        <time>2014-04-20T06:34:03.000Z</time>
      </trkpt>
      <trkpt lat="43.66602" lon="7.09401">
        <ele>103.40000152588</ele>
        <time>2014-04-20T06:34:12.000Z</time>
      </trkpt>
      <trkpt lat="43.66604" lon="7.09383">
        <ele>104</ele>
        <time>2014-04-20T06:34:18.000Z</time>
      </trkpt>
      <trkpt lat="43.66604" lon="7.09362">
        <ele>105.40000152588</ele>
        <time>2014-04-20T06:34:25.000Z</time>
      </trkpt>
      <trkpt lat="43.66611" lon="7.09336">
        <ele>107.40000152588</ele>
        <time>2014-04-20T06:34:34.000Z</time>
      </trkpt>
      <trkpt lat="43.66619" lon="7.09316">
        <ele>108.80000305176</ele>
        <time>2014-04-20T06:34:42.000Z</time>
      </trkpt>
      <trkpt lat="43.66629" lon="7.09299">
        <ele>110.19999694824</ele>
        <time>2014-04-20T06:34:50.000Z</time>
      </trkpt>
      <trkpt lat="43.66642" lon="7.09282">
        <ele>111.19999694824</ele>
        <time>2014-04-20T06:34:59.000Z</time>
      </trkpt>
      <trkpt lat="43.6665" lon="7.09264">
        <ele>112.19999694824</ele>
        <time>2014-04-20T06:35:06.000Z</time>
      </trkpt>
      <trkpt lat="43.66655" lon="7.09243">
        <ele>113.59999847412</ele>
        <time>2014-04-20T06:35:14.000Z</time>
      </trkpt>
      <trkpt lat="43.66661" lon="7.09223">
        <ele>115</ele>
        <time>2014-04-20T06:35:22.000Z</time>
      </trkpt>
      <trkpt lat="43.66667" lon="7.09204">
        <ele>115.40000152588</ele>
        <time>2014-04-20T06:35:30.000Z</time>
      </trkpt>
      <trkpt lat="43.66676" lon="7.09192">
        <ele>116.40000152588</ele>
        <time>2014-04-20T06:35:36.000Z</time>
      </trkpt>
      <trkpt lat="43.66686" lon="7.09182">
        <ele>117</ele>
        <time>2014-04-20T06:35:43.000Z</time>
      </trkpt>
      <trkpt lat="43.66694" lon="7.09177">
        <ele>117.80000305176</ele>
        <time>2014-04-20T06:35:47.000Z</time>
      </trkpt>
      <trkpt lat="43.66701" lon="7.0917">
        <ele>118.40000152588</ele>
        <time>2014-04-20T06:35:52.000Z</time>
      </trkpt>
      <trkpt lat="43.66705" lon="7.09162">
        <ele>118.80000305176</ele>
        <time>2014-04-20T06:35:56.000Z</time>
      </trkpt>
      <trkpt lat="43.66715" lon="7.09146">
        <ele>120.40000152588</ele>
        <time>2014-04-20T06:36:03.000Z</time>
      </trkpt>
      <trkpt lat="43.66719" lon="7.09124">
        <ele>123.59999847412</ele>
        <time>2014-04-20T06:36:10.000Z</time>
      </trkpt>
      <trkpt lat="43.6672" lon="7.09104">
        <ele>127</ele>
        <time>2014-04-20T06:36:17.000Z</time>
      </trkpt>
      <trkpt lat="43.6672" lon="7.09102">
        <ele>127.59999847412</ele>
        <time>2014-04-20T06:36:18.000Z</time>
      </trkpt>
      <trkpt lat="43.66722" lon="7.09086">
        <ele>129.39999389648</ele>
        <time>2014-04-20T06:36:24.000Z</time>
      </trkpt>
      <trkpt lat="43.6673" lon="7.09066">
        <ele>130.80000305176</ele>
        <time>2014-04-20T06:36:32.000Z</time>
      </trkpt>
      <trkpt lat="43.66737" lon="7.09052">
        <ele>131.39999389648</ele>
        <time>2014-04-20T06:36:38.000Z</time>
      </trkpt>
      <trkpt lat="43.66745" lon="7.09039">
        <ele>132.39999389648</ele>
        <time>2014-04-20T06:36:44.000Z</time>
      </trkpt>
      <trkpt lat="43.66753" lon="7.09028">
        <ele>133.80000305176</ele>
        <time>2014-04-20T06:36:50.000Z</time>
      </trkpt>
      <trkpt lat="43.66765" lon="7.0902">
        <ele>134.80000305176</ele>
        <time>2014-04-20T06:36:57.000Z</time>
      </trkpt>
      <trkpt lat="43.66779" lon="7.09011">
        <ele>136.19999694824</ele>
        <time>2014-04-20T06:37:05.000Z</time>
      </trkpt>
      <trkpt lat="43.66792" lon="7.09004">
        <ele>136.19999694824</ele>
        <time>2014-04-20T06:37:12.000Z</time>
      </trkpt>
      <trkpt lat="43.66792" lon="7.09004">
        <ele>136.19999694824</ele>
        <time>2014-04-20T06:37:12.000Z</time>
      </trkpt>
      <trkpt lat="43.66796" lon="7.09004">
        <ele>136.19999694824</ele>
        <time>2014-04-20T06:37:14.000Z</time>
      </trkpt>
      <trkpt lat="43.66808" lon="7.09">
        <ele>137.19999694824</ele>
        <time>2014-04-20T06:37:20.000Z</time>
      </trkpt>
      <trkpt lat="43.66825" lon="7.08993">
        <ele>139</ele>
        <time>2014-04-20T06:37:28.000Z</time>
      </trkpt>
      <trkpt lat="43.66835" lon="7.08982">
        <ele>141</ele>
        <time>2014-04-20T06:37:34.000Z</time>
      </trkpt>
      <trkpt lat="43.66844" lon="7.08969">
        <ele>142</ele>
        <time>2014-04-20T06:37:40.000Z</time>
      </trkpt>
      <trkpt lat="43.66851" lon="7.08954">
        <ele>143.80000305176</ele>
        <time>2014-04-20T06:37:46.000Z</time>
      </trkpt>
      <trkpt lat="43.66864" lon="7.0894">
        <ele>144.80000305176</ele>
        <time>2014-04-20T06:37:53.000Z</time>
      </trkpt>
      <trkpt lat="43.66869" lon="7.08924">
        <ele>146.19999694824</ele>
        <time>2014-04-20T06:37:59.000Z</time>
      </trkpt>
      <trkpt lat="43.66877" lon="7.089">
        <ele>148.60000610352</ele>
        <time>2014-04-20T06:38:08.000Z</time>
      </trkpt>
      <trkpt lat="43.66881" lon="7.08887">
        <ele>149.19999694824</ele>
        <time>2014-04-20T06:38:14.000Z</time>
      </trkpt>
      <trkpt lat="43.66887" lon="7.08865">
        <ele>151.60000610352</ele>
        <time>2014-04-20T06:38:23.000Z</time>
      </trkpt>
      <trkpt lat="43.66892" lon="7.0885">
        <ele>152.60000610352</ele>
        <time>2014-04-20T06:38:30.000Z</time>
      </trkpt>
      <trkpt lat="43.66897" lon="7.08835">
        <ele>153.39999389648</ele>
        <time>2014-04-20T06:38:37.000Z</time>
      </trkpt>
      <trkpt lat="43.66902" lon="7.0882">
        <ele>154</ele>
        <time>2014-04-20T06:38:44.000Z</time>
      </trkpt>
      <trkpt lat="43.66902" lon="7.08816">
        <ele>154.39999389648</ele>
        <time>2014-04-20T06:38:46.000Z</time>
      </trkpt>
      <trkpt lat="43.66905" lon="7.088">
        <ele>157.39999389648</ele>
        <time>2014-04-20T06:38:54.000Z</time>
      </trkpt>
      <trkpt lat="43.66905" lon="7.08786">
        <ele>159.80000305176</ele>
        <time>2014-04-20T06:39:00.000Z</time>
      </trkpt>
      <trkpt lat="43.66904" lon="7.08775">
        <ele>161.19999694824</ele>
        <time>2014-04-20T06:39:06.000Z</time>
      </trkpt>
      <trkpt lat="43.66904" lon="7.08763">
        <ele>162.60000610352</ele>
        <time>2014-04-20T06:39:12.000Z</time>
      </trkpt>
      <trkpt lat="43.66903" lon="7.08758">
        <ele>163</ele>
        <time>2014-04-20T06:39:14.000Z</time>
      </trkpt>
      <trkpt lat="43.66902" lon="7.08749">
        <ele>164</ele>
        <time>2014-04-20T06:39:19.000Z</time>
      </trkpt>
      <trkpt lat="43.66901" lon="7.08733">
        <ele>166</ele>
        <time>2014-04-20T06:39:26.000Z</time>
      </trkpt>
      <trkpt lat="43.66901" lon="7.08718">
        <ele>167.80000305176</ele>
        <time>2014-04-20T06:39:32.000Z</time>
      </trkpt>
      <trkpt lat="43.66902" lon="7.08703">
        <ele>169.80000305176</ele>
        <time>2014-04-20T06:39:39.000Z</time>
      </trkpt>
      <trkpt lat="43.66904" lon="7.08688">
        <ele>169.80000305176</ele>
        <time>2014-04-20T06:39:44.000Z</time>
      </trkpt>
      <trkpt lat="43.66904" lon="7.08658">
        <ele>170.19999694824</ele>
        <time>2014-04-20T06:39:51.000Z</time>
      </trkpt>
      <trkpt lat="43.66905" lon="7.0864">
        <ele>170.80000305176</ele>
        <time>2014-04-20T06:39:55.000Z</time>
      </trkpt>
      <trkpt lat="43.66904" lon="7.08633">
        <ele>170.80000305176</ele>
        <time>2014-04-20T06:40:04.000Z</time>
      </trkpt>
      <trkpt lat="43.66905" lon="7.08632">
        <ele>170.80000305176</ele>
        <time>2014-04-20T06:40:10.000Z</time>
      </trkpt>
      <trkpt lat="43.66903" lon="7.08625">
        <ele>169.80000305176</ele>
        <time>2014-04-20T06:40:21.000Z</time>
      </trkpt>
      <trkpt lat="43.66904" lon="7.08623">
        <ele>169.80000305176</ele>
        <time>2014-04-20T06:40:22.000Z</time>
      </trkpt>
      <trkpt lat="43.66906" lon="7.08609">
        <ele>168.80000305176</ele>
        <time>2014-04-20T06:40:28.000Z</time>
      </trkpt>
      <trkpt lat="43.66907" lon="7.08589">
        <ele>169.39999389648</ele>
        <time>2014-04-20T06:40:34.000Z</time>
      </trkpt>
      <trkpt lat="43.6691" lon="7.0858">
        <ele>170.19999694824</ele>
        <time>2014-04-20T06:40:38.000Z</time>
      </trkpt>
      <trkpt lat="43.6691" lon="7.08567">
        <ele>170.80000305176</ele>
        <time>2014-04-20T06:40:42.000Z</time>
      </trkpt>
      <trkpt lat="43.66908" lon="7.08561">
        <ele>170.80000305176</ele>
        <time>2014-04-20T06:40:44.000Z</time>
      </trkpt>
      <trkpt lat="43.669" lon="7.08538">
        <ele>171.80000305176</ele>
        <time>2014-04-20T06:40:52.000Z</time>
      </trkpt>
      <trkpt lat="43.66895" lon="7.08521">
        <ele>172.19999694824</ele>
        <time>2014-04-20T06:40:58.000Z</time>
      </trkpt>
      <trkpt lat="43.66894" lon="7.08499">
        <ele>174.19999694824</ele>
        <time>2014-04-20T06:41:06.000Z</time>
      </trkpt>
      <trkpt lat="43.66894" lon="7.08483">
        <ele>175.60000610352</ele>
        <time>2014-04-20T06:41:12.000Z</time>
      </trkpt>
      <trkpt lat="43.66892" lon="7.08462">
        <ele>177</ele>
        <time>2014-04-20T06:41:20.000Z</time>
      </trkpt>
      <trkpt lat="43.66887" lon="7.08445">
        <ele>179</ele>
        <time>2014-04-20T06:41:28.000Z</time>
      </trkpt>
      <trkpt lat="43.66879" lon="7.08428">
        <ele>180.39999389648</ele>
        <time>2014-04-20T06:41:36.000Z</time>
      </trkpt>
      <trkpt lat="43.66876" lon="7.08415">
        <ele>182.39999389648</ele>
        <time>2014-04-20T06:41:42.000Z</time>
      </trkpt>
      <trkpt lat="43.66872" lon="7.08406">
        <ele>182.80000305176</ele>
        <time>2014-04-20T06:41:47.000Z</time>
      </trkpt>
      <trkpt lat="43.66869" lon="7.08396">
        <ele>183.80000305176</ele>
        <time>2014-04-20T06:41:52.000Z</time>
      </trkpt>
      <trkpt lat="43.66866" lon="7.08382">
        <ele>184.80000305176</ele>
        <time>2014-04-20T06:41:58.000Z</time>
      </trkpt>
      <trkpt lat="43.66864" lon="7.08378">
        <ele>185.19999694824</ele>
        <time>2014-04-20T06:42:00.000Z</time>
      </trkpt>
      <trkpt lat="43.66856" lon="7.08359">
        <ele>186.60000610352</ele>
        <time>2014-04-20T06:42:08.000Z</time>
      </trkpt>
      <trkpt lat="43.66854" lon="7.0834">
        <ele>186.60000610352</ele>
        <time>2014-04-20T06:42:16.000Z</time>
      </trkpt>
      <trkpt lat="43.66853" lon="7.08324">
        <ele>187.60000610352</ele>
        <time>2014-04-20T06:42:22.000Z</time>
      </trkpt>
      <trkpt lat="43.66853" lon="7.08308">
        <ele>187.60000610352</ele>
        <time>2014-04-20T06:42:27.000Z</time>
      </trkpt>
      <trkpt lat="43.66852" lon="7.08293">
        <ele>188</ele>
        <time>2014-04-20T06:42:31.000Z</time>
      </trkpt>
      <trkpt lat="43.66854" lon="7.08288">
        <ele>188</ele>
        <time>2014-04-20T06:42:32.000Z</time>
      </trkpt>
      <trkpt lat="43.66847" lon="7.0827">
        <ele>187.19999694824</ele>
        <time>2014-04-20T06:42:36.000Z</time>
      </trkpt>
      <trkpt lat="43.66845" lon="7.08264">
        <ele>186.60000610352</ele>
        <time>2014-04-20T06:42:37.000Z</time>
      </trkpt>
      <trkpt lat="43.66839" lon="7.08242">
        <ele>185.60000610352</ele>
        <time>2014-04-20T06:42:40.000Z</time>
      </trkpt>
      <trkpt lat="43.66833" lon="7.08188">
        <ele>184.80000305176</ele>
        <time>2014-04-20T06:42:47.000Z</time>
      </trkpt>
      <trkpt lat="43.66831" lon="7.0816">
        <ele>184.19999694824</ele>
        <time>2014-04-20T06:42:51.000Z</time>
      </trkpt>
      <trkpt lat="43.6683" lon="7.08154">
        <ele>184.19999694824</ele>
        <time>2014-04-20T06:42:52.000Z</time>
      </trkpt>
      <trkpt lat="43.66826" lon="7.0811">
        <ele>184.19999694824</ele>
        <time>2014-04-20T06:43:00.000Z</time>
      </trkpt>
      <trkpt lat="43.66822" lon="7.08083">
        <ele>186.19999694824</ele>
        <time>2014-04-20T06:43:07.000Z</time>
      </trkpt>
      <trkpt lat="43.66817" lon="7.08062">
        <ele>188.60000610352</ele>
        <time>2014-04-20T06:43:14.000Z</time>
      </trkpt>
      <trkpt lat="43.66811" lon="7.08041">
        <ele>190.39999389648</ele>
        <time>2014-04-20T06:43:21.000Z</time>
      </trkpt>
      <trkpt lat="43.66808" lon="7.08023">
        <ele>191.39999389648</ele>
        <time>2014-04-20T06:43:27.000Z</time>
      </trkpt>
      <trkpt lat="43.66806" lon="7.08009">
        <ele>192</ele>
        <time>2014-04-20T06:43:32.000Z</time>
      </trkpt>
      <trkpt lat="43.66803" lon="7.0799">
        <ele>192</ele>
        <time>2014-04-20T06:43:37.000Z</time>
      </trkpt>
      <trkpt lat="43.66797" lon="7.07953">
        <ele>192</ele>
        <time>2014-04-20T06:43:46.000Z</time>
      </trkpt>
      <trkpt lat="43.66795" lon="7.07925">
        <ele>192.80000305176</ele>
        <time>2014-04-20T06:43:53.000Z</time>
      </trkpt>
      <trkpt lat="43.668" lon="7.07893">
        <ele>192.80000305176</ele>
        <time>2014-04-20T06:44:00.000Z</time>
      </trkpt>
      <trkpt lat="43.66806" lon="7.07871">
        <ele>193.39999389648</ele>
        <time>2014-04-20T06:44:05.000Z</time>
      </trkpt>
      <trkpt lat="43.66806" lon="7.07871">
        <ele>193.39999389648</ele>
        <time>2014-04-20T06:44:05.000Z</time>
      </trkpt>
      <trkpt lat="43.66811" lon="7.0786">
        <ele>193.80000305176</ele>
        <time>2014-04-20T06:44:08.000Z</time>
      </trkpt>
      <trkpt lat="43.66822" lon="7.07827">
        <ele>193.80000305176</ele>
        <time>2014-04-20T06:44:16.000Z</time>
      </trkpt>
      <trkpt lat="43.66835" lon="7.07797">
        <ele>194.39999389648</ele>
        <time>2014-04-20T06:44:24.000Z</time>
      </trkpt>
      <trkpt lat="43.66838" lon="7.07791">
        <ele>194.80000305176</ele>
        <time>2014-04-20T06:44:26.000Z</time>
      </trkpt>
      <trkpt lat="43.66836" lon="7.07791">
        <ele>194.80000305176</ele>
        <time>2014-04-20T06:44:30.000Z</time>
      </trkpt>
      <trkpt lat="43.66837" lon="7.07794">
        <ele>194.80000305176</ele>
        <time>2014-04-20T06:44:31.000Z</time>
      </trkpt>
      <trkpt lat="43.66848" lon="7.07815">
        <ele>193.80000305176</ele>
        <time>2014-04-20T06:44:36.000Z</time>
      </trkpt>
      <trkpt lat="43.66861" lon="7.07843">
        <ele>192.39999389648</ele>
        <time>2014-04-20T06:44:41.000Z</time>
      </trkpt>
      <trkpt lat="43.66873" lon="7.07862">
        <ele>192</ele>
        <time>2014-04-20T06:44:45.000Z</time>
      </trkpt>
      <trkpt lat="43.66878" lon="7.07874">
        <ele>191.39999389648</ele>
        <time>2014-04-20T06:44:47.000Z</time>
      </trkpt>
      <trkpt lat="43.66904" lon="7.07903">
        <ele>188</ele>
        <time>2014-04-20T06:44:52.000Z</time>
      </trkpt>
      <trkpt lat="43.66921" lon="7.07922">
        <ele>187.19999694824</ele>
        <time>2014-04-20T06:44:55.000Z</time>
      </trkpt>
      <trkpt lat="43.66937" lon="7.07947">
        <ele>186.60000610352</ele>
        <time>2014-04-20T06:44:59.000Z</time>
      </trkpt>
      <trkpt lat="43.66951" lon="7.07947">
        <ele>185.60000610352</ele>
        <time>2014-04-20T06:45:02.000Z</time>
      </trkpt>
      <trkpt lat="43.66955" lon="7.07945">
        <ele>185.19999694824</ele>
        <time>2014-04-20T06:45:03.000Z</time>
      </trkpt>
      <trkpt lat="43.66976" lon="7.07935">
        <ele>183.80000305176</ele>
        <time>2014-04-20T06:45:08.000Z</time>
      </trkpt>
      <trkpt lat="43.66993" lon="7.07927">
        <ele>182.80000305176</ele>
        <time>2014-04-20T06:45:12.000Z</time>
      </trkpt>
      <trkpt lat="43.67011" lon="7.07918">
        <ele>180.80000305176</ele>
        <time>2014-04-20T06:45:15.000Z</time>
      </trkpt>
      <trkpt lat="43.67035" lon="7.07919">
        <ele>179.39999389648</ele>
        <time>2014-04-20T06:45:19.000Z</time>
      </trkpt>
      <trkpt lat="43.67067" lon="7.07918">
        <ele>177</ele>
        <time>2014-04-20T06:45:24.000Z</time>
      </trkpt>
      <trkpt lat="43.67094" lon="7.07905">
        <ele>174.60000610352</ele>
        <time>2014-04-20T06:45:28.000Z</time>
      </trkpt>
      <trkpt lat="43.67119" lon="7.07885">
        <ele>172.60000610352</ele>
        <time>2014-04-20T06:45:32.000Z</time>
      </trkpt>
      <trkpt lat="43.67132" lon="7.07872">
        <ele>171.80000305176</ele>
        <time>2014-04-20T06:45:34.000Z</time>
      </trkpt>
      <trkpt lat="43.67146" lon="7.07832">
        <ele>169.80000305176</ele>
        <time>2014-04-20T06:45:38.000Z</time>
      </trkpt>
      <trkpt lat="43.67158" lon="7.07805">
        <ele>168.80000305176</ele>
        <time>2014-04-20T06:45:41.000Z</time>
      </trkpt>
      <trkpt lat="43.672" lon="7.07763">
        <ele>166.39999389648</ele>
        <time>2014-04-20T06:45:47.000Z</time>
      </trkpt>
      <trkpt lat="43.67219" lon="7.07751">
        <ele>166</ele>
        <time>2014-04-20T06:45:49.000Z</time>
      </trkpt>
      <trkpt lat="43.67274" lon="7.07723">
        <ele>162.19999694824</ele>
        <time>2014-04-20T06:45:55.000Z</time>
      </trkpt>
      <trkpt lat="43.67307" lon="7.07721">
        <ele>159.19999694824</ele>
        <time>2014-04-20T06:45:59.000Z</time>
      </trkpt>
      <trkpt lat="43.67355" lon="7.07719">
        <ele>153.39999389648</ele>
        <time>2014-04-20T06:46:05.000Z</time>
      </trkpt>
      <trkpt lat="43.67375" lon="7.07713">
        <ele>152</ele>
        <time>2014-04-20T06:46:09.000Z</time>
      </trkpt>
      <trkpt lat="43.6738" lon="7.07721">
        <ele>150.60000610352</ele>
        <time>2014-04-20T06:46:12.000Z</time>
      </trkpt>
      <trkpt lat="43.67387" lon="7.07727">
        <ele>149.60000610352</ele>
        <time>2014-04-20T06:46:15.000Z</time>
      </trkpt>
      <trkpt lat="43.67403" lon="7.07727">
        <ele>148.60000610352</ele>
        <time>2014-04-20T06:46:20.000Z</time>
      </trkpt>
      <trkpt lat="43.67421" lon="7.07733">
        <ele>148.60000610352</ele>
        <time>2014-04-20T06:46:26.000Z</time>
      </trkpt>
      <trkpt lat="43.67441" lon="7.07737">
        <ele>149.60000610352</ele>
        <time>2014-04-20T06:46:33.000Z</time>
      </trkpt>
      <trkpt lat="43.67452" lon="7.07734">
        <ele>149.60000610352</ele>
        <time>2014-04-20T06:46:38.000Z</time>
      </trkpt>
      <trkpt lat="43.67467" lon="7.07736">
        <ele>150.19999694824</ele>
        <time>2014-04-20T06:46:45.000Z</time>
      </trkpt>
      <trkpt lat="43.67481" lon="7.0774">
        <ele>149.19999694824</ele>
        <time>2014-04-20T06:46:52.000Z</time>
      </trkpt>
      <trkpt lat="43.67492" lon="7.07743">
        <ele>149.19999694824</ele>
        <time>2014-04-20T06:46:57.000Z</time>
      </trkpt>
      <trkpt lat="43.67504" lon="7.07748">
        <ele>149.60000610352</ele>
        <time>2014-04-20T06:47:03.000Z</time>
      </trkpt>
      <trkpt lat="43.67515" lon="7.07753">
        <ele>151</ele>
        <time>2014-04-20T06:47:09.000Z</time>
      </trkpt>
      <trkpt lat="43.67531" lon="7.07762">
        <ele>153</ele>
        <time>2014-04-20T06:47:17.000Z</time>
      </trkpt>
      <trkpt lat="43.67544" lon="7.07768">
        <ele>154</ele>
        <time>2014-04-20T06:47:22.000Z</time>
      </trkpt>
      <trkpt lat="43.67544" lon="7.07768">
        <ele>154</ele>
        <time>2014-04-20T06:47:22.000Z</time>
      </trkpt>
      <trkpt lat="43.67549" lon="7.07771">
        <ele>154</ele>
        <time>2014-04-20T06:47:24.000Z</time>
      </trkpt>
      <trkpt lat="43.67562" lon="7.07779">
        <ele>154.39999389648</ele>
        <time>2014-04-20T06:47:29.000Z</time>
      </trkpt>
      <trkpt lat="43.67583" lon="7.07789">
        <ele>154.39999389648</ele>
        <time>2014-04-20T06:47:37.000Z</time>
      </trkpt>
      <trkpt lat="43.67608" lon="7.07795">
        <ele>154</ele>
        <time>2014-04-20T06:47:44.000Z</time>
      </trkpt>
      <trkpt lat="43.67627" lon="7.07804">
        <ele>154</ele>
        <time>2014-04-20T06:47:50.000Z</time>
      </trkpt>
      <trkpt lat="43.67653" lon="7.07812">
        <ele>154</ele>
        <time>2014-04-20T06:47:58.000Z</time>
      </trkpt>
      <trkpt lat="43.67673" lon="7.07827">
        <ele>153</ele>
        <time>2014-04-20T06:48:04.000Z</time>
      </trkpt>
      <trkpt lat="43.67685" lon="7.07848">
        <ele>152</ele>
        <time>2014-04-20T06:48:09.000Z</time>
      </trkpt>
      <trkpt lat="43.67694" lon="7.07862">
        <ele>151</ele>
        <time>2014-04-20T06:48:12.000Z</time>
      </trkpt>
      <trkpt lat="43.6771" lon="7.079">
        <ele>148.60000610352</ele>
        <time>2014-04-20T06:48:17.000Z</time>
      </trkpt>
      <trkpt lat="43.67714" lon="7.07944">
        <ele>145.19999694824</ele>
        <time>2014-04-20T06:48:21.000Z</time>
      </trkpt>
      <trkpt lat="43.67716" lon="7.07978">
        <ele>142.80000305176</ele>
        <time>2014-04-20T06:48:24.000Z</time>
      </trkpt>
      <trkpt lat="43.67722" lon="7.08007">
        <ele>141.39999389648</ele>
        <time>2014-04-20T06:48:27.000Z</time>
      </trkpt>
      <trkpt lat="43.67741" lon="7.08041">
        <ele>140.39999389648</ele>
        <time>2014-04-20T06:48:32.000Z</time>
      </trkpt>
      <trkpt lat="43.67751" lon="7.08055">
        <ele>140</ele>
        <time>2014-04-20T06:48:35.000Z</time>
      </trkpt>
      <trkpt lat="43.67759" lon="7.08065">
        <ele>140</ele>
        <time>2014-04-20T06:48:37.000Z</time>
      </trkpt>
      <trkpt lat="43.67776" lon="7.08084">
        <ele>139</ele>
        <time>2014-04-20T06:48:41.000Z</time>
      </trkpt>
      <trkpt lat="43.67798" lon="7.08114">
        <ele>137.19999694824</ele>
        <time>2014-04-20T06:48:46.000Z</time>
      </trkpt>
      <trkpt lat="43.67811" lon="7.08136">
        <ele>135.19999694824</ele>
        <time>2014-04-20T06:48:49.000Z</time>
      </trkpt>
      <trkpt lat="43.67816" lon="7.0815">
        <ele>134.19999694824</ele>
        <time>2014-04-20T06:48:51.000Z</time>
      </trkpt>
      <trkpt lat="43.67824" lon="7.08168">
        <ele>131.39999389648</ele>
        <time>2014-04-20T06:48:55.000Z</time>
      </trkpt>
      <trkpt lat="43.67823" lon="7.08169">
        <ele>129.39999389648</ele>
        <time>2014-04-20T06:48:59.000Z</time>
      </trkpt>
      <trkpt lat="43.67821" lon="7.08171">
        <ele>127.59999847412</ele>
        <time>2014-04-20T06:49:05.000Z</time>
      </trkpt>
      <trkpt lat="43.67817" lon="7.08172">
        <ele>122.19999694824</ele>
        <time>2014-04-20T06:49:31.000Z</time>
      </trkpt>
      <trkpt lat="43.67816" lon="7.08172">
        <ele>121.19999694824</ele>
        <time>2014-04-20T06:49:36.000Z</time>
      </trkpt>
      <trkpt lat="43.67815" lon="7.08171">
        <ele>120.80000305176</ele>
        <time>2014-04-20T06:49:42.000Z</time>
      </trkpt>
      <trkpt lat="43.67813" lon="7.0817">
        <ele>120.40000152588</ele>
        <time>2014-04-20T06:49:52.000Z</time>
      </trkpt>
      <trkpt lat="43.67812" lon="7.0817">
        <ele>119.80000305176</ele>
        <time>2014-04-20T06:50:13.000Z</time>
      </trkpt>
      <trkpt lat="43.6781" lon="7.08168">
        <ele>120.40000152588</ele>
        <time>2014-04-20T06:50:19.000Z</time>
      </trkpt>
      <trkpt lat="43.67808" lon="7.08166">
        <ele>120.80000305176</ele>
        <time>2014-04-20T06:50:23.000Z</time>
      </trkpt>
      <trkpt lat="43.67806" lon="7.08162">
        <ele>120.80000305176</ele>
        <time>2014-04-20T06:50:27.000Z</time>
      </trkpt>
      <trkpt lat="43.67805" lon="7.08159">
        <ele>120.40000152588</ele>
        <time>2014-04-20T06:50:31.000Z</time>
      </trkpt>
      <trkpt lat="43.67804" lon="7.08158">
        <ele>120.40000152588</ele>
        <time>2014-04-20T06:50:32.000Z</time>
      </trkpt>
      <trkpt lat="43.67803" lon="7.08155">
        <ele>119.80000305176</ele>
        <time>2014-04-20T06:50:35.000Z</time>
      </trkpt>
      <trkpt lat="43.67802" lon="7.08153">
        <ele>120.40000152588</ele>
        <time>2014-04-20T06:50:40.000Z</time>
      </trkpt>
      <trkpt lat="43.678" lon="7.0815">
        <ele>119.80000305176</ele>
        <time>2014-04-20T06:50:45.000Z</time>
      </trkpt>
      <trkpt lat="43.67799" lon="7.08147">
        <ele>120.80000305176</ele>
        <time>2014-04-20T06:50:50.000Z</time>
      </trkpt>
      <trkpt lat="43.67796" lon="7.08142">
        <ele>120.40000152588</ele>
        <time>2014-04-20T06:50:55.000Z</time>
      </trkpt>
      <trkpt lat="43.67794" lon="7.08139">
        <ele>120.40000152588</ele>
        <time>2014-04-20T06:50:59.000Z</time>
      </trkpt>
      <trkpt lat="43.67792" lon="7.08135">
        <ele>120.80000305176</ele>
        <time>2014-04-20T06:51:03.000Z</time>
      </trkpt>
      <trkpt lat="43.6779" lon="7.0813">
        <ele>121.19999694824</ele>
        <time>2014-04-20T06:51:10.000Z</time>
      </trkpt>
      <trkpt lat="43.67789" lon="7.08127">
        <ele>121.80000305176</ele>
        <time>2014-04-20T06:51:14.000Z</time>
      </trkpt>
      <trkpt lat="43.67788" lon="7.08122">
        <ele>123.59999847412</ele>
        <time>2014-04-20T06:51:21.000Z</time>
      </trkpt>
      <trkpt lat="43.67785" lon="7.08117">
        <ele>124.19999694824</ele>
        <time>2014-04-20T06:51:28.000Z</time>
      </trkpt>
      <trkpt lat="43.6778" lon="7.08112">
        <ele>124.59999847412</ele>
        <time>2014-04-20T06:51:35.000Z</time>
      </trkpt>
      <trkpt lat="43.67778" lon="7.08108">
        <ele>125.59999847412</ele>
        <time>2014-04-20T06:51:40.000Z</time>
      </trkpt>
      <trkpt lat="43.67774" lon="7.08102">
        <ele>126</ele>
        <time>2014-04-20T06:51:47.000Z</time>
      </trkpt>
      <trkpt lat="43.67774" lon="7.081">
        <ele>127.59999847412</ele>
        <time>2014-04-20T06:51:54.000Z</time>
      </trkpt>
      <trkpt lat="43.67771" lon="7.08097">
        <ele>129.39999389648</ele>
        <time>2014-04-20T06:52:04.000Z</time>
      </trkpt>
      <trkpt lat="43.67769" lon="7.08094">
        <ele>130.39999389648</ele>
        <time>2014-04-20T06:52:09.000Z</time>
      </trkpt>
      <trkpt lat="43.6777" lon="7.08091">
        <ele>130.80000305176</ele>
        <time>2014-04-20T06:52:12.000Z</time>
      </trkpt>
      <trkpt lat="43.67768" lon="7.08088">
        <ele>131.39999389648</ele>
        <time>2014-04-20T06:52:15.000Z</time>
      </trkpt>
      <trkpt lat="43.67765" lon="7.08083">
        <ele>132.80000305176</ele>
        <time>2014-04-20T06:52:24.000Z</time>
      </trkpt>
      <trkpt lat="43.67764" lon="7.08081">
        <ele>133.80000305176</ele>
        <time>2014-04-20T06:52:29.000Z</time>
      </trkpt>
      <trkpt lat="43.67763" lon="7.08077">
        <ele>134.19999694824</ele>
        <time>2014-04-20T06:52:33.000Z</time>
      </trkpt>
      <trkpt lat="43.67763" lon="7.08076">
        <ele>135.19999694824</ele>
        <time>2014-04-20T06:52:38.000Z</time>
      </trkpt>
      <trkpt lat="43.67762" lon="7.08073">
        <ele>137.19999694824</ele>
        <time>2014-04-20T06:52:42.000Z</time>
      </trkpt>
      <trkpt lat="43.67757" lon="7.0807">
        <ele>136.19999694824</ele>
        <time>2014-04-20T06:52:48.000Z</time>
      </trkpt>
      <trkpt lat="43.6775" lon="7.0806">
        <ele>137.19999694824</ele>
        <time>2014-04-20T06:52:57.000Z</time>
      </trkpt>
      <trkpt lat="43.6775" lon="7.08059">
        <ele>137.19999694824</ele>
        <time>2014-04-20T06:52:58.000Z</time>
      </trkpt>
      <trkpt lat="43.67748" lon="7.08055">
        <ele>137.60000610352</ele>
        <time>2014-04-20T06:53:06.000Z</time>
      </trkpt>
      <trkpt lat="43.67744" lon="7.0805">
        <ele>137.60000610352</ele>
        <time>2014-04-20T06:53:12.000Z</time>
      </trkpt>
      <trkpt lat="43.6774" lon="7.08042">
        <ele>137.60000610352</ele>
        <time>2014-04-20T06:53:18.000Z</time>
      </trkpt>
      <trkpt lat="43.67736" lon="7.08037">
        <ele>138</ele>
        <time>2014-04-20T06:53:22.000Z</time>
      </trkpt>
      <trkpt lat="43.67735" lon="7.08032">
        <ele>139</ele>
        <time>2014-04-20T06:53:26.000Z</time>
      </trkpt>
      <trkpt lat="43.67735" lon="7.08024">
        <ele>139.60000610352</ele>
        <time>2014-04-20T06:53:31.000Z</time>
      </trkpt>
      <trkpt lat="43.67733" lon="7.08016">
        <ele>140</ele>
        <time>2014-04-20T06:53:36.000Z</time>
      </trkpt>
      <trkpt lat="43.67731" lon="7.08003">
        <ele>141.39999389648</ele>
        <time>2014-04-20T06:53:43.000Z</time>
      </trkpt>
      <trkpt lat="43.6773" lon="7.07994">
        <ele>142.80000305176</ele>
        <time>2014-04-20T06:53:58.000Z</time>
      </trkpt>
      <trkpt lat="43.67728" lon="7.07985">
        <ele>143.80000305176</ele>
        <time>2014-04-20T06:54:03.000Z</time>
      </trkpt>
      <trkpt lat="43.67729" lon="7.07971">
        <ele>145.19999694824</ele>
        <time>2014-04-20T06:54:09.000Z</time>
      </trkpt>
      <trkpt lat="43.67729" lon="7.07952">
        <ele>146.80000305176</ele>
        <time>2014-04-20T06:54:16.000Z</time>
      </trkpt>
      <trkpt lat="43.67729" lon="7.07938">
        <ele>148.19999694824</ele>
        <time>2014-04-20T06:54:22.000Z</time>
      </trkpt>
      <trkpt lat="43.67727" lon="7.07926">
        <ele>148.60000610352</ele>
        <time>2014-04-20T06:54:27.000Z</time>
      </trkpt>
      <trkpt lat="43.6772" lon="7.07909">
        <ele>149.19999694824</ele>
        <time>2014-04-20T06:54:35.000Z</time>
      </trkpt>
      <trkpt lat="43.6771" lon="7.07889">
        <ele>149.60000610352</ele>
        <time>2014-04-20T06:54:43.000Z</time>
      </trkpt>
      <trkpt lat="43.677" lon="7.07871">
        <ele>150.19999694824</ele>
        <time>2014-04-20T06:54:50.000Z</time>
      </trkpt>
      <trkpt lat="43.67693" lon="7.07856">
        <ele>150.19999694824</ele>
        <time>2014-04-20T06:54:56.000Z</time>
      </trkpt>
      <trkpt lat="43.67686" lon="7.07842">
        <ele>150.19999694824</ele>
        <time>2014-04-20T06:55:01.000Z</time>
      </trkpt>
      <trkpt lat="43.67676" lon="7.07827">
        <ele>150.19999694824</ele>
        <time>2014-04-20T06:55:07.000Z</time>
      </trkpt>
      <trkpt lat="43.67671" lon="7.07822">
        <ele>150.19999694824</ele>
        <time>2014-04-20T06:55:10.000Z</time>
      </trkpt>
      <trkpt lat="43.67669" lon="7.07823">
        <ele>150.60000610352</ele>
        <time>2014-04-20T06:55:15.000Z</time>
      </trkpt>
      <trkpt lat="43.67671" lon="7.07824">
        <ele>150.60000610352</ele>
        <time>2014-04-20T06:55:16.000Z</time>
      </trkpt>
      <trkpt lat="43.67683" lon="7.07833">
        <ele>150.19999694824</ele>
        <time>2014-04-20T06:55:20.000Z</time>
      </trkpt>
      <trkpt lat="43.67699" lon="7.07859">
        <ele>149.19999694824</ele>
        <time>2014-04-20T06:55:24.000Z</time>
      </trkpt>
      <trkpt lat="43.67717" lon="7.079">
        <ele>147.19999694824</ele>
        <time>2014-04-20T06:55:29.000Z</time>
      </trkpt>
      <trkpt lat="43.67722" lon="7.07937">
        <ele>144.39999389648</ele>
        <time>2014-04-20T06:55:32.000Z</time>
      </trkpt>
      <trkpt lat="43.67721" lon="7.07951">
        <ele>143.39999389648</ele>
        <time>2014-04-20T06:55:33.000Z</time>
      </trkpt>
      <trkpt lat="43.67725" lon="7.07998">
        <ele>141.39999389648</ele>
        <time>2014-04-20T06:55:37.000Z</time>
      </trkpt>
      <trkpt lat="43.67728" lon="7.08007">
        <ele>141</ele>
        <time>2014-04-20T06:55:38.000Z</time>
      </trkpt>
      <trkpt lat="43.67728" lon="7.08007">
        <ele>141</ele>
        <time>2014-04-20T06:55:38.000Z</time>
      </trkpt>
      <trkpt lat="43.67736" lon="7.08033">
        <ele>140.39999389648</ele>
        <time>2014-04-20T06:55:41.000Z</time>
      </trkpt>
      <trkpt lat="43.67741" lon="7.08038">
        <ele>140.39999389648</ele>
        <time>2014-04-20T06:55:42.000Z</time>
      </trkpt>
      <trkpt lat="43.6775" lon="7.08051">
        <ele>139.60000610352</ele>
        <time>2014-04-20T06:55:45.000Z</time>
      </trkpt>
      <trkpt lat="43.67766" lon="7.08067">
        <ele>139</ele>
        <time>2014-04-20T06:55:49.000Z</time>
      </trkpt>
      <trkpt lat="43.6777" lon="7.08072">
        <ele>138.60000610352</ele>
        <time>2014-04-20T06:55:50.000Z</time>
      </trkpt>
      <trkpt lat="43.67784" lon="7.08093">
        <ele>136.60000610352</ele>
        <time>2014-04-20T06:55:54.000Z</time>
      </trkpt>
      <trkpt lat="43.67803" lon="7.08117">
        <ele>134.80000305176</ele>
        <time>2014-04-20T06:55:58.000Z</time>
      </trkpt>
      <trkpt lat="43.67812" lon="7.08131">
        <ele>133.19999694824</ele>
        <time>2014-04-20T06:56:00.000Z</time>
      </trkpt>
      <trkpt lat="43.6782" lon="7.08152">
        <ele>130.39999389648</ele>
        <time>2014-04-20T06:56:03.000Z</time>
      </trkpt>
      <trkpt lat="43.67825" lon="7.08167">
        <ele>127.59999847412</ele>
        <time>2014-04-20T06:56:06.000Z</time>
      </trkpt>
      <trkpt lat="43.67835" lon="7.08184">
        <ele>122.80000305176</ele>
        <time>2014-04-20T06:56:11.000Z</time>
      </trkpt>
      <trkpt lat="43.67837" lon="7.08189">
        <ele>121.80000305176</ele>
        <time>2014-04-20T06:56:12.000Z</time>
      </trkpt>
      <trkpt lat="43.67846" lon="7.08209">
        <ele>117.80000305176</ele>
        <time>2014-04-20T06:56:15.000Z</time>
      </trkpt>
      <trkpt lat="43.6786" lon="7.08243">
        <ele>111.59999847412</ele>
        <time>2014-04-20T06:56:20.000Z</time>
      </trkpt>
      <trkpt lat="43.67868" lon="7.08268">
        <ele>108.19999694824</ele>
        <time>2014-04-20T06:56:23.000Z</time>
      </trkpt>
      <trkpt lat="43.67874" lon="7.08294">
        <ele>104.40000152588</ele>
        <time>2014-04-20T06:56:27.000Z</time>
      </trkpt>
      <trkpt lat="43.67874" lon="7.08314">
        <ele>102</ele>
        <time>2014-04-20T06:56:31.000Z</time>
      </trkpt>
      <trkpt lat="43.67878" lon="7.08308">
        <ele>100.59999847412</ele>
        <time>2014-04-20T06:56:36.000Z</time>
      </trkpt>
      <trkpt lat="43.67887" lon="7.08288">
        <ele>98.599998474121</ele>
        <time>2014-04-20T06:56:40.000Z</time>
      </trkpt>
      <trkpt lat="43.67888" lon="7.0828">
        <ele>98.199996948242</ele>
        <time>2014-04-20T06:56:41.000Z</time>
      </trkpt>
      <trkpt lat="43.67886" lon="7.08222">
        <ele>94.400001525879</ele>
        <time>2014-04-20T06:56:47.000Z</time>
      </trkpt>
      <trkpt lat="43.67882" lon="7.0818">
        <ele>92</ele>
        <time>2014-04-20T06:56:52.000Z</time>
      </trkpt>
      <trkpt lat="43.67882" lon="7.08171">
        <ele>91.400001525879</ele>
        <time>2014-04-20T06:56:53.000Z</time>
      </trkpt>
      <trkpt lat="43.67881" lon="7.08142">
        <ele>90.599998474121</ele>
        <time>2014-04-20T06:56:56.000Z</time>
      </trkpt>
      <trkpt lat="43.6788" lon="7.08122">
        <ele>89.599998474121</ele>
        <time>2014-04-20T06:56:58.000Z</time>
      </trkpt>
      <trkpt lat="43.67885" lon="7.08084">
        <ele>87.599998474121</ele>
        <time>2014-04-20T06:57:02.000Z</time>
      </trkpt>
      <trkpt lat="43.67895" lon="7.08072">
        <ele>86.599998474121</ele>
        <time>2014-04-20T06:57:04.000Z</time>
      </trkpt>
      <trkpt lat="43.67912" lon="7.0806">
        <ele>84.199996948242</ele>
        <time>2014-04-20T06:57:07.000Z</time>
      </trkpt>
      <trkpt lat="43.67939" lon="7.08027">
        <ele>80.800003051758</ele>
        <time>2014-04-20T06:57:13.000Z</time>
      </trkpt>
      <trkpt lat="43.67949" lon="7.08033">
        <ele>77.599998474121</ele>
        <time>2014-04-20T06:57:17.000Z</time>
      </trkpt>
      <trkpt lat="43.67951" lon="7.08037">
        <ele>76.599998474121</ele>
        <time>2014-04-20T06:57:18.000Z</time>
      </trkpt>
      <trkpt lat="43.67974" lon="7.08037">
        <ele>72.199996948242</ele>
        <time>2014-04-20T06:57:23.000Z</time>
      </trkpt>
      <trkpt lat="43.67989" lon="7.08034">
        <ele>69.400001525879</ele>
        <time>2014-04-20T06:57:26.000Z</time>
      </trkpt>
      <trkpt lat="43.68008" lon="7.08012">
        <ele>66</ele>
        <time>2014-04-20T06:57:31.000Z</time>
      </trkpt>
      <trkpt lat="43.68014" lon="7.08014">
        <ele>64.599998474121</ele>
        <time>2014-04-20T06:57:34.000Z</time>
      </trkpt>
      <trkpt lat="43.68015" lon="7.08017">
        <ele>64</ele>
        <time>2014-04-20T06:57:35.000Z</time>
      </trkpt>
      <trkpt lat="43.68017" lon="7.08025">
        <ele>62.200000762939</ele>
        <time>2014-04-20T06:57:37.000Z</time>
      </trkpt>
      <trkpt lat="43.68023" lon="7.08023">
        <ele>59.799999237061</ele>
        <time>2014-04-20T06:57:42.000Z</time>
      </trkpt>
      <trkpt lat="43.68023" lon="7.08019">
        <ele>59.200000762939</ele>
        <time>2014-04-20T06:57:43.000Z</time>
      </trkpt>
      <trkpt lat="43.68018" lon="7.07986">
        <ele>58.200000762939</ele>
        <time>2014-04-20T06:57:51.000Z</time>
      </trkpt>
      <trkpt lat="43.68016" lon="7.07953">
        <ele>56.799999237061</ele>
        <time>2014-04-20T06:57:58.000Z</time>
      </trkpt>
      <trkpt lat="43.68024" lon="7.07922">
        <ele>55</ele>
        <time>2014-04-20T06:58:05.000Z</time>
      </trkpt>
      <trkpt lat="43.68038" lon="7.07892">
        <ele>53.400001525879</ele>
        <time>2014-04-20T06:58:12.000Z</time>
      </trkpt>
      <trkpt lat="43.68049" lon="7.07866">
        <ele>51.599998474121</ele>
        <time>2014-04-20T06:58:18.000Z</time>
      </trkpt>
      <trkpt lat="43.68064" lon="7.07829">
        <ele>50.599998474121</ele>
        <time>2014-04-20T06:58:26.000Z</time>
      </trkpt>
      <trkpt lat="43.68079" lon="7.07793">
        <ele>50.200000762939</ele>
        <time>2014-04-20T06:58:34.000Z</time>
      </trkpt>
      <trkpt lat="43.68096" lon="7.07759">
        <ele>49.200000762939</ele>
        <time>2014-04-20T06:58:42.000Z</time>
      </trkpt>
      <trkpt lat="43.68114" lon="7.07737">
        <ele>50.200000762939</ele>
        <time>2014-04-20T06:58:48.000Z</time>
      </trkpt>
      <trkpt lat="43.68138" lon="7.07714">
        <ele>50.599998474121</ele>
        <time>2014-04-20T06:58:56.000Z</time>
      </trkpt>
      <trkpt lat="43.68141" lon="7.07711">
        <ele>50.599998474121</ele>
        <time>2014-04-20T06:58:57.000Z</time>
      </trkpt>
      <trkpt lat="43.68141" lon="7.07711">
        <ele>50.599998474121</ele>
        <time>2014-04-20T06:58:57.000Z</time>
      </trkpt>
      <trkpt lat="43.68167" lon="7.07689">
        <ele>50.599998474121</ele>
        <time>2014-04-20T06:59:05.000Z</time>
      </trkpt>
      <trkpt lat="43.68191" lon="7.07665">
        <ele>50.599998474121</ele>
        <time>2014-04-20T06:59:13.000Z</time>
      </trkpt>
      <trkpt lat="43.6821" lon="7.07639">
        <ele>50.200000762939</ele>
        <time>2014-04-20T06:59:20.000Z</time>
      </trkpt>
      <trkpt lat="43.68232" lon="7.07603">
        <ele>51</ele>
        <time>2014-04-20T06:59:29.000Z</time>
      </trkpt>
      <trkpt lat="43.68248" lon="7.07577">
        <ele>51</ele>
        <time>2014-04-20T06:59:36.000Z</time>
      </trkpt>
      <trkpt lat="43.68261" lon="7.07552">
        <ele>51</ele>
        <time>2014-04-20T06:59:42.000Z</time>
      </trkpt>
      <trkpt lat="43.68283" lon="7.07507">
        <ele>52</ele>
        <time>2014-04-20T06:59:52.000Z</time>
      </trkpt>
      <trkpt lat="43.68303" lon="7.07479">
        <ele>53</ele>
        <time>2014-04-20T06:59:59.000Z</time>
      </trkpt>
      <trkpt lat="43.68321" lon="7.07451">
        <ele>55</ele>
        <time>2014-04-20T07:00:06.000Z</time>
      </trkpt>
      <trkpt lat="43.68335" lon="7.07418">
        <ele>56.400001525879</ele>
        <time>2014-04-20T07:00:13.000Z</time>
      </trkpt>
      <trkpt lat="43.6835" lon="7.07384">
        <ele>57.799999237061</ele>
        <time>2014-04-20T07:00:21.000Z</time>
      </trkpt>
      <trkpt lat="43.68366" lon="7.07352">
        <ele>58.200000762939</ele>
        <time>2014-04-20T07:00:29.000Z</time>
      </trkpt>
      <trkpt lat="43.68384" lon="7.07338">
        <ele>58.200000762939</ele>
        <time>2014-04-20T07:00:36.000Z</time>
      </trkpt>
      <trkpt lat="43.68397" lon="7.07324">
        <ele>58.799999237061</ele>
        <time>2014-04-20T07:00:42.000Z</time>
      </trkpt>
      <trkpt lat="43.68408" lon="7.07308">
        <ele>60.200000762939</ele>
        <time>2014-04-20T07:00:49.000Z</time>
      </trkpt>
      <trkpt lat="43.68408" lon="7.07301">
        <ele>60.200000762939</ele>
        <time>2014-04-20T07:00:53.000Z</time>
      </trkpt>
      <trkpt lat="43.68406" lon="7.07301">
        <ele>60.799999237061</ele>
        <time>2014-04-20T07:00:56.000Z</time>
      </trkpt>
      <trkpt lat="43.68404" lon="7.073">
        <ele>61.200000762939</ele>
        <time>2014-04-20T07:00:59.000Z</time>
      </trkpt>
      <trkpt lat="43.68399" lon="7.073">
        <ele>61.200000762939</ele>
        <time>2014-04-20T07:01:07.000Z</time>
      </trkpt>
      <trkpt lat="43.68396" lon="7.07301">
        <ele>61.599998474121</ele>
        <time>2014-04-20T07:01:16.000Z</time>
      </trkpt>
      <trkpt lat="43.68392" lon="7.07298">
        <ele>62.200000762939</ele>
        <time>2014-04-20T07:01:23.000Z</time>
      </trkpt>
      <trkpt lat="43.68392" lon="7.07295">
        <ele>62.200000762939</ele>
        <time>2014-04-20T07:01:29.000Z</time>
      </trkpt>
      <trkpt lat="43.68396" lon="7.07291">
        <ele>64</ele>
        <time>2014-04-20T07:02:01.000Z</time>
      </trkpt>
      <trkpt lat="43.68397" lon="7.07289">
        <ele>65.599998474121</ele>
        <time>2014-04-20T07:02:08.000Z</time>
      </trkpt>
      <trkpt lat="43.68399" lon="7.07284">
        <ele>66</ele>
        <time>2014-04-20T07:02:13.000Z</time>
      </trkpt>
      <trkpt lat="43.68401" lon="7.07275">
        <ele>66</ele>
        <time>2014-04-20T07:02:19.000Z</time>
      </trkpt>
      <trkpt lat="43.68403" lon="7.07268">
        <ele>66.400001525879</ele>
        <time>2014-04-20T07:02:24.000Z</time>
      </trkpt>
      <trkpt lat="43.68405" lon="7.07264">
        <ele>67</ele>
        <time>2014-04-20T07:02:27.000Z</time>
      </trkpt>
      <trkpt lat="43.68407" lon="7.07257">
        <ele>68.400001525879</ele>
        <time>2014-04-20T07:02:33.000Z</time>
      </trkpt>
      <trkpt lat="43.68407" lon="7.07253">
        <ele>68.400001525879</ele>
        <time>2014-04-20T07:02:36.000Z</time>
      </trkpt>
      <trkpt lat="43.68408" lon="7.0725">
        <ele>69.800003051758</ele>
        <time>2014-04-20T07:02:43.000Z</time>
      </trkpt>
      <trkpt lat="43.68408" lon="7.07246">
        <ele>70.800003051758</ele>
        <time>2014-04-20T07:02:47.000Z</time>
      </trkpt>
      <trkpt lat="43.68408" lon="7.07242">
        <ele>71.800003051758</ele>
        <time>2014-04-20T07:02:54.000Z</time>
      </trkpt>
      <trkpt lat="43.68404" lon="7.07239">
        <ele>73.199996948242</ele>
        <time>2014-04-20T07:03:07.000Z</time>
      </trkpt>
      <trkpt lat="43.68401" lon="7.07239">
        <ele>73.199996948242</ele>
        <time>2014-04-20T07:03:14.000Z</time>
      </trkpt>
      <trkpt lat="43.68396" lon="7.07239">
        <ele>72.800003051758</ele>
        <time>2014-04-20T07:03:21.000Z</time>
      </trkpt>
      <trkpt lat="43.68392" lon="7.07238">
        <ele>72.800003051758</ele>
        <time>2014-04-20T07:03:28.000Z</time>
      </trkpt>
      <trkpt lat="43.68387" lon="7.07238">
        <ele>73.199996948242</ele>
        <time>2014-04-20T07:03:36.000Z</time>
      </trkpt>
      <trkpt lat="43.68381" lon="7.07238">
        <ele>73.599998474121</ele>
        <time>2014-04-20T07:03:43.000Z</time>
      </trkpt>
      <trkpt lat="43.6838" lon="7.07234">
        <ele>74.599998474121</ele>
        <time>2014-04-20T07:03:49.000Z</time>
      </trkpt>
      <trkpt lat="43.6838" lon="7.07231">
        <ele>75.599998474121</ele>
        <time>2014-04-20T07:03:59.000Z</time>
      </trkpt>
      <trkpt lat="43.68381" lon="7.0723">
        <ele>76.599998474121</ele>
        <time>2014-04-20T07:04:04.000Z</time>
      </trkpt>
      <trkpt lat="43.68379" lon="7.07229">
        <ele>77.599998474121</ele>
        <time>2014-04-20T07:04:09.000Z</time>
      </trkpt>
      <trkpt lat="43.68378" lon="7.07228">
        <ele>77</ele>
        <time>2014-04-20T07:04:17.000Z</time>
      </trkpt>
      <trkpt lat="43.68379" lon="7.07228">
        <ele>77.599998474121</ele>
        <time>2014-04-20T07:04:28.000Z</time>
      </trkpt>
      <trkpt lat="43.68379" lon="7.07228">
        <ele>78.400001525879</ele>
        <time>2014-04-20T07:04:36.000Z</time>
      </trkpt>
      <trkpt lat="43.68379" lon="7.07228">
        <ele>80.400001525879</ele>
        <time>2014-04-20T07:04:46.000Z</time>
      </trkpt>
      <trkpt lat="43.68378" lon="7.0723">
        <ele>79.400001525879</ele>
        <time>2014-04-20T07:04:56.000Z</time>
      </trkpt>
      <trkpt lat="43.68378" lon="7.07227">
        <ele>80</ele>
        <time>2014-04-20T07:05:01.000Z</time>
      </trkpt>
      <trkpt lat="43.68378" lon="7.07225">
        <ele>80</ele>
        <time>2014-04-20T07:05:07.000Z</time>
      </trkpt>
      <trkpt lat="43.68379" lon="7.07224">
        <ele>80</ele>
        <time>2014-04-20T07:05:15.000Z</time>
      </trkpt>
      <trkpt lat="43.68381" lon="7.0722">
        <ele>82.400001525879</ele>
        <time>2014-04-20T07:05:33.000Z</time>
      </trkpt>
      <trkpt lat="43.68382" lon="7.07216">
        <ele>81.800003051758</ele>
        <time>2014-04-20T07:05:45.000Z</time>
      </trkpt>
      <trkpt lat="43.68386" lon="7.07211">
        <ele>81.800003051758</ele>
        <time>2014-04-20T07:05:52.000Z</time>
      </trkpt>
      <trkpt lat="43.68389" lon="7.07206">
        <ele>80.800003051758</ele>
        <time>2014-04-20T07:05:59.000Z</time>
      </trkpt>
      <trkpt lat="43.68392" lon="7.072">
        <ele>80.800003051758</ele>
        <time>2014-04-20T07:06:06.000Z</time>
      </trkpt>
      <trkpt lat="43.68393" lon="7.07194">
        <ele>81.800003051758</ele>
        <time>2014-04-20T07:06:13.000Z</time>
      </trkpt>
      <trkpt lat="43.68391" lon="7.07192">
        <ele>82.400001525879</ele>
        <time>2014-04-20T07:06:19.000Z</time>
      </trkpt>
      <trkpt lat="43.68389" lon="7.07192">
        <ele>82.800003051758</ele>
        <time>2014-04-20T07:06:34.000Z</time>
      </trkpt>
      <trkpt lat="43.68386" lon="7.07194">
        <ele>82.400001525879</ele>
        <time>2014-04-20T07:06:41.000Z</time>
      </trkpt>
      <trkpt lat="43.68384" lon="7.07192">
        <ele>82.800003051758</ele>
        <time>2014-04-20T07:06:47.000Z</time>
      </trkpt>
      <trkpt lat="43.68384" lon="7.07187">
        <ele>83.199996948242</ele>
        <time>2014-04-20T07:06:54.000Z</time>
      </trkpt>
      <trkpt lat="43.68385" lon="7.07184">
        <ele>83.800003051758</ele>
        <time>2014-04-20T07:07:00.000Z</time>
      </trkpt>
      <trkpt lat="43.68385" lon="7.07177">
        <ele>85.599998474121</ele>
        <time>2014-04-20T07:07:07.000Z</time>
      </trkpt>
      <trkpt lat="43.68385" lon="7.07172">
        <ele>86.599998474121</ele>
        <time>2014-04-20T07:07:14.000Z</time>
      </trkpt>
      <trkpt lat="43.68384" lon="7.07167">
        <ele>87.599998474121</ele>
        <time>2014-04-20T07:07:20.000Z</time>
      </trkpt>
      <trkpt lat="43.68383" lon="7.07162">
        <ele>89</ele>
        <time>2014-04-20T07:07:28.000Z</time>
      </trkpt>
      <trkpt lat="43.68382" lon="7.07154">
        <ele>92.400001525879</ele>
        <time>2014-04-20T07:07:44.000Z</time>
      </trkpt>
      <trkpt lat="43.68381" lon="7.07152">
        <ele>92.400001525879</ele>
        <time>2014-04-20T07:07:45.000Z</time>
      </trkpt>
      <trkpt lat="43.68378" lon="7.07143">
        <ele>93</ele>
        <time>2014-04-20T07:07:51.000Z</time>
      </trkpt>
      <trkpt lat="43.68377" lon="7.07139">
        <ele>93.800003051758</ele>
        <time>2014-04-20T07:07:57.000Z</time>
      </trkpt>
      <trkpt lat="43.68376" lon="7.07134">
        <ele>94.800003051758</ele>
        <time>2014-04-20T07:08:02.000Z</time>
      </trkpt>
      <trkpt lat="43.68373" lon="7.07129">
        <ele>96.199996948242</ele>
        <time>2014-04-20T07:08:08.000Z</time>
      </trkpt>
      <trkpt lat="43.68371" lon="7.07126">
        <ele>97.199996948242</ele>
        <time>2014-04-20T07:08:13.000Z</time>
      </trkpt>
      <trkpt lat="43.68372" lon="7.07121">
        <ele>97.800003051758</ele>
        <time>2014-04-20T07:08:19.000Z</time>
      </trkpt>
      <trkpt lat="43.68373" lon="7.07117">
        <ele>99.199996948242</ele>
        <time>2014-04-20T07:08:24.000Z</time>
      </trkpt>
      <trkpt lat="43.68375" lon="7.07113">
        <ele>100.19999694824</ele>
        <time>2014-04-20T07:08:30.000Z</time>
      </trkpt>
      <trkpt lat="43.68378" lon="7.07106">
        <ele>101.59999847412</ele>
        <time>2014-04-20T07:08:38.000Z</time>
      </trkpt>
      <trkpt lat="43.6838" lon="7.07101">
        <ele>102.59999847412</ele>
        <time>2014-04-20T07:08:43.000Z</time>
      </trkpt>
      <trkpt lat="43.68383" lon="7.07094">
        <ele>104.40000152588</ele>
        <time>2014-04-20T07:08:51.000Z</time>
      </trkpt>
      <trkpt lat="43.68386" lon="7.07088">
        <ele>106.40000152588</ele>
        <time>2014-04-20T07:09:00.000Z</time>
      </trkpt>
      <trkpt lat="43.68389" lon="7.07085">
        <ele>106.80000305176</ele>
        <time>2014-04-20T07:09:05.000Z</time>
      </trkpt>
      <trkpt lat="43.68392" lon="7.07081">
        <ele>107.80000305176</ele>
        <time>2014-04-20T07:09:11.000Z</time>
      </trkpt>
      <trkpt lat="43.68395" lon="7.07076">
        <ele>108.19999694824</ele>
        <time>2014-04-20T07:09:17.000Z</time>
      </trkpt>
      <trkpt lat="43.68396" lon="7.07071">
        <ele>107.80000305176</ele>
        <time>2014-04-20T07:09:21.000Z</time>
      </trkpt>
      <trkpt lat="43.68397" lon="7.07067">
        <ele>107.80000305176</ele>
        <time>2014-04-20T07:09:27.000Z</time>
      </trkpt>
      <trkpt lat="43.68403" lon="7.07067">
        <ele>108.19999694824</ele>
        <time>2014-04-20T07:09:32.000Z</time>
      </trkpt>
      <trkpt lat="43.68408" lon="7.07069">
        <ele>109.80000305176</ele>
        <time>2014-04-20T07:09:36.000Z</time>
      </trkpt>
      <trkpt lat="43.68415" lon="7.07076">
        <ele>113</ele>
        <time>2014-04-20T07:09:44.000Z</time>
      </trkpt>
      <trkpt lat="43.6842" lon="7.07078">
        <ele>114.59999847412</ele>
        <time>2014-04-20T07:09:49.000Z</time>
      </trkpt>
      <trkpt lat="43.68426" lon="7.07079">
        <ele>115.40000152588</ele>
        <time>2014-04-20T07:09:55.000Z</time>
      </trkpt>
      <trkpt lat="43.68429" lon="7.07079">
        <ele>116.40000152588</ele>
        <time>2014-04-20T07:09:58.000Z</time>
      </trkpt>
      <trkpt lat="43.68432" lon="7.07079">
        <ele>117</ele>
        <time>2014-04-20T07:10:02.000Z</time>
      </trkpt>
      <trkpt lat="43.68436" lon="7.07078">
        <ele>117.40000152588</ele>
        <time>2014-04-20T07:10:06.000Z</time>
      </trkpt>
      <trkpt lat="43.68438" lon="7.07076">
        <ele>118.80000305176</ele>
        <time>2014-04-20T07:10:14.000Z</time>
      </trkpt>
      <trkpt lat="43.6844" lon="7.07076">
        <ele>119.40000152588</ele>
        <time>2014-04-20T07:10:19.000Z</time>
      </trkpt>
      <trkpt lat="43.68443" lon="7.07076">
        <ele>120.40000152588</ele>
        <time>2014-04-20T07:10:27.000Z</time>
      </trkpt>
      <trkpt lat="43.68451" lon="7.07075">
        <ele>118.80000305176</ele>
        <time>2014-04-20T07:10:35.000Z</time>
      </trkpt>
      <trkpt lat="43.68458" lon="7.07074">
        <ele>118.40000152588</ele>
        <time>2014-04-20T07:10:41.000Z</time>
      </trkpt>
      <trkpt lat="43.68465" lon="7.07072">
        <ele>117</ele>
        <time>2014-04-20T07:10:47.000Z</time>
      </trkpt>
      <trkpt lat="43.68473" lon="7.07068">
        <ele>115.40000152588</ele>
        <time>2014-04-20T07:10:54.000Z</time>
      </trkpt>
      <trkpt lat="43.68481" lon="7.07064">
        <ele>114.59999847412</ele>
        <time>2014-04-20T07:11:00.000Z</time>
      </trkpt>
      <trkpt lat="43.68483" lon="7.07061">
        <ele>114</ele>
        <time>2014-04-20T07:11:02.000Z</time>
      </trkpt>
      <trkpt lat="43.6849" lon="7.07054">
        <ele>114.59999847412</ele>
        <time>2014-04-20T07:11:08.000Z</time>
      </trkpt>
      <trkpt lat="43.68491" lon="7.07053">
        <ele>114.59999847412</ele>
        <time>2014-04-20T07:11:09.000Z</time>
      </trkpt>
      <trkpt lat="43.68498" lon="7.07046">
        <ele>115</ele>
        <time>2014-04-20T07:11:16.000Z</time>
      </trkpt>
      <trkpt lat="43.68503" lon="7.0704">
        <ele>117</ele>
        <time>2014-04-20T07:11:21.000Z</time>
      </trkpt>
      <trkpt lat="43.68506" lon="7.07032">
        <ele>118.40000152588</ele>
        <time>2014-04-20T07:11:27.000Z</time>
      </trkpt>
      <trkpt lat="43.68507" lon="7.0703">
        <ele>118.80000305176</ele>
        <time>2014-04-20T07:11:29.000Z</time>
      </trkpt>
      <trkpt lat="43.68508" lon="7.07024">
        <ele>118.40000152588</ele>
        <time>2014-04-20T07:11:33.000Z</time>
      </trkpt>
      <trkpt lat="43.6851" lon="7.07016">
        <ele>119.40000152588</ele>
        <time>2014-04-20T07:11:40.000Z</time>
      </trkpt>
      <trkpt lat="43.68512" lon="7.07009">
        <ele>120.80000305176</ele>
        <time>2014-04-20T07:11:46.000Z</time>
      </trkpt>
      <trkpt lat="43.68514" lon="7.07003">
        <ele>122.19999694824</ele>
        <time>2014-04-20T07:11:51.000Z</time>
      </trkpt>
      <trkpt lat="43.68516" lon="7.06997">
        <ele>123.19999694824</ele>
        <time>2014-04-20T07:11:56.000Z</time>
      </trkpt>
      <trkpt lat="43.68519" lon="7.06987">
        <ele>125.19999694824</ele>
        <time>2014-04-20T07:12:04.000Z</time>
      </trkpt>
      <trkpt lat="43.68519" lon="7.0698">
        <ele>125.19999694824</ele>
        <time>2014-04-20T07:12:09.000Z</time>
      </trkpt>
      <trkpt lat="43.6852" lon="7.06972">
        <ele>126</ele>
        <time>2014-04-20T07:12:14.000Z</time>
      </trkpt>
      <trkpt lat="43.6852" lon="7.06961">
        <ele>128.39999389648</ele>
        <time>2014-04-20T07:12:20.000Z</time>
      </trkpt>
      <trkpt lat="43.6852" lon="7.06949">
        <ele>131.39999389648</ele>
        <time>2014-04-20T07:12:27.000Z</time>
      </trkpt>
      <trkpt lat="43.6852" lon="7.06937">
        <ele>133.19999694824</ele>
        <time>2014-04-20T07:12:34.000Z</time>
      </trkpt>
      <trkpt lat="43.6852" lon="7.06922">
        <ele>137.19999694824</ele>
        <time>2014-04-20T07:12:42.000Z</time>
      </trkpt>
      <trkpt lat="43.6852" lon="7.06914">
        <ele>138.60000610352</ele>
        <time>2014-04-20T07:12:46.000Z</time>
      </trkpt>
      <trkpt lat="43.68519" lon="7.06904">
        <ele>140.39999389648</ele>
        <time>2014-04-20T07:12:52.000Z</time>
      </trkpt>
      <trkpt lat="43.6852" lon="7.069">
        <ele>141</ele>
        <time>2014-04-20T07:12:54.000Z</time>
      </trkpt>
      <trkpt lat="43.68523" lon="7.06889">
        <ele>142.39999389648</ele>
        <time>2014-04-20T07:13:01.000Z</time>
      </trkpt>
      <trkpt lat="43.68525" lon="7.06877">
        <ele>144.39999389648</ele>
        <time>2014-04-20T07:13:08.000Z</time>
      </trkpt>
      <trkpt lat="43.68526" lon="7.06874">
        <ele>144.80000305176</ele>
        <time>2014-04-20T07:13:10.000Z</time>
      </trkpt>
      <trkpt lat="43.68526" lon="7.06866">
        <ele>145.19999694824</ele>
        <time>2014-04-20T07:13:14.000Z</time>
      </trkpt>
      <trkpt lat="43.68526" lon="7.06861">
        <ele>145.80000305176</ele>
        <time>2014-04-20T07:13:16.000Z</time>
      </trkpt>
      <trkpt lat="43.68527" lon="7.06859">
        <ele>145.80000305176</ele>
        <time>2014-04-20T07:13:17.000Z</time>
      </trkpt>
      <trkpt lat="43.68528" lon="7.06847">
        <ele>148.19999694824</ele>
        <time>2014-04-20T07:13:22.000Z</time>
      </trkpt>
      <trkpt lat="43.68528" lon="7.06838">
        <ele>149.60000610352</ele>
        <time>2014-04-20T07:13:26.000Z</time>
      </trkpt>
      <trkpt lat="43.6853" lon="7.06823">
        <ele>152</ele>
        <time>2014-04-20T07:13:32.000Z</time>
      </trkpt>
      <trkpt lat="43.68533" lon="7.0681">
        <ele>152.60000610352</ele>
        <time>2014-04-20T07:13:37.000Z</time>
      </trkpt>
      <trkpt lat="43.68537" lon="7.06799">
        <ele>153</ele>
        <time>2014-04-20T07:13:42.000Z</time>
      </trkpt>
      <trkpt lat="43.6854" lon="7.06786">
        <ele>154</ele>
        <time>2014-04-20T07:13:47.000Z</time>
      </trkpt>
      <trkpt lat="43.68546" lon="7.0677">
        <ele>155.39999389648</ele>
        <time>2014-04-20T07:13:54.000Z</time>
      </trkpt>
      <trkpt lat="43.6855" lon="7.06761">
        <ele>155.80000305176</ele>
        <time>2014-04-20T07:13:58.000Z</time>
      </trkpt>
      <trkpt lat="43.68555" lon="7.06743">
        <ele>158.19999694824</ele>
        <time>2014-04-20T07:14:05.000Z</time>
      </trkpt>
      <trkpt lat="43.68558" lon="7.06731">
        <ele>160.60000610352</ele>
        <time>2014-04-20T07:14:11.000Z</time>
      </trkpt>
      <trkpt lat="43.68559" lon="7.06729">
        <ele>161.19999694824</ele>
        <time>2014-04-20T07:14:14.000Z</time>
      </trkpt>
      <trkpt lat="43.68559" lon="7.06726">
        <ele>162.19999694824</ele>
        <time>2014-04-20T07:14:19.000Z</time>
      </trkpt>
      <trkpt lat="43.68563" lon="7.06713">
        <ele>166.39999389648</ele>
        <time>2014-04-20T07:14:57.000Z</time>
      </trkpt>
      <trkpt lat="43.68564" lon="7.06709">
        <ele>167.39999389648</ele>
        <time>2014-04-20T07:15:23.000Z</time>
      </trkpt>
      <trkpt lat="43.68564" lon="7.06699">
        <ele>168.80000305176</ele>
        <time>2014-04-20T07:17:09.000Z</time>
      </trkpt>
      <trkpt lat="43.68563" lon="7.067">
        <ele>167.80000305176</ele>
        <time>2014-04-20T07:17:18.000Z</time>
      </trkpt>
      <trkpt lat="43.68562" lon="7.06701">
        <ele>167.39999389648</ele>
        <time>2014-04-20T07:17:19.000Z</time>
      </trkpt>
      <trkpt lat="43.68559" lon="7.06703">
        <ele>165.39999389648</ele>
        <time>2014-04-20T07:17:22.000Z</time>
      </trkpt>
      <trkpt lat="43.68554" lon="7.06711">
        <ele>164</ele>
        <time>2014-04-20T07:17:27.000Z</time>
      </trkpt>
      <trkpt lat="43.68549" lon="7.0672">
        <ele>163</ele>
        <time>2014-04-20T07:17:34.000Z</time>
      </trkpt>
      <trkpt lat="43.68543" lon="7.06729">
        <ele>162.19999694824</ele>
        <time>2014-04-20T07:17:40.000Z</time>
      </trkpt>
      <trkpt lat="43.68534" lon="7.06738">
        <ele>161.60000610352</ele>
        <time>2014-04-20T07:17:46.000Z</time>
      </trkpt>
      <trkpt lat="43.68528" lon="7.06748">
        <ele>162.60000610352</ele>
        <time>2014-04-20T07:17:52.000Z</time>
      </trkpt>
      <trkpt lat="43.68522" lon="7.06757">
        <ele>162.19999694824</ele>
        <time>2014-04-20T07:17:58.000Z</time>
      </trkpt>
      <trkpt lat="43.68514" lon="7.06768">
        <ele>161.60000610352</ele>
        <time>2014-04-20T07:18:05.000Z</time>
      </trkpt>
      <trkpt lat="43.68508" lon="7.06778">
        <ele>162.60000610352</ele>
        <time>2014-04-20T07:18:10.000Z</time>
      </trkpt>
      <trkpt lat="43.68504" lon="7.06784">
        <ele>163.60000610352</ele>
        <time>2014-04-20T07:18:14.000Z</time>
      </trkpt>
      <trkpt lat="43.68502" lon="7.06788">
        <ele>164.60000610352</ele>
        <time>2014-04-20T07:18:16.000Z</time>
      </trkpt>
      <trkpt lat="43.68493" lon="7.06804">
        <ele>165.39999389648</ele>
        <time>2014-04-20T07:18:25.000Z</time>
      </trkpt>
      <trkpt lat="43.68485" lon="7.0682">
        <ele>167.39999389648</ele>
        <time>2014-04-20T07:18:33.000Z</time>
      </trkpt>
      <trkpt lat="43.6848" lon="7.0683">
        <ele>168.39999389648</ele>
        <time>2014-04-20T07:18:38.000Z</time>
      </trkpt>
      <trkpt lat="43.68476" lon="7.06841">
        <ele>169.39999389648</ele>
        <time>2014-04-20T07:18:44.000Z</time>
      </trkpt>
      <trkpt lat="43.68473" lon="7.06844">
        <ele>168.80000305176</ele>
        <time>2014-04-20T07:18:47.000Z</time>
      </trkpt>
      <trkpt lat="43.68466" lon="7.06852">
        <ele>168.80000305176</ele>
        <time>2014-04-20T07:18:53.000Z</time>
      </trkpt>
      <trkpt lat="43.68459" lon="7.06864">
        <ele>168.39999389648</ele>
        <time>2014-04-20T07:19:00.000Z</time>
      </trkpt>
      <trkpt lat="43.68453" lon="7.06876">
        <ele>169.80000305176</ele>
        <time>2014-04-20T07:19:06.000Z</time>
      </trkpt>
      <trkpt lat="43.68443" lon="7.06883">
        <ele>171.19999694824</ele>
        <time>2014-04-20T07:19:13.000Z</time>
      </trkpt>
      <trkpt lat="43.6843" lon="7.06884">
        <ele>171.80000305176</ele>
        <time>2014-04-20T07:19:21.000Z</time>
      </trkpt>
      <trkpt lat="43.68418" lon="7.06877">
        <ele>172.19999694824</ele>
        <time>2014-04-20T07:19:29.000Z</time>
      </trkpt>
      <trkpt lat="43.68417" lon="7.06876">
        <ele>172.19999694824</ele>
        <time>2014-04-20T07:19:30.000Z</time>
      </trkpt>
      <trkpt lat="43.68417" lon="7.06879">
        <ele>171.80000305176</ele>
        <time>2014-04-20T07:19:34.000Z</time>
      </trkpt>
      <trkpt lat="43.68432" lon="7.06887">
        <ele>172.19999694824</ele>
        <time>2014-04-20T07:19:40.000Z</time>
      </trkpt>
      <trkpt lat="43.68436" lon="7.06892">
        <ele>171.80000305176</ele>
        <time>2014-04-20T07:19:42.000Z</time>
      </trkpt>
      <trkpt lat="43.68449" lon="7.06901">
        <ele>168.80000305176</ele>
        <time>2014-04-20T07:19:47.000Z</time>
      </trkpt>
      <trkpt lat="43.68462" lon="7.0691">
        <ele>165</ele>
        <time>2014-04-20T07:19:51.000Z</time>
      </trkpt>
      <trkpt lat="43.68473" lon="7.06922">
        <ele>159.80000305176</ele>
        <time>2014-04-20T07:19:56.000Z</time>
      </trkpt>
      <trkpt lat="43.68481" lon="7.06928">
        <ele>156.80000305176</ele>
        <time>2014-04-20T07:19:59.000Z</time>
      </trkpt>
      <trkpt lat="43.6849" lon="7.06935">
        <ele>150.60000610352</ele>
        <time>2014-04-20T07:20:03.000Z</time>
      </trkpt>
      <trkpt lat="43.68514" lon="7.06949">
        <ele>140.39999389648</ele>
        <time>2014-04-20T07:20:09.000Z</time>
      </trkpt>
      <trkpt lat="43.68516" lon="7.06952">
        <ele>139</ele>
        <time>2014-04-20T07:20:10.000Z</time>
      </trkpt>
      <trkpt lat="43.68517" lon="7.06963">
        <ele>137.19999694824</ele>
        <time>2014-04-20T07:20:13.000Z</time>
      </trkpt>
      <trkpt lat="43.68516" lon="7.06996">
        <ele>135.60000610352</ele>
        <time>2014-04-20T07:20:17.000Z</time>
      </trkpt>
      <trkpt lat="43.68516" lon="7.07006">
        <ele>134.80000305176</ele>
        <time>2014-04-20T07:20:18.000Z</time>
      </trkpt>
      <trkpt lat="43.685" lon="7.07039">
        <ele>132.39999389648</ele>
        <time>2014-04-20T07:20:22.000Z</time>
      </trkpt>
      <trkpt lat="43.68472" lon="7.07059">
        <ele>129.39999389648</ele>
        <time>2014-04-20T07:20:26.000Z</time>
      </trkpt>
      <trkpt lat="43.68464" lon="7.07061">
        <ele>128.39999389648</ele>
        <time>2014-04-20T07:20:27.000Z</time>
      </trkpt>
      <trkpt lat="43.68446" lon="7.07066">
        <ele>126.59999847412</ele>
        <time>2014-04-20T07:20:29.000Z</time>
      </trkpt>
      <trkpt lat="43.68417" lon="7.07061">
        <ele>122.80000305176</ele>
        <time>2014-04-20T07:20:33.000Z</time>
      </trkpt>
      <trkpt lat="43.68402" lon="7.07051">
        <ele>121.19999694824</ele>
        <time>2014-04-20T07:20:36.000Z</time>
      </trkpt>
      <trkpt lat="43.68397" lon="7.07057">
        <ele>120.40000152588</ele>
        <time>2014-04-20T07:20:38.000Z</time>
      </trkpt>
      <trkpt lat="43.68384" lon="7.07081">
        <ele>119.40000152588</ele>
        <time>2014-04-20T07:20:43.000Z</time>
      </trkpt>
      <trkpt lat="43.68371" lon="7.07097">
        <ele>117.40000152588</ele>
        <time>2014-04-20T07:20:47.000Z</time>
      </trkpt>
      <trkpt lat="43.6837" lon="7.07116">
        <ele>116</ele>
        <time>2014-04-20T07:20:51.000Z</time>
      </trkpt>
      <trkpt lat="43.68382" lon="7.0714">
        <ele>113.59999847412</ele>
        <time>2014-04-20T07:20:55.000Z</time>
      </trkpt>
      <trkpt lat="43.68385" lon="7.07153">
        <ele>111.59999847412</ele>
        <time>2014-04-20T07:20:57.000Z</time>
      </trkpt>
      <trkpt lat="43.68382" lon="7.0718">
        <ele>107.40000152588</ele>
        <time>2014-04-20T07:21:02.000Z</time>
      </trkpt>
      <trkpt lat="43.68384" lon="7.07184">
        <ele>105</ele>
        <time>2014-04-20T07:21:05.000Z</time>
      </trkpt>
      <trkpt lat="43.68391" lon="7.07182">
        <ele>103</ele>
        <time>2014-04-20T07:21:07.000Z</time>
      </trkpt>
      <trkpt lat="43.68391" lon="7.07191">
        <ele>98.599998474121</ele>
        <time>2014-04-20T07:21:10.000Z</time>
      </trkpt>
      <trkpt lat="43.68378" lon="7.07211">
        <ele>93.400001525879</ele>
        <time>2014-04-20T07:21:14.000Z</time>
      </trkpt>
      <trkpt lat="43.68376" lon="7.07216">
        <ele>92</ele>
        <time>2014-04-20T07:21:15.000Z</time>
      </trkpt>
      <trkpt lat="43.68376" lon="7.07229">
        <ele>88.599998474121</ele>
        <time>2014-04-20T07:21:19.000Z</time>
      </trkpt>
      <trkpt lat="43.6839" lon="7.07227">
        <ele>87.199996948242</ele>
        <time>2014-04-20T07:21:22.000Z</time>
      </trkpt>
      <trkpt lat="43.68401" lon="7.07227">
        <ele>84.800003051758</ele>
        <time>2014-04-20T07:21:26.000Z</time>
      </trkpt>
      <trkpt lat="43.68401" lon="7.07231">
        <ele>84.199996948242</ele>
        <time>2014-04-20T07:21:27.000Z</time>
      </trkpt>
      <trkpt lat="43.68399" lon="7.07245">
        <ele>82.800003051758</ele>
        <time>2014-04-20T07:21:29.000Z</time>
      </trkpt>
      <trkpt lat="43.68389" lon="7.07269">
        <ele>81.400001525879</ele>
        <time>2014-04-20T07:21:33.000Z</time>
      </trkpt>
      <trkpt lat="43.68381" lon="7.07288">
        <ele>78.400001525879</ele>
        <time>2014-04-20T07:21:37.000Z</time>
      </trkpt>
      <trkpt lat="43.68389" lon="7.07288">
        <ele>77</ele>
        <time>2014-04-20T07:21:40.000Z</time>
      </trkpt>
      <trkpt lat="43.68394" lon="7.07289">
        <ele>75.599998474121</ele>
        <time>2014-04-20T07:21:42.000Z</time>
      </trkpt>
      <trkpt lat="43.68396" lon="7.07291">
        <ele>72.800003051758</ele>
        <time>2014-04-20T07:21:49.000Z</time>
      </trkpt>
      <trkpt lat="43.68393" lon="7.07297">
        <ele>70.400001525879</ele>
        <time>2014-04-20T07:21:54.000Z</time>
      </trkpt>
      <trkpt lat="43.68392" lon="7.07299">
        <ele>69.800003051758</ele>
        <time>2014-04-20T07:21:55.000Z</time>
      </trkpt>
      <trkpt lat="43.68374" lon="7.07319">
        <ele>68</ele>
        <time>2014-04-20T07:22:01.000Z</time>
      </trkpt>
      <trkpt lat="43.68365" lon="7.07325">
        <ele>67.400001525879</ele>
        <time>2014-04-20T07:22:03.000Z</time>
      </trkpt>
      <trkpt lat="43.68365" lon="7.07325">
        <ele>67.400001525879</ele>
        <time>2014-04-20T07:22:03.000Z</time>
      </trkpt>
      <trkpt lat="43.68356" lon="7.07331">
        <ele>67</ele>
        <time>2014-04-20T07:22:05.000Z</time>
      </trkpt>
      <trkpt lat="43.68344" lon="7.07349">
        <ele>66</ele>
        <time>2014-04-20T07:22:09.000Z</time>
      </trkpt>
      <trkpt lat="43.68345" lon="7.07365">
        <ele>64</ele>
        <time>2014-04-20T07:22:13.000Z</time>
      </trkpt>
      <trkpt lat="43.68357" lon="7.0736">
        <ele>63.200000762939</ele>
        <time>2014-04-20T07:22:16.000Z</time>
      </trkpt>
      <trkpt lat="43.6838" lon="7.07342">
        <ele>61.200000762939</ele>
        <time>2014-04-20T07:22:23.000Z</time>
      </trkpt>
      <trkpt lat="43.68406" lon="7.07322">
        <ele>60.200000762939</ele>
        <time>2014-04-20T07:22:31.000Z</time>
      </trkpt>
      <trkpt lat="43.68423" lon="7.07302">
        <ele>59.200000762939</ele>
        <time>2014-04-20T07:22:36.000Z</time>
      </trkpt>
      <trkpt lat="43.68446" lon="7.07277">
        <ele>57.799999237061</ele>
        <time>2014-04-20T07:22:42.000Z</time>
      </trkpt>
      <trkpt lat="43.68484" lon="7.07246">
        <ele>55.799999237061</ele>
        <time>2014-04-20T07:22:51.000Z</time>
      </trkpt>
      <trkpt lat="43.68527" lon="7.07213">
        <ele>55</ele>
        <time>2014-04-20T07:23:02.000Z</time>
      </trkpt>
      <trkpt lat="43.68551" lon="7.07201">
        <ele>55</ele>
        <time>2014-04-20T07:23:08.000Z</time>
      </trkpt>
      <trkpt lat="43.68569" lon="7.07199">
        <ele>54.400001525879</ele>
        <time>2014-04-20T07:23:12.000Z</time>
      </trkpt>
      <trkpt lat="43.68594" lon="7.07205">
        <ele>54.400001525879</ele>
        <time>2014-04-20T07:23:18.000Z</time>
      </trkpt>
      <trkpt lat="43.68641" lon="7.07218">
        <ele>53.400001525879</ele>
        <time>2014-04-20T07:23:28.000Z</time>
      </trkpt>
      <trkpt lat="43.68687" lon="7.07231">
        <ele>52.599998474121</ele>
        <time>2014-04-20T07:23:38.000Z</time>
      </trkpt>
      <trkpt lat="43.68715" lon="7.07239">
        <ele>51.599998474121</ele>
        <time>2014-04-20T07:23:44.000Z</time>
      </trkpt>
      <trkpt lat="43.68751" lon="7.07249">
        <ele>51</ele>
        <time>2014-04-20T07:23:52.000Z</time>
      </trkpt>
      <trkpt lat="43.68796" lon="7.07262">
        <ele>51.599998474121</ele>
        <time>2014-04-20T07:24:02.000Z</time>
      </trkpt>
      <trkpt lat="43.68826" lon="7.07269">
        <ele>52</ele>
        <time>2014-04-20T07:24:09.000Z</time>
      </trkpt>
      <trkpt lat="43.68855" lon="7.07284">
        <ele>52.599998474121</ele>
        <time>2014-04-20T07:24:16.000Z</time>
      </trkpt>
      <trkpt lat="43.6888" lon="7.07305">
        <ele>53.400001525879</ele>
        <time>2014-04-20T07:24:23.000Z</time>
      </trkpt>
      <trkpt lat="43.68906" lon="7.07317">
        <ele>55</ele>
        <time>2014-04-20T07:24:31.000Z</time>
      </trkpt>
      <trkpt lat="43.68923" lon="7.07313">
        <ele>55.400001525879</ele>
        <time>2014-04-20T07:24:37.000Z</time>
      </trkpt>
      <trkpt lat="43.68939" lon="7.073">
        <ele>56.799999237061</ele>
        <time>2014-04-20T07:24:44.000Z</time>
      </trkpt>
      <trkpt lat="43.68944" lon="7.07293">
        <ele>57.400001525879</ele>
        <time>2014-04-20T07:24:47.000Z</time>
      </trkpt>
      <trkpt lat="43.6895" lon="7.07293">
        <ele>57.799999237061</ele>
        <time>2014-04-20T07:24:51.000Z</time>
      </trkpt>
      <trkpt lat="43.68951" lon="7.07297">
        <ele>58.200000762939</ele>
        <time>2014-04-20T07:25:03.000Z</time>
      </trkpt>
      <trkpt lat="43.68951" lon="7.073">
        <ele>58.200000762939</ele>
        <time>2014-04-20T07:25:08.000Z</time>
      </trkpt>
      <trkpt lat="43.68953" lon="7.07305">
        <ele>59.200000762939</ele>
        <time>2014-04-20T07:25:18.000Z</time>
      </trkpt>
      <trkpt lat="43.68962" lon="7.07315">
        <ele>59.799999237061</ele>
        <time>2014-04-20T07:25:26.000Z</time>
      </trkpt>
      <trkpt lat="43.68966" lon="7.07321">
        <ele>59.799999237061</ele>
        <time>2014-04-20T07:25:30.000Z</time>
      </trkpt>
      <trkpt lat="43.68974" lon="7.07336">
        <ele>60.799999237061</ele>
        <time>2014-04-20T07:25:39.000Z</time>
      </trkpt>
      <trkpt lat="43.68981" lon="7.07346">
        <ele>61.200000762939</ele>
        <time>2014-04-20T07:25:46.000Z</time>
      </trkpt>
      <trkpt lat="43.68982" lon="7.07347">
        <ele>61.599998474121</ele>
        <time>2014-04-20T07:25:47.000Z</time>
      </trkpt>
      <trkpt lat="43.68989" lon="7.07354">
        <ele>62.200000762939</ele>
        <time>2014-04-20T07:25:54.000Z</time>
      </trkpt>
      <trkpt lat="43.68992" lon="7.07354">
        <ele>62.200000762939</ele>
        <time>2014-04-20T07:25:56.000Z</time>
      </trkpt>
      <trkpt lat="43.69002" lon="7.07355">
        <ele>62.599998474121</ele>
        <time>2014-04-20T07:26:03.000Z</time>
      </trkpt>
      <trkpt lat="43.69011" lon="7.07357">
        <ele>63.599998474121</ele>
        <time>2014-04-20T07:26:11.000Z</time>
      </trkpt>
      <trkpt lat="43.69018" lon="7.07359">
        <ele>64.599998474121</ele>
        <time>2014-04-20T07:26:16.000Z</time>
      </trkpt>
      <trkpt lat="43.69027" lon="7.07361">
        <ele>65.599998474121</ele>
        <time>2014-04-20T07:26:23.000Z</time>
      </trkpt>
      <trkpt lat="43.69028" lon="7.07361">
        <ele>65.599998474121</ele>
        <time>2014-04-20T07:26:24.000Z</time>
      </trkpt>
      <trkpt lat="43.69039" lon="7.07363">
        <ele>66.400001525879</ele>
        <time>2014-04-20T07:26:33.000Z</time>
      </trkpt>
      <trkpt lat="43.69047" lon="7.07366">
        <ele>68</ele>
        <time>2014-04-20T07:26:39.000Z</time>
      </trkpt>
      <trkpt lat="43.69054" lon="7.07368">
        <ele>69.400001525879</ele>
        <time>2014-04-20T07:26:45.000Z</time>
      </trkpt>
      <trkpt lat="43.69063" lon="7.07372">
        <ele>72.199996948242</ele>
        <time>2014-04-20T07:26:53.000Z</time>
      </trkpt>
      <trkpt lat="43.69071" lon="7.07376">
        <ele>75.199996948242</ele>
        <time>2014-04-20T07:27:00.000Z</time>
      </trkpt>
      <trkpt lat="43.6908" lon="7.07378">
        <ele>77</ele>
        <time>2014-04-20T07:27:07.000Z</time>
      </trkpt>
      <trkpt lat="43.69086" lon="7.07381">
        <ele>79</ele>
        <time>2014-04-20T07:27:13.000Z</time>
      </trkpt>
      <trkpt lat="43.69089" lon="7.07382">
        <ele>80</ele>
        <time>2014-04-20T07:27:15.000Z</time>
      </trkpt>
      <trkpt lat="43.69095" lon="7.07386">
        <ele>82.800003051758</ele>
        <time>2014-04-20T07:27:21.000Z</time>
      </trkpt>
      <trkpt lat="43.69101" lon="7.07388">
        <ele>84.800003051758</ele>
        <time>2014-04-20T07:27:26.000Z</time>
      </trkpt>
      <trkpt lat="43.69102" lon="7.07388">
        <ele>84.800003051758</ele>
        <time>2014-04-20T07:27:27.000Z</time>
      </trkpt>
      <trkpt lat="43.69105" lon="7.07389">
        <ele>85.199996948242</ele>
        <time>2014-04-20T07:27:29.000Z</time>
      </trkpt>
      <trkpt lat="43.6911" lon="7.07391">
        <ele>86.599998474121</ele>
        <time>2014-04-20T07:27:34.000Z</time>
      </trkpt>
      <trkpt lat="43.69114" lon="7.07395">
        <ele>87.599998474121</ele>
        <time>2014-04-20T07:27:38.000Z</time>
      </trkpt>
      <trkpt lat="43.6912" lon="7.07397">
        <ele>89.599998474121</ele>
        <time>2014-04-20T07:27:43.000Z</time>
      </trkpt>
      <trkpt lat="43.69121" lon="7.07398">
        <ele>89.599998474121</ele>
        <time>2014-04-20T07:27:44.000Z</time>
      </trkpt>
      <trkpt lat="43.69125" lon="7.07399">
        <ele>91</ele>
        <time>2014-04-20T07:27:48.000Z</time>
      </trkpt>
      <trkpt lat="43.69129" lon="7.07403">
        <ele>92.400001525879</ele>
        <time>2014-04-20T07:27:52.000Z</time>
      </trkpt>
      <trkpt lat="43.69134" lon="7.07403">
        <ele>93.800003051758</ele>
        <time>2014-04-20T07:27:56.000Z</time>
      </trkpt>
      <trkpt lat="43.69141" lon="7.07402">
        <ele>95.400001525879</ele>
        <time>2014-04-20T07:28:02.000Z</time>
      </trkpt>
      <trkpt lat="43.69146" lon="7.07403">
        <ele>96.199996948242</ele>
        <time>2014-04-20T07:28:07.000Z</time>
      </trkpt>
      <trkpt lat="43.69153" lon="7.07403">
        <ele>98.599998474121</ele>
        <time>2014-04-20T07:28:12.000Z</time>
      </trkpt>
      <trkpt lat="43.6916" lon="7.07402">
        <ele>100.19999694824</ele>
        <time>2014-04-20T07:28:18.000Z</time>
      </trkpt>
      <trkpt lat="43.69167" lon="7.07399">
        <ele>101.59999847412</ele>
        <time>2014-04-20T07:28:25.000Z</time>
      </trkpt>
      <trkpt lat="43.69168" lon="7.07394">
        <ele>102</ele>
        <time>2014-04-20T07:28:30.000Z</time>
      </trkpt>
      <trkpt lat="43.69167" lon="7.07388">
        <ele>104</ele>
        <time>2014-04-20T07:28:35.000Z</time>
      </trkpt>
      <trkpt lat="43.69161" lon="7.0738">
        <ele>106.40000152588</ele>
        <time>2014-04-20T07:28:43.000Z</time>
      </trkpt>
      <trkpt lat="43.69157" lon="7.07373">
        <ele>108.80000305176</ele>
        <time>2014-04-20T07:28:49.000Z</time>
      </trkpt>
      <trkpt lat="43.69155" lon="7.0737">
        <ele>109.19999694824</ele>
        <time>2014-04-20T07:28:51.000Z</time>
      </trkpt>
      <trkpt lat="43.69148" lon="7.07363">
        <ele>110.19999694824</ele>
        <time>2014-04-20T07:28:59.000Z</time>
      </trkpt>
      <trkpt lat="43.69141" lon="7.0735">
        <ele>111.19999694824</ele>
        <time>2014-04-20T07:29:08.000Z</time>
      </trkpt>
      <trkpt lat="43.69139" lon="7.07346">
        <ele>111.59999847412</ele>
        <time>2014-04-20T07:29:11.000Z</time>
      </trkpt>
      <trkpt lat="43.69137" lon="7.07339">
        <ele>112.19999694824</ele>
        <time>2014-04-20T07:29:15.000Z</time>
      </trkpt>
      <trkpt lat="43.69132" lon="7.07327">
        <ele>113</ele>
        <time>2014-04-20T07:29:23.000Z</time>
      </trkpt>
      <trkpt lat="43.69127" lon="7.07318">
        <ele>115</ele>
        <time>2014-04-20T07:29:30.000Z</time>
      </trkpt>
      <trkpt lat="43.69118" lon="7.07307">
        <ele>117</ele>
        <time>2014-04-20T07:29:39.000Z</time>
      </trkpt>
      <trkpt lat="43.6911" lon="7.07299">
        <ele>118.40000152588</ele>
        <time>2014-04-20T07:29:47.000Z</time>
      </trkpt>
      <trkpt lat="43.69104" lon="7.07292">
        <ele>119.80000305176</ele>
        <time>2014-04-20T07:29:53.000Z</time>
      </trkpt>
      <trkpt lat="43.69101" lon="7.07287">
        <ele>119.80000305176</ele>
        <time>2014-04-20T07:29:57.000Z</time>
      </trkpt>
      <trkpt lat="43.69102" lon="7.07276">
        <ele>121.19999694824</ele>
        <time>2014-04-20T07:30:03.000Z</time>
      </trkpt>
      <trkpt lat="43.69108" lon="7.07276">
        <ele>122.80000305176</ele>
        <time>2014-04-20T07:30:09.000Z</time>
      </trkpt>
      <trkpt lat="43.6911" lon="7.07276">
        <ele>123.59999847412</ele>
        <time>2014-04-20T07:30:11.000Z</time>
      </trkpt>
      <trkpt lat="43.69115" lon="7.07279">
        <ele>124.59999847412</ele>
        <time>2014-04-20T07:30:16.000Z</time>
      </trkpt>
      <trkpt lat="43.69119" lon="7.07279">
        <ele>126.59999847412</ele>
        <time>2014-04-20T07:30:21.000Z</time>
      </trkpt>
      <trkpt lat="43.69124" lon="7.07281">
        <ele>127</ele>
        <time>2014-04-20T07:30:26.000Z</time>
      </trkpt>
      <trkpt lat="43.69129" lon="7.07284">
        <ele>128.39999389648</ele>
        <time>2014-04-20T07:30:31.000Z</time>
      </trkpt>
      <trkpt lat="43.69129" lon="7.07284">
        <ele>129</ele>
        <time>2014-04-20T07:30:32.000Z</time>
      </trkpt>
      <trkpt lat="43.69134" lon="7.07285">
        <ele>130.80000305176</ele>
        <time>2014-04-20T07:30:36.000Z</time>
      </trkpt>
      <trkpt lat="43.6914" lon="7.07285">
        <ele>133.19999694824</ele>
        <time>2014-04-20T07:30:41.000Z</time>
      </trkpt>
      <trkpt lat="43.69142" lon="7.07286">
        <ele>133.80000305176</ele>
        <time>2014-04-20T07:30:43.000Z</time>
      </trkpt>
      <trkpt lat="43.69148" lon="7.07287">
        <ele>134.80000305176</ele>
        <time>2014-04-20T07:30:49.000Z</time>
      </trkpt>
      <trkpt lat="43.69155" lon="7.07287">
        <ele>136.19999694824</ele>
        <time>2014-04-20T07:30:55.000Z</time>
      </trkpt>
      <trkpt lat="43.69156" lon="7.07288">
        <ele>136.19999694824</ele>
        <time>2014-04-20T07:30:56.000Z</time>
      </trkpt>
      <trkpt lat="43.6916" lon="7.0729">
        <ele>137.60000610352</ele>
        <time>2014-04-20T07:31:00.000Z</time>
      </trkpt>
      <trkpt lat="43.69166" lon="7.07291">
        <ele>139</ele>
        <time>2014-04-20T07:31:05.000Z</time>
      </trkpt>
      <trkpt lat="43.69167" lon="7.07291">
        <ele>139.60000610352</ele>
        <time>2014-04-20T07:31:06.000Z</time>
      </trkpt>
      <trkpt lat="43.69169" lon="7.07292">
        <ele>140</ele>
        <time>2014-04-20T07:31:08.000Z</time>
      </trkpt>
      <trkpt lat="43.69178" lon="7.07293">
        <ele>141.39999389648</ele>
        <time>2014-04-20T07:31:16.000Z</time>
      </trkpt>
      <trkpt lat="43.69187" lon="7.07294">
        <ele>142.80000305176</ele>
        <time>2014-04-20T07:31:23.000Z</time>
      </trkpt>
      <trkpt lat="43.69195" lon="7.07294">
        <ele>144.39999389648</ele>
        <time>2014-04-20T07:31:30.000Z</time>
      </trkpt>
      <trkpt lat="43.69198" lon="7.07294">
        <ele>144.80000305176</ele>
        <time>2014-04-20T07:31:32.000Z</time>
      </trkpt>
      <trkpt lat="43.69207" lon="7.07294">
        <ele>146.80000305176</ele>
        <time>2014-04-20T07:31:40.000Z</time>
      </trkpt>
      <trkpt lat="43.69217" lon="7.07294">
        <ele>149.19999694824</ele>
        <time>2014-04-20T07:31:48.000Z</time>
      </trkpt>
      <trkpt lat="43.69221" lon="7.07294">
        <ele>150.60000610352</ele>
        <time>2014-04-20T07:31:51.000Z</time>
      </trkpt>
      <trkpt lat="43.69228" lon="7.07292">
        <ele>152.60000610352</ele>
        <time>2014-04-20T07:31:57.000Z</time>
      </trkpt>
      <trkpt lat="43.69238" lon="7.07294">
        <ele>155</ele>
        <time>2014-04-20T07:32:05.000Z</time>
      </trkpt>
      <trkpt lat="43.69245" lon="7.07297">
        <ele>155.80000305176</ele>
        <time>2014-04-20T07:32:11.000Z</time>
      </trkpt>
      <trkpt lat="43.69252" lon="7.073">
        <ele>158.19999694824</ele>
        <time>2014-04-20T07:32:17.000Z</time>
      </trkpt>
      <trkpt lat="43.6926" lon="7.07305">
        <ele>160.19999694824</ele>
        <time>2014-04-20T07:32:24.000Z</time>
      </trkpt>
      <trkpt lat="43.69263" lon="7.07306">
        <ele>161.19999694824</ele>
        <time>2014-04-20T07:32:27.000Z</time>
      </trkpt>
      <trkpt lat="43.6927" lon="7.07312">
        <ele>164</ele>
        <time>2014-04-20T07:32:34.000Z</time>
      </trkpt>
      <trkpt lat="43.69277" lon="7.07317">
        <ele>166.39999389648</ele>
        <time>2014-04-20T07:32:41.000Z</time>
      </trkpt>
      <trkpt lat="43.69283" lon="7.0732">
        <ele>168.39999389648</ele>
        <time>2014-04-20T07:32:47.000Z</time>
      </trkpt>
      <trkpt lat="43.69285" lon="7.07321">
        <ele>168.80000305176</ele>
        <time>2014-04-20T07:32:49.000Z</time>
      </trkpt>
      <trkpt lat="43.69287" lon="7.07323">
        <ele>169.80000305176</ele>
        <time>2014-04-20T07:32:52.000Z</time>
      </trkpt>
      <trkpt lat="43.69295" lon="7.07327">
        <ele>171.80000305176</ele>
        <time>2014-04-20T07:32:59.000Z</time>
      </trkpt>
      <trkpt lat="43.69303" lon="7.0733">
        <ele>173.60000610352</ele>
        <time>2014-04-20T07:33:06.000Z</time>
      </trkpt>
      <trkpt lat="43.69315" lon="7.07334">
        <ele>177</ele>
        <time>2014-04-20T07:33:15.000Z</time>
      </trkpt>
      <trkpt lat="43.69325" lon="7.07337">
        <ele>179.39999389648</ele>
        <time>2014-04-20T07:33:23.000Z</time>
      </trkpt>
      <trkpt lat="43.69326" lon="7.07337">
        <ele>180</ele>
        <time>2014-04-20T07:33:24.000Z</time>
      </trkpt>
      <trkpt lat="43.69336" lon="7.07338">
        <ele>182.80000305176</ele>
        <time>2014-04-20T07:33:31.000Z</time>
      </trkpt>
      <trkpt lat="43.69348" lon="7.07338">
        <ele>184.80000305176</ele>
        <time>2014-04-20T07:33:40.000Z</time>
      </trkpt>
      <trkpt lat="43.69357" lon="7.07335">
        <ele>186.60000610352</ele>
        <time>2014-04-20T07:33:46.000Z</time>
      </trkpt>
      <trkpt lat="43.69363" lon="7.07335">
        <ele>186.60000610352</ele>
        <time>2014-04-20T07:33:50.000Z</time>
      </trkpt>
      <trkpt lat="43.69372" lon="7.0734">
        <ele>187.60000610352</ele>
        <time>2014-04-20T07:33:57.000Z</time>
      </trkpt>
      <trkpt lat="43.69376" lon="7.07343">
        <ele>187.60000610352</ele>
        <time>2014-04-20T07:34:00.000Z</time>
      </trkpt>
      <trkpt lat="43.69384" lon="7.07342">
        <ele>188.60000610352</ele>
        <time>2014-04-20T07:34:06.000Z</time>
      </trkpt>
      <trkpt lat="43.69393" lon="7.07331">
        <ele>190</ele>
        <time>2014-04-20T07:34:14.000Z</time>
      </trkpt>
      <trkpt lat="43.69395" lon="7.07322">
        <ele>191.39999389648</ele>
        <time>2014-04-20T07:34:19.000Z</time>
      </trkpt>
      <trkpt lat="43.69392" lon="7.07301">
        <ele>193.39999389648</ele>
        <time>2014-04-20T07:34:29.000Z</time>
      </trkpt>
      <trkpt lat="43.6939" lon="7.07289">
        <ele>194.39999389648</ele>
        <time>2014-04-20T07:34:35.000Z</time>
      </trkpt>
      <trkpt lat="43.69385" lon="7.07278">
        <ele>195.19999694824</ele>
        <time>2014-04-20T07:34:42.000Z</time>
      </trkpt>
      <trkpt lat="43.69378" lon="7.07267">
        <ele>196.19999694824</ele>
        <time>2014-04-20T07:34:50.000Z</time>
      </trkpt>
      <trkpt lat="43.69367" lon="7.0726">
        <ele>197.19999694824</ele>
        <time>2014-04-20T07:34:58.000Z</time>
      </trkpt>
      <trkpt lat="43.69359" lon="7.07257">
        <ele>197.60000610352</ele>
        <time>2014-04-20T07:35:04.000Z</time>
      </trkpt>
      <trkpt lat="43.69351" lon="7.07251">
        <ele>198.60000610352</ele>
        <time>2014-04-20T07:35:11.000Z</time>
      </trkpt>
      <trkpt lat="43.69343" lon="7.07244">
        <ele>199.60000610352</ele>
        <time>2014-04-20T07:35:18.000Z</time>
      </trkpt>
      <trkpt lat="43.69334" lon="7.07238">
        <ele>200.60000610352</ele>
        <time>2014-04-20T07:35:25.000Z</time>
      </trkpt>
      <trkpt lat="43.69326" lon="7.07233">
        <ele>201.60000610352</ele>
        <time>2014-04-20T07:35:32.000Z</time>
      </trkpt>
      <trkpt lat="43.69318" lon="7.07226">
        <ele>202</ele>
        <time>2014-04-20T07:35:39.000Z</time>
      </trkpt>
      <trkpt lat="43.69309" lon="7.07221">
        <ele>202.39999389648</ele>
        <time>2014-04-20T07:35:45.000Z</time>
      </trkpt>
      <trkpt lat="43.693" lon="7.0721">
        <ele>203</ele>
        <time>2014-04-20T07:35:53.000Z</time>
      </trkpt>
      <trkpt lat="43.69294" lon="7.07201">
        <ele>204</ele>
        <time>2014-04-20T07:35:59.000Z</time>
      </trkpt>
      <trkpt lat="43.69288" lon="7.07192">
        <ele>204.80000305176</ele>
        <time>2014-04-20T07:36:06.000Z</time>
      </trkpt>
      <trkpt lat="43.69284" lon="7.07179">
        <ele>205.80000305176</ele>
        <time>2014-04-20T07:36:14.000Z</time>
      </trkpt>
      <trkpt lat="43.69283" lon="7.07171">
        <ele>206.39999389648</ele>
        <time>2014-04-20T07:36:19.000Z</time>
      </trkpt>
      <trkpt lat="43.69281" lon="7.07163">
        <ele>206.80000305176</ele>
        <time>2014-04-20T07:36:24.000Z</time>
      </trkpt>
      <trkpt lat="43.69281" lon="7.07148">
        <ele>207.39999389648</ele>
        <time>2014-04-20T07:36:33.000Z</time>
      </trkpt>
      <trkpt lat="43.6928" lon="7.07137">
        <ele>207.80000305176</ele>
        <time>2014-04-20T07:36:39.000Z</time>
      </trkpt>
      <trkpt lat="43.69281" lon="7.07125">
        <ele>208.19999694824</ele>
        <time>2014-04-20T07:36:45.000Z</time>
      </trkpt>
      <trkpt lat="43.69279" lon="7.07106">
        <ele>210.60000610352</ele>
        <time>2014-04-20T07:36:53.000Z</time>
      </trkpt>
      <trkpt lat="43.6928" lon="7.07089">
        <ele>211.60000610352</ele>
        <time>2014-04-20T07:37:00.000Z</time>
      </trkpt>
      <trkpt lat="43.69282" lon="7.07073">
        <ele>212.60000610352</ele>
        <time>2014-04-20T07:37:08.000Z</time>
      </trkpt>
      <trkpt lat="43.69284" lon="7.07058">
        <ele>212.60000610352</ele>
        <time>2014-04-20T07:37:15.000Z</time>
      </trkpt>
      <trkpt lat="43.69286" lon="7.07055">
        <ele>212.60000610352</ele>
        <time>2014-04-20T07:37:17.000Z</time>
      </trkpt>
      <trkpt lat="43.6929" lon="7.07043">
        <ele>213.60000610352</ele>
        <time>2014-04-20T07:37:23.000Z</time>
      </trkpt>
      <trkpt lat="43.69296" lon="7.07028">
        <ele>214.60000610352</ele>
        <time>2014-04-20T07:37:31.000Z</time>
      </trkpt>
      <trkpt lat="43.693" lon="7.07013">
        <ele>215</ele>
        <time>2014-04-20T07:37:38.000Z</time>
      </trkpt>
      <trkpt lat="43.69304" lon="7.06995">
        <ele>216.39999389648</ele>
        <time>2014-04-20T07:37:46.000Z</time>
      </trkpt>
      <trkpt lat="43.69303" lon="7.06976">
        <ele>219.39999389648</ele>
        <time>2014-04-20T07:37:54.000Z</time>
      </trkpt>
      <trkpt lat="43.69302" lon="7.06969">
        <ele>220.19999694824</ele>
        <time>2014-04-20T07:37:57.000Z</time>
      </trkpt>
      <trkpt lat="43.69297" lon="7.06958">
        <ele>221.80000305176</ele>
        <time>2014-04-20T07:38:02.000Z</time>
      </trkpt>
      <trkpt lat="43.69289" lon="7.06943">
        <ele>222.60000610352</ele>
        <time>2014-04-20T07:38:10.000Z</time>
      </trkpt>
      <trkpt lat="43.69286" lon="7.06937">
        <ele>223.60000610352</ele>
        <time>2014-04-20T07:38:13.000Z</time>
      </trkpt>
      <trkpt lat="43.69277" lon="7.06926">
        <ele>225.60000610352</ele>
        <time>2014-04-20T07:38:20.000Z</time>
      </trkpt>
      <trkpt lat="43.69276" lon="7.06924">
        <ele>225.60000610352</ele>
        <time>2014-04-20T07:38:21.000Z</time>
      </trkpt>
      <trkpt lat="43.69278" lon="7.06916">
        <ele>226.60000610352</ele>
        <time>2014-04-20T07:38:25.000Z</time>
      </trkpt>
      <trkpt lat="43.69286" lon="7.06916">
        <ele>227</ele>
        <time>2014-04-20T07:38:31.000Z</time>
      </trkpt>
      <trkpt lat="43.69294" lon="7.06924">
        <ele>227.39999389648</ele>
        <time>2014-04-20T07:38:37.000Z</time>
      </trkpt>
      <trkpt lat="43.69304" lon="7.0693">
        <ele>229</ele>
        <time>2014-04-20T07:38:43.000Z</time>
      </trkpt>
      <trkpt lat="43.69313" lon="7.06933">
        <ele>229.80000305176</ele>
        <time>2014-04-20T07:38:48.000Z</time>
      </trkpt>
      <trkpt lat="43.69321" lon="7.06939">
        <ele>230.80000305176</ele>
        <time>2014-04-20T07:38:53.000Z</time>
      </trkpt>
      <trkpt lat="43.69325" lon="7.06942">
        <ele>231.39999389648</ele>
        <time>2014-04-20T07:38:55.000Z</time>
      </trkpt>
      <trkpt lat="43.69328" lon="7.06944">
        <ele>231.80000305176</ele>
        <time>2014-04-20T07:38:57.000Z</time>
      </trkpt>
      <trkpt lat="43.6933" lon="7.06946">
        <ele>232.19999694824</ele>
        <time>2014-04-20T07:38:59.000Z</time>
      </trkpt>
      <trkpt lat="43.69335" lon="7.06954">
        <ele>232.80000305176</ele>
        <time>2014-04-20T07:39:03.000Z</time>
      </trkpt>
      <trkpt lat="43.69343" lon="7.06971">
        <ele>234.60000610352</ele>
        <time>2014-04-20T07:39:10.000Z</time>
      </trkpt>
      <trkpt lat="43.69346" lon="7.06975">
        <ele>234.60000610352</ele>
        <time>2014-04-20T07:39:12.000Z</time>
      </trkpt>
      <trkpt lat="43.69354" lon="7.06971">
        <ele>237.19999694824</ele>
        <time>2014-04-20T07:39:17.000Z</time>
      </trkpt>
      <trkpt lat="43.69354" lon="7.06968">
        <ele>237.60000610352</ele>
        <time>2014-04-20T07:39:18.000Z</time>
      </trkpt>
      <trkpt lat="43.69354" lon="7.0694">
        <ele>241</ele>
        <time>2014-04-20T07:39:27.000Z</time>
      </trkpt>
      <trkpt lat="43.6935" lon="7.06925">
        <ele>242</ele>
        <time>2014-04-20T07:39:33.000Z</time>
      </trkpt>
      <trkpt lat="43.69347" lon="7.06921">
        <ele>242.39999389648</ele>
        <time>2014-04-20T07:39:35.000Z</time>
      </trkpt>
      <trkpt lat="43.69348" lon="7.06907">
        <ele>243.39999389648</ele>
        <time>2014-04-20T07:39:41.000Z</time>
      </trkpt>
      <trkpt lat="43.69357" lon="7.06908">
        <ele>243.80000305176</ele>
        <time>2014-04-20T07:39:45.000Z</time>
      </trkpt>
      <trkpt lat="43.69366" lon="7.06918">
        <ele>243.80000305176</ele>
        <time>2014-04-20T07:39:51.000Z</time>
      </trkpt>
      <trkpt lat="43.69378" lon="7.0692">
        <ele>244.80000305176</ele>
        <time>2014-04-20T07:39:57.000Z</time>
      </trkpt>
      <trkpt lat="43.6939" lon="7.06911">
        <ele>246.19999694824</ele>
        <time>2014-04-20T07:40:04.000Z</time>
      </trkpt>
      <trkpt lat="43.69399" lon="7.069">
        <ele>247.19999694824</ele>
        <time>2014-04-20T07:40:10.000Z</time>
      </trkpt>
      <trkpt lat="43.69413" lon="7.06893">
        <ele>248.60000610352</ele>
        <time>2014-04-20T07:40:17.000Z</time>
      </trkpt>
      <trkpt lat="43.69426" lon="7.06891">
        <ele>250</ele>
        <time>2014-04-20T07:40:24.000Z</time>
      </trkpt>
      <trkpt lat="43.69436" lon="7.06894">
        <ele>251</ele>
        <time>2014-04-20T07:40:29.000Z</time>
      </trkpt>
      <trkpt lat="43.69447" lon="7.06893">
        <ele>252</ele>
        <time>2014-04-20T07:40:35.000Z</time>
      </trkpt>
      <trkpt lat="43.69463" lon="7.0689">
        <ele>254.39999389648</ele>
        <time>2014-04-20T07:40:43.000Z</time>
      </trkpt>
      <trkpt lat="43.69474" lon="7.06896">
        <ele>254.39999389648</ele>
        <time>2014-04-20T07:40:50.000Z</time>
      </trkpt>
      <trkpt lat="43.69485" lon="7.06903">
        <ele>255.39999389648</ele>
        <time>2014-04-20T07:40:57.000Z</time>
      </trkpt>
      <trkpt lat="43.69492" lon="7.06912">
        <ele>255.80000305176</ele>
        <time>2014-04-20T07:41:03.000Z</time>
      </trkpt>
      <trkpt lat="43.69502" lon="7.06921">
        <ele>256.39999389648</ele>
        <time>2014-04-20T07:41:09.000Z</time>
      </trkpt>
      <trkpt lat="43.69511" lon="7.06927">
        <ele>256.39999389648</ele>
        <time>2014-04-20T07:41:14.000Z</time>
      </trkpt>
      <trkpt lat="43.69523" lon="7.06933">
        <ele>256.39999389648</ele>
        <time>2014-04-20T07:41:20.000Z</time>
      </trkpt>
      <trkpt lat="43.69535" lon="7.06938">
        <ele>257.20001220703</ele>
        <time>2014-04-20T07:41:27.000Z</time>
      </trkpt>
      <trkpt lat="43.69544" lon="7.06942">
        <ele>257.79998779297</ele>
        <time>2014-04-20T07:41:32.000Z</time>
      </trkpt>
      <trkpt lat="43.69553" lon="7.06948">
        <ele>259.60000610352</ele>
        <time>2014-04-20T07:41:38.000Z</time>
      </trkpt>
      <trkpt lat="43.69556" lon="7.06953">
        <ele>261.20001220703</ele>
        <time>2014-04-20T07:41:41.000Z</time>
      </trkpt>
      <trkpt lat="43.6957" lon="7.06963">
        <ele>263</ele>
        <time>2014-04-20T07:41:50.000Z</time>
      </trkpt>
      <trkpt lat="43.69583" lon="7.06971">
        <ele>263</ele>
        <time>2014-04-20T07:41:57.000Z</time>
      </trkpt>
      <trkpt lat="43.69594" lon="7.06976">
        <ele>264.39999389648</ele>
        <time>2014-04-20T07:42:04.000Z</time>
      </trkpt>
      <trkpt lat="43.69602" lon="7.0698">
        <ele>265.39999389648</ele>
        <time>2014-04-20T07:42:09.000Z</time>
      </trkpt>
      <trkpt lat="43.69612" lon="7.06984">
        <ele>268.39999389648</ele>
        <time>2014-04-20T07:42:15.000Z</time>
      </trkpt>
      <trkpt lat="43.69616" lon="7.0699">
        <ele>268.39999389648</ele>
        <time>2014-04-20T07:42:19.000Z</time>
      </trkpt>
      <trkpt lat="43.6962" lon="7.06995">
        <ele>267.79998779297</ele>
        <time>2014-04-20T07:42:22.000Z</time>
      </trkpt>
      <trkpt lat="43.69624" lon="7.07003">
        <ele>269.79998779297</ele>
        <time>2014-04-20T07:42:28.000Z</time>
      </trkpt>
      <trkpt lat="43.69629" lon="7.07009">
        <ele>270.20001220703</ele>
        <time>2014-04-20T07:42:46.000Z</time>
      </trkpt>
      <trkpt lat="43.69627" lon="7.07016">
        <ele>270.20001220703</ele>
        <time>2014-04-20T07:42:51.000Z</time>
      </trkpt>
      <trkpt lat="43.6963" lon="7.07023">
        <ele>270.79998779297</ele>
        <time>2014-04-20T07:43:01.000Z</time>
      </trkpt>
      <trkpt lat="43.69631" lon="7.07027">
        <ele>270.79998779297</ele>
        <time>2014-04-20T07:43:06.000Z</time>
      </trkpt>
      <trkpt lat="43.69633" lon="7.07031">
        <ele>270.79998779297</ele>
        <time>2014-04-20T07:43:11.000Z</time>
      </trkpt>
      <trkpt lat="43.69634" lon="7.07035">
        <ele>271.79998779297</ele>
        <time>2014-04-20T07:43:21.000Z</time>
      </trkpt>
      <trkpt lat="43.69634" lon="7.07034">
        <ele>273.20001220703</ele>
        <time>2014-04-20T07:43:44.000Z</time>
      </trkpt>
      <trkpt lat="43.69634" lon="7.07033">
        <ele>272.60000610352</ele>
        <time>2014-04-20T07:43:49.000Z</time>
      </trkpt>
      <trkpt lat="43.69634" lon="7.07034">
        <ele>272.60000610352</ele>
        <time>2014-04-20T07:43:54.000Z</time>
      </trkpt>
      <trkpt lat="43.69636" lon="7.07039">
        <ele>272.60000610352</ele>
        <time>2014-04-20T07:44:00.000Z</time>
      </trkpt>
      <trkpt lat="43.69639" lon="7.07043">
        <ele>272.60000610352</ele>
        <time>2014-04-20T07:44:07.000Z</time>
      </trkpt>
      <trkpt lat="43.69641" lon="7.07045">
        <ele>273.20001220703</ele>
        <time>2014-04-20T07:44:11.000Z</time>
      </trkpt>
      <trkpt lat="43.69646" lon="7.07047">
        <ele>273.60000610352</ele>
        <time>2014-04-20T07:44:18.000Z</time>
      </trkpt>
      <trkpt lat="43.69649" lon="7.07048">
        <ele>273.60000610352</ele>
        <time>2014-04-20T07:44:24.000Z</time>
      </trkpt>
      <trkpt lat="43.69652" lon="7.07049">
        <ele>274.20001220703</ele>
        <time>2014-04-20T07:44:29.000Z</time>
      </trkpt>
      <trkpt lat="43.69653" lon="7.0705">
        <ele>273.60000610352</ele>
        <time>2014-04-20T07:44:34.000Z</time>
      </trkpt>
      <trkpt lat="43.69656" lon="7.07053">
        <ele>274.20001220703</ele>
        <time>2014-04-20T07:44:41.000Z</time>
      </trkpt>
      <trkpt lat="43.6966" lon="7.07056">
        <ele>275</ele>
        <time>2014-04-20T07:44:47.000Z</time>
      </trkpt>
      <trkpt lat="43.69662" lon="7.07057">
        <ele>275</ele>
        <time>2014-04-20T07:44:51.000Z</time>
      </trkpt>
      <trkpt lat="43.69665" lon="7.07061">
        <ele>275.60000610352</ele>
        <time>2014-04-20T07:44:56.000Z</time>
      </trkpt>
      <trkpt lat="43.69667" lon="7.07064">
        <ele>276.60000610352</ele>
        <time>2014-04-20T07:45:02.000Z</time>
      </trkpt>
      <trkpt lat="43.6967" lon="7.07067">
        <ele>277.39999389648</ele>
        <time>2014-04-20T07:45:10.000Z</time>
      </trkpt>
      <trkpt lat="43.69676" lon="7.07077">
        <ele>277.39999389648</ele>
        <time>2014-04-20T07:45:17.000Z</time>
      </trkpt>
      <trkpt lat="43.69684" lon="7.07083">
        <ele>277.39999389648</ele>
        <time>2014-04-20T07:45:23.000Z</time>
      </trkpt>
      <trkpt lat="43.69692" lon="7.0709">
        <ele>277.39999389648</ele>
        <time>2014-04-20T07:45:29.000Z</time>
      </trkpt>
      <trkpt lat="43.697" lon="7.07094">
        <ele>278.39999389648</ele>
        <time>2014-04-20T07:45:34.000Z</time>
      </trkpt>
      <trkpt lat="43.69704" lon="7.07098">
        <ele>279</ele>
        <time>2014-04-20T07:45:37.000Z</time>
      </trkpt>
      <trkpt lat="43.6971" lon="7.07108">
        <ele>279</ele>
        <time>2014-04-20T07:45:44.000Z</time>
      </trkpt>
      <trkpt lat="43.69712" lon="7.07113">
        <ele>279</ele>
        <time>2014-04-20T07:45:49.000Z</time>
      </trkpt>
      <trkpt lat="43.69718" lon="7.07116">
        <ele>280.39999389648</ele>
        <time>2014-04-20T07:45:59.000Z</time>
      </trkpt>
      <trkpt lat="43.6973" lon="7.07119">
        <ele>280.39999389648</ele>
        <time>2014-04-20T07:46:07.000Z</time>
      </trkpt>
      <trkpt lat="43.69731" lon="7.07119">
        <ele>279.79998779297</ele>
        <time>2014-04-20T07:46:08.000Z</time>
      </trkpt>
      <trkpt lat="43.69742" lon="7.07122">
        <ele>279.79998779297</ele>
        <time>2014-04-20T07:46:15.000Z</time>
      </trkpt>
      <trkpt lat="43.69746" lon="7.0712">
        <ele>279.79998779297</ele>
        <time>2014-04-20T07:46:21.000Z</time>
      </trkpt>
      <trkpt lat="43.69748" lon="7.07117">
        <ele>280.79998779297</ele>
        <time>2014-04-20T07:46:26.000Z</time>
      </trkpt>
      <trkpt lat="43.6975" lon="7.07115">
        <ele>281.39999389648</ele>
        <time>2014-04-20T07:46:29.000Z</time>
      </trkpt>
      <trkpt lat="43.69751" lon="7.07109">
        <ele>281.79998779297</ele>
        <time>2014-04-20T07:46:33.000Z</time>
      </trkpt>
      <trkpt lat="43.69754" lon="7.07105">
        <ele>281.79998779297</ele>
        <time>2014-04-20T07:46:39.000Z</time>
      </trkpt>
      <trkpt lat="43.69754" lon="7.07105">
        <ele>281.79998779297</ele>
        <time>2014-04-20T07:46:40.000Z</time>
      </trkpt>
      <trkpt lat="43.69758" lon="7.07104">
        <ele>281.79998779297</ele>
        <time>2014-04-20T07:46:46.000Z</time>
      </trkpt>
      <trkpt lat="43.69759" lon="7.07105">
        <ele>281.39999389648</ele>
        <time>2014-04-20T07:46:50.000Z</time>
      </trkpt>
      <trkpt lat="43.69765" lon="7.0711">
        <ele>281.79998779297</ele>
        <time>2014-04-20T07:46:54.000Z</time>
      </trkpt>
      <trkpt lat="43.69778" lon="7.07121">
        <ele>281.39999389648</ele>
        <time>2014-04-20T07:47:01.000Z</time>
      </trkpt>
      <trkpt lat="43.69788" lon="7.07133">
        <ele>281.39999389648</ele>
        <time>2014-04-20T07:47:08.000Z</time>
      </trkpt>
      <trkpt lat="43.69795" lon="7.07142">
        <ele>280.79998779297</ele>
        <time>2014-04-20T07:47:13.000Z</time>
      </trkpt>
      <trkpt lat="43.69803" lon="7.07153">
        <ele>280.39999389648</ele>
        <time>2014-04-20T07:47:19.000Z</time>
      </trkpt>
      <trkpt lat="43.69811" lon="7.07163">
        <ele>279.79998779297</ele>
        <time>2014-04-20T07:47:25.000Z</time>
      </trkpt>
      <trkpt lat="43.69821" lon="7.07174">
        <ele>279</ele>
        <time>2014-04-20T07:47:32.000Z</time>
      </trkpt>
      <trkpt lat="43.69831" lon="7.0719">
        <ele>279</ele>
        <time>2014-04-20T07:47:40.000Z</time>
      </trkpt>
      <trkpt lat="43.69839" lon="7.07201">
        <ele>278.39999389648</ele>
        <time>2014-04-20T07:47:47.000Z</time>
      </trkpt>
      <trkpt lat="43.69849" lon="7.07207">
        <ele>277.39999389648</ele>
        <time>2014-04-20T07:47:53.000Z</time>
      </trkpt>
      <trkpt lat="43.69858" lon="7.07209">
        <ele>277.39999389648</ele>
        <time>2014-04-20T07:47:57.000Z</time>
      </trkpt>
      <trkpt lat="43.69866" lon="7.07212">
        <ele>277.39999389648</ele>
        <time>2014-04-20T07:48:01.000Z</time>
      </trkpt>
      <trkpt lat="43.69881" lon="7.07219">
        <ele>278.39999389648</ele>
        <time>2014-04-20T07:48:07.000Z</time>
      </trkpt>
      <trkpt lat="43.69894" lon="7.07223">
        <ele>279</ele>
        <time>2014-04-20T07:48:13.000Z</time>
      </trkpt>
      <trkpt lat="43.69902" lon="7.07227">
        <ele>280.39999389648</ele>
        <time>2014-04-20T07:48:17.000Z</time>
      </trkpt>
      <trkpt lat="43.69915" lon="7.07236">
        <ele>281.39999389648</ele>
        <time>2014-04-20T07:48:23.000Z</time>
      </trkpt>
      <trkpt lat="43.69925" lon="7.07243">
        <ele>282.79998779297</ele>
        <time>2014-04-20T07:48:28.000Z</time>
      </trkpt>
      <trkpt lat="43.69932" lon="7.07248">
        <ele>283.20001220703</ele>
        <time>2014-04-20T07:48:32.000Z</time>
      </trkpt>
      <trkpt lat="43.69937" lon="7.07253">
        <ele>283.79998779297</ele>
        <time>2014-04-20T07:48:36.000Z</time>
      </trkpt>
      <trkpt lat="43.69944" lon="7.07258">
        <ele>283.79998779297</ele>
        <time>2014-04-20T07:48:40.000Z</time>
      </trkpt>
      <trkpt lat="43.69952" lon="7.07261">
        <ele>284.20001220703</ele>
        <time>2014-04-20T07:48:44.000Z</time>
      </trkpt>
      <trkpt lat="43.69964" lon="7.07267">
        <ele>284.20001220703</ele>
        <time>2014-04-20T07:48:49.000Z</time>
      </trkpt>
      <trkpt lat="43.69976" lon="7.07273">
        <ele>282.79998779297</ele>
        <time>2014-04-20T07:48:53.000Z</time>
      </trkpt>
      <trkpt lat="43.69979" lon="7.07276">
        <ele>282.79998779297</ele>
        <time>2014-04-20T07:48:54.000Z</time>
      </trkpt>
      <trkpt lat="43.69999" lon="7.07285">
        <ele>282.20001220703</ele>
        <time>2014-04-20T07:48:59.000Z</time>
      </trkpt>
      <trkpt lat="43.70005" lon="7.07286">
        <ele>282.20001220703</ele>
        <time>2014-04-20T07:49:02.000Z</time>
      </trkpt>
      <trkpt lat="43.70018" lon="7.07289">
        <ele>282.20001220703</ele>
        <time>2014-04-20T07:49:08.000Z</time>
      </trkpt>
      <trkpt lat="43.70021" lon="7.0729">
        <ele>283.20001220703</ele>
        <time>2014-04-20T07:49:10.000Z</time>
      </trkpt>
      <trkpt lat="43.70035" lon="7.07295">
        <ele>285.60000610352</ele>
        <time>2014-04-20T07:49:17.000Z</time>
      </trkpt>
      <trkpt lat="43.70041" lon="7.07301">
        <ele>285.60000610352</ele>
        <time>2014-04-20T07:49:20.000Z</time>
      </trkpt>
      <trkpt lat="43.70045" lon="7.07304">
        <ele>286.60000610352</ele>
        <time>2014-04-20T07:49:22.000Z</time>
      </trkpt>
      <trkpt lat="43.7005" lon="7.07307">
        <ele>289.39999389648</ele>
        <time>2014-04-20T07:49:29.000Z</time>
      </trkpt>
      <trkpt lat="43.70054" lon="7.07309">
        <ele>290.39999389648</ele>
        <time>2014-04-20T07:49:35.000Z</time>
      </trkpt>
      <trkpt lat="43.7006" lon="7.07308">
        <ele>289.39999389648</ele>
        <time>2014-04-20T07:49:43.000Z</time>
      </trkpt>
      <trkpt lat="43.70066" lon="7.07309">
        <ele>288</ele>
        <time>2014-04-20T07:49:50.000Z</time>
      </trkpt>
      <trkpt lat="43.70067" lon="7.07309">
        <ele>288.60000610352</ele>
        <time>2014-04-20T07:49:52.000Z</time>
      </trkpt>
      <trkpt lat="43.70072" lon="7.0731">
        <ele>287.60000610352</ele>
        <time>2014-04-20T07:49:57.000Z</time>
      </trkpt>
      <trkpt lat="43.70079" lon="7.07308">
        <ele>288</ele>
        <time>2014-04-20T07:50:03.000Z</time>
      </trkpt>
      <trkpt lat="43.70081" lon="7.07307">
        <ele>288</ele>
        <time>2014-04-20T07:50:05.000Z</time>
      </trkpt>
      <trkpt lat="43.70085" lon="7.07308">
        <ele>288.60000610352</ele>
        <time>2014-04-20T07:50:15.000Z</time>
      </trkpt>
      <trkpt lat="43.7009" lon="7.07309">
        <ele>289</ele>
        <time>2014-04-20T07:50:21.000Z</time>
      </trkpt>
      <trkpt lat="43.70092" lon="7.0731">
        <ele>289</ele>
        <time>2014-04-20T07:50:24.000Z</time>
      </trkpt>
      <trkpt lat="43.70098" lon="7.07309">
        <ele>289</ele>
        <time>2014-04-20T07:50:30.000Z</time>
      </trkpt>
      <trkpt lat="43.70103" lon="7.07311">
        <ele>290</ele>
        <time>2014-04-20T07:50:38.000Z</time>
      </trkpt>
      <trkpt lat="43.70106" lon="7.07312">
        <ele>290.39999389648</ele>
        <time>2014-04-20T07:50:41.000Z</time>
      </trkpt>
      <trkpt lat="43.70109" lon="7.07313">
        <ele>291</ele>
        <time>2014-04-20T07:50:45.000Z</time>
      </trkpt>
      <trkpt lat="43.70111" lon="7.07314">
        <ele>291.39999389648</ele>
        <time>2014-04-20T07:50:48.000Z</time>
      </trkpt>
      <trkpt lat="43.7012" lon="7.07316">
        <ele>292.79998779297</ele>
        <time>2014-04-20T07:50:58.000Z</time>
      </trkpt>
      <trkpt lat="43.70125" lon="7.07319">
        <ele>293.39999389648</ele>
        <time>2014-04-20T07:51:04.000Z</time>
      </trkpt>
      <trkpt lat="43.70131" lon="7.07321">
        <ele>293.39999389648</ele>
        <time>2014-04-20T07:51:12.000Z</time>
      </trkpt>
      <trkpt lat="43.70132" lon="7.07321">
        <ele>293.39999389648</ele>
        <time>2014-04-20T07:51:13.000Z</time>
      </trkpt>
      <trkpt lat="43.70137" lon="7.07323">
        <ele>292.39999389648</ele>
        <time>2014-04-20T07:51:20.000Z</time>
      </trkpt>
      <trkpt lat="43.70139" lon="7.07326">
        <ele>293.79998779297</ele>
        <time>2014-04-20T07:51:30.000Z</time>
      </trkpt>
      <trkpt lat="43.70144" lon="7.07326">
        <ele>295.20001220703</ele>
        <time>2014-04-20T07:51:42.000Z</time>
      </trkpt>
      <trkpt lat="43.70147" lon="7.07326">
        <ele>297.60000610352</ele>
        <time>2014-04-20T07:51:59.000Z</time>
      </trkpt>
      <trkpt lat="43.70151" lon="7.07332">
        <ele>298.60000610352</ele>
        <time>2014-04-20T07:52:22.000Z</time>
      </trkpt>
      <trkpt lat="43.70155" lon="7.07334">
        <ele>298.60000610352</ele>
        <time>2014-04-20T07:52:29.000Z</time>
      </trkpt>
      <trkpt lat="43.70158" lon="7.07337">
        <ele>298.60000610352</ele>
        <time>2014-04-20T07:52:35.000Z</time>
      </trkpt>
      <trkpt lat="43.70162" lon="7.07341">
        <ele>298.60000610352</ele>
        <time>2014-04-20T07:52:43.000Z</time>
      </trkpt>
      <trkpt lat="43.70167" lon="7.07345">
        <ele>299.20001220703</ele>
        <time>2014-04-20T07:52:51.000Z</time>
      </trkpt>
      <trkpt lat="43.7017" lon="7.07345">
        <ele>299.60000610352</ele>
        <time>2014-04-20T07:52:57.000Z</time>
      </trkpt>
      <trkpt lat="43.70177" lon="7.07344">
        <ele>299.20001220703</ele>
        <time>2014-04-20T07:53:06.000Z</time>
      </trkpt>
      <trkpt lat="43.70182" lon="7.07345">
        <ele>299.60000610352</ele>
        <time>2014-04-20T07:53:13.000Z</time>
      </trkpt>
      <trkpt lat="43.70186" lon="7.07344">
        <ele>299.60000610352</ele>
        <time>2014-04-20T07:53:19.000Z</time>
      </trkpt>
      <trkpt lat="43.70191" lon="7.07341">
        <ele>299.60000610352</ele>
        <time>2014-04-20T07:53:27.000Z</time>
      </trkpt>
      <trkpt lat="43.70199" lon="7.07338">
        <ele>301</ele>
        <time>2014-04-20T07:53:36.000Z</time>
      </trkpt>
      <trkpt lat="43.70205" lon="7.0734">
        <ele>302</ele>
        <time>2014-04-20T07:53:44.000Z</time>
      </trkpt>
      <trkpt lat="43.70208" lon="7.07341">
        <ele>303</ele>
        <time>2014-04-20T07:53:50.000Z</time>
      </trkpt>
      <trkpt lat="43.7021" lon="7.07342">
        <ele>302.39999389648</ele>
        <time>2014-04-20T07:53:56.000Z</time>
      </trkpt>
      <trkpt lat="43.70214" lon="7.07343">
        <ele>302</ele>
        <time>2014-04-20T07:54:01.000Z</time>
      </trkpt>
      <trkpt lat="43.70218" lon="7.07343">
        <ele>304</ele>
        <time>2014-04-20T07:54:08.000Z</time>
      </trkpt>
      <trkpt lat="43.70223" lon="7.07342">
        <ele>305.39999389648</ele>
        <time>2014-04-20T07:54:14.000Z</time>
      </trkpt>
      <trkpt lat="43.70227" lon="7.07343">
        <ele>306.39999389648</ele>
        <time>2014-04-20T07:54:20.000Z</time>
      </trkpt>
      <trkpt lat="43.7023" lon="7.07342">
        <ele>306.79998779297</ele>
        <time>2014-04-20T07:54:27.000Z</time>
      </trkpt>
      <trkpt lat="43.70233" lon="7.07341">
        <ele>307.20001220703</ele>
        <time>2014-04-20T07:54:33.000Z</time>
      </trkpt>
      <trkpt lat="43.70235" lon="7.07341">
        <ele>308.79998779297</ele>
        <time>2014-04-20T07:54:45.000Z</time>
      </trkpt>
      <trkpt lat="43.70243" lon="7.07331">
        <ele>308.79998779297</ele>
        <time>2014-04-20T07:54:52.000Z</time>
      </trkpt>
      <trkpt lat="43.7025" lon="7.07322">
        <ele>308.20001220703</ele>
        <time>2014-04-20T07:54:58.000Z</time>
      </trkpt>
      <trkpt lat="43.70252" lon="7.07319">
        <ele>309.20001220703</ele>
        <time>2014-04-20T07:55:03.000Z</time>
      </trkpt>
      <trkpt lat="43.70257" lon="7.07314">
        <ele>310.60000610352</ele>
        <time>2014-04-20T07:55:15.000Z</time>
      </trkpt>
      <trkpt lat="43.70262" lon="7.07304">
        <ele>310.60000610352</ele>
        <time>2014-04-20T07:55:20.000Z</time>
      </trkpt>
      <trkpt lat="43.70271" lon="7.07291">
        <ele>311.20001220703</ele>
        <time>2014-04-20T07:55:26.000Z</time>
      </trkpt>
      <trkpt lat="43.70279" lon="7.07278">
        <ele>312.60000610352</ele>
        <time>2014-04-20T07:55:32.000Z</time>
      </trkpt>
      <trkpt lat="43.70287" lon="7.07264">
        <ele>312.60000610352</ele>
        <time>2014-04-20T07:55:39.000Z</time>
      </trkpt>
      <trkpt lat="43.70296" lon="7.0725">
        <ele>312.60000610352</ele>
        <time>2014-04-20T07:55:46.000Z</time>
      </trkpt>
      <trkpt lat="43.70297" lon="7.07248">
        <ele>313</ele>
        <time>2014-04-20T07:55:47.000Z</time>
      </trkpt>
      <trkpt lat="43.703" lon="7.07244">
        <ele>312.60000610352</ele>
        <time>2014-04-20T07:55:49.000Z</time>
      </trkpt>
      <trkpt lat="43.70307" lon="7.07237">
        <ele>312.60000610352</ele>
        <time>2014-04-20T07:55:53.000Z</time>
      </trkpt>
      <trkpt lat="43.70313" lon="7.07222">
        <ele>311.60000610352</ele>
        <time>2014-04-20T07:56:00.000Z</time>
      </trkpt>
      <trkpt lat="43.70317" lon="7.07213">
        <ele>311.20001220703</ele>
        <time>2014-04-20T07:56:04.000Z</time>
      </trkpt>
      <trkpt lat="43.70321" lon="7.07203">
        <ele>311.20001220703</ele>
        <time>2014-04-20T07:56:09.000Z</time>
      </trkpt>
      <trkpt lat="43.7033" lon="7.07186">
        <ele>311.20001220703</ele>
        <time>2014-04-20T07:56:16.000Z</time>
      </trkpt>
      <trkpt lat="43.70339" lon="7.07169">
        <ele>310.60000610352</ele>
        <time>2014-04-20T07:56:22.000Z</time>
      </trkpt>
      <trkpt lat="43.70341" lon="7.07154">
        <ele>310.60000610352</ele>
        <time>2014-04-20T07:56:26.000Z</time>
      </trkpt>
      <trkpt lat="43.70344" lon="7.07139">
        <ele>309.20001220703</ele>
        <time>2014-04-20T07:56:31.000Z</time>
      </trkpt>
      <trkpt lat="43.70345" lon="7.0713">
        <ele>309.20001220703</ele>
        <time>2014-04-20T07:56:35.000Z</time>
      </trkpt>
      <trkpt lat="43.70346" lon="7.07119">
        <ele>310.20001220703</ele>
        <time>2014-04-20T07:56:42.000Z</time>
      </trkpt>
      <trkpt lat="43.7035" lon="7.07104">
        <ele>309.60000610352</ele>
        <time>2014-04-20T07:56:47.000Z</time>
      </trkpt>
      <trkpt lat="43.70353" lon="7.07091">
        <ele>309.60000610352</ele>
        <time>2014-04-20T07:56:52.000Z</time>
      </trkpt>
      <trkpt lat="43.70358" lon="7.07079">
        <ele>310.20001220703</ele>
        <time>2014-04-20T07:56:56.000Z</time>
      </trkpt>
      <trkpt lat="43.70364" lon="7.07065">
        <ele>310.20001220703</ele>
        <time>2014-04-20T07:57:00.000Z</time>
      </trkpt>
      <trkpt lat="43.7037" lon="7.0705">
        <ele>310.20001220703</ele>
        <time>2014-04-20T07:57:05.000Z</time>
      </trkpt>
      <trkpt lat="43.70374" lon="7.07037">
        <ele>310.20001220703</ele>
        <time>2014-04-20T07:57:11.000Z</time>
      </trkpt>
      <trkpt lat="43.70376" lon="7.0703">
        <ele>310.60000610352</ele>
        <time>2014-04-20T07:57:17.000Z</time>
      </trkpt>
      <trkpt lat="43.70379" lon="7.07019">
        <ele>311.20001220703</ele>
        <time>2014-04-20T07:57:26.000Z</time>
      </trkpt>
      <trkpt lat="43.70383" lon="7.07012">
        <ele>311.60000610352</ele>
        <time>2014-04-20T07:57:33.000Z</time>
      </trkpt>
      <trkpt lat="43.70388" lon="7.06998">
        <ele>310.60000610352</ele>
        <time>2014-04-20T07:57:39.000Z</time>
      </trkpt>
      <trkpt lat="43.70392" lon="7.06988">
        <ele>310.20001220703</ele>
        <time>2014-04-20T07:57:45.000Z</time>
      </trkpt>
      <trkpt lat="43.70402" lon="7.06978">
        <ele>310.20001220703</ele>
        <time>2014-04-20T07:57:50.000Z</time>
      </trkpt>
      <trkpt lat="43.7041" lon="7.06966">
        <ele>309.60000610352</ele>
        <time>2014-04-20T07:57:54.000Z</time>
      </trkpt>
      <trkpt lat="43.70417" lon="7.0695">
        <ele>309.20001220703</ele>
        <time>2014-04-20T07:57:59.000Z</time>
      </trkpt>
      <trkpt lat="43.7042" lon="7.06945">
        <ele>308.79998779297</ele>
        <time>2014-04-20T07:58:02.000Z</time>
      </trkpt>
      <trkpt lat="43.70423" lon="7.06938">
        <ele>308.20001220703</ele>
        <time>2014-04-20T07:58:07.000Z</time>
      </trkpt>
      <trkpt lat="43.70426" lon="7.06935">
        <ele>308.20001220703</ele>
        <time>2014-04-20T07:58:14.000Z</time>
      </trkpt>
      <trkpt lat="43.70427" lon="7.06933">
        <ele>307.79998779297</ele>
        <time>2014-04-20T07:58:19.000Z</time>
      </trkpt>
      <trkpt lat="43.70428" lon="7.06932">
        <ele>307.79998779297</ele>
        <time>2014-04-20T07:58:20.000Z</time>
      </trkpt>
      <trkpt lat="43.70431" lon="7.06918">
        <ele>306.39999389648</ele>
        <time>2014-04-20T07:58:26.000Z</time>
      </trkpt>
      <trkpt lat="43.70442" lon="7.06902">
        <ele>304.79998779297</ele>
        <time>2014-04-20T07:58:31.000Z</time>
      </trkpt>
      <trkpt lat="43.70444" lon="7.06899">
        <ele>304.79998779297</ele>
        <time>2014-04-20T07:58:32.000Z</time>
      </trkpt>
      <trkpt lat="43.70452" lon="7.06885">
        <ele>304.39999389648</ele>
        <time>2014-04-20T07:58:38.000Z</time>
      </trkpt>
      <trkpt lat="43.70457" lon="7.06876">
        <ele>304</ele>
        <time>2014-04-20T07:58:40.000Z</time>
      </trkpt>
      <trkpt lat="43.70466" lon="7.06858">
        <ele>303</ele>
        <time>2014-04-20T07:58:44.000Z</time>
      </trkpt>
      <trkpt lat="43.70479" lon="7.06849">
        <ele>301.60000610352</ele>
        <time>2014-04-20T07:58:50.000Z</time>
      </trkpt>
      <trkpt lat="43.70499" lon="7.06841">
        <ele>298.20001220703</ele>
        <time>2014-04-20T07:58:54.000Z</time>
      </trkpt>
      <trkpt lat="43.70509" lon="7.06831">
        <ele>296.79998779297</ele>
        <time>2014-04-20T07:58:57.000Z</time>
      </trkpt>
      <trkpt lat="43.70511" lon="7.06827">
        <ele>296.20001220703</ele>
        <time>2014-04-20T07:58:58.000Z</time>
      </trkpt>
      <trkpt lat="43.70508" lon="7.06813">
        <ele>294.79998779297</ele>
        <time>2014-04-20T07:59:03.000Z</time>
      </trkpt>
      <trkpt lat="43.70503" lon="7.06804">
        <ele>293.79998779297</ele>
        <time>2014-04-20T07:59:09.000Z</time>
      </trkpt>
      <trkpt lat="43.70507" lon="7.06799">
        <ele>292.79998779297</ele>
        <time>2014-04-20T07:59:13.000Z</time>
      </trkpt>
      <trkpt lat="43.70514" lon="7.06796">
        <ele>291.39999389648</ele>
        <time>2014-04-20T07:59:16.000Z</time>
      </trkpt>
      <trkpt lat="43.7052" lon="7.06797">
        <ele>291</ele>
        <time>2014-04-20T07:59:19.000Z</time>
      </trkpt>
      <trkpt lat="43.7052" lon="7.06802">
        <ele>290.39999389648</ele>
        <time>2014-04-20T07:59:21.000Z</time>
      </trkpt>
      <trkpt lat="43.70521" lon="7.06803">
        <ele>290.39999389648</ele>
        <time>2014-04-20T07:59:23.000Z</time>
      </trkpt>
      <trkpt lat="43.70519" lon="7.06795">
        <ele>289.39999389648</ele>
        <time>2014-04-20T07:59:27.000Z</time>
      </trkpt>
      <trkpt lat="43.70511" lon="7.06778">
        <ele>290</ele>
        <time>2014-04-20T07:59:34.000Z</time>
      </trkpt>
      <trkpt lat="43.70503" lon="7.06774">
        <ele>290.39999389648</ele>
        <time>2014-04-20T07:59:38.000Z</time>
      </trkpt>
      <trkpt lat="43.70501" lon="7.06774">
        <ele>290.39999389648</ele>
        <time>2014-04-20T07:59:39.000Z</time>
      </trkpt>
      <trkpt lat="43.70499" lon="7.06782">
        <ele>291</ele>
        <time>2014-04-20T07:59:43.000Z</time>
      </trkpt>
      <trkpt lat="43.70502" lon="7.06792">
        <ele>291</ele>
        <time>2014-04-20T07:59:48.000Z</time>
      </trkpt>
      <trkpt lat="43.70511" lon="7.06791">
        <ele>290.39999389648</ele>
        <time>2014-04-20T07:59:52.000Z</time>
      </trkpt>
      <trkpt lat="43.70515" lon="7.0679">
        <ele>290</ele>
        <time>2014-04-20T07:59:53.000Z</time>
      </trkpt>
      <trkpt lat="43.70516" lon="7.06779">
        <ele>290</ele>
        <time>2014-04-20T07:59:57.000Z</time>
      </trkpt>
      <trkpt lat="43.70518" lon="7.06765">
        <ele>290.39999389648</ele>
        <time>2014-04-20T08:00:00.000Z</time>
      </trkpt>
      <trkpt lat="43.70521" lon="7.06761">
        <ele>290.39999389648</ele>
        <time>2014-04-20T08:00:01.000Z</time>
      </trkpt>
      <trkpt lat="43.70536" lon="7.06732">
        <ele>289</ele>
        <time>2014-04-20T08:00:06.000Z</time>
      </trkpt>
      <trkpt lat="43.70554" lon="7.06716">
        <ele>288.60000610352</ele>
        <time>2014-04-20T08:00:10.000Z</time>
      </trkpt>
      <trkpt lat="43.70558" lon="7.06714">
        <ele>288.60000610352</ele>
        <time>2014-04-20T08:00:11.000Z</time>
      </trkpt>
      <trkpt lat="43.70574" lon="7.067">
        <ele>287.60000610352</ele>
        <time>2014-04-20T08:00:15.000Z</time>
      </trkpt>
      <trkpt lat="43.70592" lon="7.06696">
        <ele>287.60000610352</ele>
        <time>2014-04-20T08:00:20.000Z</time>
      </trkpt>
      <trkpt lat="43.70597" lon="7.06694">
        <ele>287</ele>
        <time>2014-04-20T08:00:22.000Z</time>
      </trkpt>
      <trkpt lat="43.70604" lon="7.06688">
        <ele>286.60000610352</ele>
        <time>2014-04-20T08:00:25.000Z</time>
      </trkpt>
      <trkpt lat="43.70631" lon="7.06672">
        <ele>286.60000610352</ele>
        <time>2014-04-20T08:00:34.000Z</time>
      </trkpt>
      <trkpt lat="43.7065" lon="7.06662">
        <ele>287.60000610352</ele>
        <time>2014-04-20T08:00:41.000Z</time>
      </trkpt>
      <trkpt lat="43.70666" lon="7.0665">
        <ele>287.60000610352</ele>
        <time>2014-04-20T08:00:47.000Z</time>
      </trkpt>
      <trkpt lat="43.70678" lon="7.06647">
        <ele>288.60000610352</ele>
        <time>2014-04-20T08:00:52.000Z</time>
      </trkpt>
      <trkpt lat="43.70691" lon="7.06643">
        <ele>289.39999389648</ele>
        <time>2014-04-20T08:00:57.000Z</time>
      </trkpt>
      <trkpt lat="43.70704" lon="7.06636">
        <ele>289.39999389648</ele>
        <time>2014-04-20T08:01:02.000Z</time>
      </trkpt>
      <trkpt lat="43.70724" lon="7.06622">
        <ele>289</ele>
        <time>2014-04-20T08:01:09.000Z</time>
      </trkpt>
      <trkpt lat="43.70735" lon="7.06617">
        <ele>291.39999389648</ele>
        <time>2014-04-20T08:01:14.000Z</time>
      </trkpt>
      <trkpt lat="43.70754" lon="7.06607">
        <ele>292.79998779297</ele>
        <time>2014-04-20T08:01:22.000Z</time>
      </trkpt>
      <trkpt lat="43.70771" lon="7.06599">
        <ele>293.39999389648</ele>
        <time>2014-04-20T08:01:29.000Z</time>
      </trkpt>
      <trkpt lat="43.70786" lon="7.06586">
        <ele>294.79998779297</ele>
        <time>2014-04-20T08:01:36.000Z</time>
      </trkpt>
      <trkpt lat="43.70796" lon="7.06572">
        <ele>295.79998779297</ele>
        <time>2014-04-20T08:01:43.000Z</time>
      </trkpt>
      <trkpt lat="43.70807" lon="7.06557">
        <ele>296.20001220703</ele>
        <time>2014-04-20T08:01:50.000Z</time>
      </trkpt>
      <trkpt lat="43.70825" lon="7.06541">
        <ele>296.79998779297</ele>
        <time>2014-04-20T08:02:00.000Z</time>
      </trkpt>
      <trkpt lat="43.70838" lon="7.06533">
        <ele>297.20001220703</ele>
        <time>2014-04-20T08:02:07.000Z</time>
      </trkpt>
      <trkpt lat="43.70852" lon="7.0652">
        <ele>296.79998779297</ele>
        <time>2014-04-20T08:02:14.000Z</time>
      </trkpt>
      <trkpt lat="43.70865" lon="7.06511">
        <ele>297.60000610352</ele>
        <time>2014-04-20T08:02:21.000Z</time>
      </trkpt>
      <trkpt lat="43.70881" lon="7.06499">
        <ele>298.20001220703</ele>
        <time>2014-04-20T08:02:28.000Z</time>
      </trkpt>
      <trkpt lat="43.70898" lon="7.06493">
        <ele>299.20001220703</ele>
        <time>2014-04-20T08:02:35.000Z</time>
      </trkpt>
      <trkpt lat="43.70914" lon="7.06482">
        <ele>300</ele>
        <time>2014-04-20T08:02:42.000Z</time>
      </trkpt>
      <trkpt lat="43.70934" lon="7.06464">
        <ele>300.60000610352</ele>
        <time>2014-04-20T08:02:48.000Z</time>
      </trkpt>
      <trkpt lat="43.70956" lon="7.06443">
        <ele>301.60000610352</ele>
        <time>2014-04-20T08:02:55.000Z</time>
      </trkpt>
      <trkpt lat="43.7098" lon="7.06421">
        <ele>301.60000610352</ele>
        <time>2014-04-20T08:03:02.000Z</time>
      </trkpt>
      <trkpt lat="43.71016" lon="7.06398">
        <ele>302.39999389648</ele>
        <time>2014-04-20T08:03:12.000Z</time>
      </trkpt>
      <trkpt lat="43.71043" lon="7.06377">
        <ele>303.39999389648</ele>
        <time>2014-04-20T08:03:20.000Z</time>
      </trkpt>
      <trkpt lat="43.71063" lon="7.06366">
        <ele>304.39999389648</ele>
        <time>2014-04-20T08:03:26.000Z</time>
      </trkpt>
      <trkpt lat="43.71084" lon="7.06356">
        <ele>305.79998779297</ele>
        <time>2014-04-20T08:03:33.000Z</time>
      </trkpt>
      <trkpt lat="43.71116" lon="7.06338">
        <ele>307.20001220703</ele>
        <time>2014-04-20T08:03:43.000Z</time>
      </trkpt>
      <trkpt lat="43.71138" lon="7.06332">
        <ele>308.79998779297</ele>
        <time>2014-04-20T08:03:50.000Z</time>
      </trkpt>
      <trkpt lat="43.71153" lon="7.06321">
        <ele>309.60000610352</ele>
        <time>2014-04-20T08:03:56.000Z</time>
      </trkpt>
      <trkpt lat="43.71174" lon="7.06301">
        <ele>310.60000610352</ele>
        <time>2014-04-20T08:04:05.000Z</time>
      </trkpt>
      <trkpt lat="43.71183" lon="7.06289">
        <ele>312</ele>
        <time>2014-04-20T08:04:11.000Z</time>
      </trkpt>
      <trkpt lat="43.71185" lon="7.06269">
        <ele>313.60000610352</ele>
        <time>2014-04-20T08:04:17.000Z</time>
      </trkpt>
      <trkpt lat="43.71187" lon="7.06254">
        <ele>315</ele>
        <time>2014-04-20T08:04:22.000Z</time>
      </trkpt>
      <trkpt lat="43.71194" lon="7.06252">
        <ele>316</ele>
        <time>2014-04-20T08:04:27.000Z</time>
      </trkpt>
      <trkpt lat="43.71197" lon="7.06243">
        <ele>316.79998779297</ele>
        <time>2014-04-20T08:04:32.000Z</time>
      </trkpt>
      <trkpt lat="43.712" lon="7.06239">
        <ele>317.79998779297</ele>
        <time>2014-04-20T08:04:35.000Z</time>
      </trkpt>
      <trkpt lat="43.71204" lon="7.06234">
        <ele>317.79998779297</ele>
        <time>2014-04-20T08:04:44.000Z</time>
      </trkpt>
      <trkpt lat="43.71207" lon="7.0623">
        <ele>318.39999389648</ele>
        <time>2014-04-20T08:04:51.000Z</time>
      </trkpt>
      <trkpt lat="43.71212" lon="7.0623">
        <ele>319.20001220703</ele>
        <time>2014-04-20T08:04:58.000Z</time>
      </trkpt>
      <trkpt lat="43.71217" lon="7.0623">
        <ele>320.20001220703</ele>
        <time>2014-04-20T08:05:05.000Z</time>
      </trkpt>
      <trkpt lat="43.7122" lon="7.0623">
        <ele>321.20001220703</ele>
        <time>2014-04-20T08:05:12.000Z</time>
      </trkpt>
      <trkpt lat="43.71226" lon="7.06222">
        <ele>323.20001220703</ele>
        <time>2014-04-20T08:05:21.000Z</time>
      </trkpt>
      <trkpt lat="43.71232" lon="7.06216">
        <ele>325.60000610352</ele>
        <time>2014-04-20T08:05:32.000Z</time>
      </trkpt>
      <trkpt lat="43.71237" lon="7.06215">
        <ele>326.60000610352</ele>
        <time>2014-04-20T08:05:39.000Z</time>
      </trkpt>
      <trkpt lat="43.71242" lon="7.0621">
        <ele>328</ele>
        <time>2014-04-20T08:05:47.000Z</time>
      </trkpt>
      <trkpt lat="43.71247" lon="7.06205">
        <ele>329</ele>
        <time>2014-04-20T08:05:55.000Z</time>
      </trkpt>
      <trkpt lat="43.7125" lon="7.06203">
        <ele>328.39999389648</ele>
        <time>2014-04-20T08:06:01.000Z</time>
      </trkpt>
      <trkpt lat="43.71255" lon="7.06199">
        <ele>328.39999389648</ele>
        <time>2014-04-20T08:06:07.000Z</time>
      </trkpt>
      <trkpt lat="43.71261" lon="7.06192">
        <ele>329</ele>
        <time>2014-04-20T08:06:16.000Z</time>
      </trkpt>
      <trkpt lat="43.71265" lon="7.06186">
        <ele>329.39999389648</ele>
        <time>2014-04-20T08:06:23.000Z</time>
      </trkpt>
      <trkpt lat="43.7127" lon="7.06182">
        <ele>329.79998779297</ele>
        <time>2014-04-20T08:06:30.000Z</time>
      </trkpt>
      <trkpt lat="43.71272" lon="7.06178">
        <ele>330.39999389648</ele>
        <time>2014-04-20T08:06:36.000Z</time>
      </trkpt>
      <trkpt lat="43.71269" lon="7.06177">
        <ele>331.39999389648</ele>
        <time>2014-04-20T08:06:43.000Z</time>
      </trkpt>
      <trkpt lat="43.7127" lon="7.06173">
        <ele>332.79998779297</ele>
        <time>2014-04-20T08:06:51.000Z</time>
      </trkpt>
      <trkpt lat="43.71275" lon="7.06167">
        <ele>334.20001220703</ele>
        <time>2014-04-20T08:07:00.000Z</time>
      </trkpt>
      <trkpt lat="43.71279" lon="7.0616">
        <ele>336.60000610352</ele>
        <time>2014-04-20T08:07:09.000Z</time>
      </trkpt>
      <trkpt lat="43.71283" lon="7.06153">
        <ele>337.60000610352</ele>
        <time>2014-04-20T08:07:18.000Z</time>
      </trkpt>
      <trkpt lat="43.71286" lon="7.06148">
        <ele>338.60000610352</ele>
        <time>2014-04-20T08:07:26.000Z</time>
      </trkpt>
      <trkpt lat="43.71282" lon="7.06144">
        <ele>340</ele>
        <time>2014-04-20T08:07:35.000Z</time>
      </trkpt>
      <trkpt lat="43.71277" lon="7.06143">
        <ele>341.39999389648</ele>
        <time>2014-04-20T08:07:43.000Z</time>
      </trkpt>
      <trkpt lat="43.71273" lon="7.06141">
        <ele>341.79998779297</ele>
        <time>2014-04-20T08:07:50.000Z</time>
      </trkpt>
      <trkpt lat="43.71271" lon="7.06134">
        <ele>341.79998779297</ele>
        <time>2014-04-20T08:07:59.000Z</time>
      </trkpt>
      <trkpt lat="43.71271" lon="7.06128">
        <ele>342.79998779297</ele>
        <time>2014-04-20T08:08:05.000Z</time>
      </trkpt>
      <trkpt lat="43.71277" lon="7.06122">
        <ele>343.79998779297</ele>
        <time>2014-04-20T08:08:13.000Z</time>
      </trkpt>
      <trkpt lat="43.71281" lon="7.0612">
        <ele>343.39999389648</ele>
        <time>2014-04-20T08:08:20.000Z</time>
      </trkpt>
      <trkpt lat="43.71286" lon="7.06119">
        <ele>343.79998779297</ele>
        <time>2014-04-20T08:08:27.000Z</time>
      </trkpt>
      <trkpt lat="43.71291" lon="7.06118">
        <ele>344.79998779297</ele>
        <time>2014-04-20T08:08:34.000Z</time>
      </trkpt>
      <trkpt lat="43.71294" lon="7.06114">
        <ele>345.20001220703</ele>
        <time>2014-04-20T08:08:39.000Z</time>
      </trkpt>
      <trkpt lat="43.71295" lon="7.06113">
        <ele>345.79998779297</ele>
        <time>2014-04-20T08:08:41.000Z</time>
      </trkpt>
      <trkpt lat="43.71299" lon="7.06107">
        <ele>346.60000610352</ele>
        <time>2014-04-20T08:08:47.000Z</time>
      </trkpt>
      <trkpt lat="43.71297" lon="7.06103">
        <ele>347.20001220703</ele>
        <time>2014-04-20T08:08:53.000Z</time>
      </trkpt>
      <trkpt lat="43.71295" lon="7.06098">
        <ele>348.20001220703</ele>
        <time>2014-04-20T08:09:01.000Z</time>
      </trkpt>
      <trkpt lat="43.71295" lon="7.06097">
        <ele>350</ele>
        <time>2014-04-20T08:09:09.000Z</time>
      </trkpt>
      <trkpt lat="43.71298" lon="7.06094">
        <ele>350.60000610352</ele>
        <time>2014-04-20T08:09:14.000Z</time>
      </trkpt>
      <trkpt lat="43.713" lon="7.06091">
        <ele>351</ele>
        <time>2014-04-20T08:09:21.000Z</time>
      </trkpt>
      <trkpt lat="43.71302" lon="7.06089">
        <ele>352</ele>
        <time>2014-04-20T08:09:32.000Z</time>
      </trkpt>
      <trkpt lat="43.71309" lon="7.0609">
        <ele>353</ele>
        <time>2014-04-20T08:09:41.000Z</time>
      </trkpt>
      <trkpt lat="43.71314" lon="7.06087">
        <ele>354.39999389648</ele>
        <time>2014-04-20T08:09:48.000Z</time>
      </trkpt>
      <trkpt lat="43.71315" lon="7.06085">
        <ele>354.39999389648</ele>
        <time>2014-04-20T08:09:50.000Z</time>
      </trkpt>
      <trkpt lat="43.71321" lon="7.06077">
        <ele>354.79998779297</ele>
        <time>2014-04-20T08:09:59.000Z</time>
      </trkpt>
      <trkpt lat="43.71327" lon="7.06069">
        <ele>355.79998779297</ele>
        <time>2014-04-20T08:10:08.000Z</time>
      </trkpt>
      <trkpt lat="43.71332" lon="7.06064">
        <ele>356.79998779297</ele>
        <time>2014-04-20T08:10:15.000Z</time>
      </trkpt>
      <trkpt lat="43.71337" lon="7.06058">
        <ele>358.20001220703</ele>
        <time>2014-04-20T08:10:22.000Z</time>
      </trkpt>
      <trkpt lat="43.71345" lon="7.06053">
        <ele>360.20001220703</ele>
        <time>2014-04-20T08:10:30.000Z</time>
      </trkpt>
      <trkpt lat="43.71351" lon="7.06051">
        <ele>360.60000610352</ele>
        <time>2014-04-20T08:10:38.000Z</time>
      </trkpt>
      <trkpt lat="43.71358" lon="7.06045">
        <ele>362</ele>
        <time>2014-04-20T08:10:46.000Z</time>
      </trkpt>
      <trkpt lat="43.71362" lon="7.06041">
        <ele>363</ele>
        <time>2014-04-20T08:10:52.000Z</time>
      </trkpt>
      <trkpt lat="43.71367" lon="7.06035">
        <ele>363.60000610352</ele>
        <time>2014-04-20T08:10:59.000Z</time>
      </trkpt>
      <trkpt lat="43.71369" lon="7.06033">
        <ele>365</ele>
        <time>2014-04-20T08:11:06.000Z</time>
      </trkpt>
      <trkpt lat="43.71373" lon="7.0603">
        <ele>366</ele>
        <time>2014-04-20T08:11:09.000Z</time>
      </trkpt>
      <trkpt lat="43.71377" lon="7.06028">
        <ele>366.79998779297</ele>
        <time>2014-04-20T08:11:13.000Z</time>
      </trkpt>
      <trkpt lat="43.71381" lon="7.06024">
        <ele>367.39999389648</ele>
        <time>2014-04-20T08:11:20.000Z</time>
      </trkpt>
      <trkpt lat="43.71386" lon="7.06021">
        <ele>368.39999389648</ele>
        <time>2014-04-20T08:11:25.000Z</time>
      </trkpt>
      <trkpt lat="43.71395" lon="7.06013">
        <ele>367.39999389648</ele>
        <time>2014-04-20T08:11:31.000Z</time>
      </trkpt>
      <trkpt lat="43.71403" lon="7.06001">
        <ele>366</ele>
        <time>2014-04-20T08:11:36.000Z</time>
      </trkpt>
      <trkpt lat="43.71403" lon="7.05999">
        <ele>366.39999389648</ele>
        <time>2014-04-20T08:11:43.000Z</time>
      </trkpt>
      <trkpt lat="43.71407" lon="7.05992">
        <ele>366</ele>
        <time>2014-04-20T08:11:47.000Z</time>
      </trkpt>
      <trkpt lat="43.71412" lon="7.05981">
        <ele>366</ele>
        <time>2014-04-20T08:11:51.000Z</time>
      </trkpt>
      <trkpt lat="43.71421" lon="7.05971">
        <ele>365.39999389648</ele>
        <time>2014-04-20T08:11:56.000Z</time>
      </trkpt>
      <trkpt lat="43.71419" lon="7.05966">
        <ele>365</ele>
        <time>2014-04-20T08:11:58.000Z</time>
      </trkpt>
      <trkpt lat="43.71414" lon="7.05968">
        <ele>364.39999389648</ele>
        <time>2014-04-20T08:12:00.000Z</time>
      </trkpt>
      <trkpt lat="43.71387" lon="7.05976">
        <ele>362.60000610352</ele>
        <time>2014-04-20T08:12:05.000Z</time>
      </trkpt>
      <trkpt lat="43.71354" lon="7.05979">
        <ele>360.60000610352</ele>
        <time>2014-04-20T08:12:10.000Z</time>
      </trkpt>
      <trkpt lat="43.71328" lon="7.05982">
        <ele>359.60000610352</ele>
        <time>2014-04-20T08:12:14.000Z</time>
      </trkpt>
      <trkpt lat="43.71324" lon="7.05979">
        <ele>358.20001220703</ele>
        <time>2014-04-20T08:12:18.000Z</time>
      </trkpt>
      <trkpt lat="43.71324" lon="7.05974">
        <ele>357.20001220703</ele>
        <time>2014-04-20T08:12:22.000Z</time>
      </trkpt>
      <trkpt lat="43.71316" lon="7.05976">
        <ele>356.79998779297</ele>
        <time>2014-04-20T08:12:24.000Z</time>
      </trkpt>
      <trkpt lat="43.71284" lon="7.0598">
        <ele>354.79998779297</ele>
        <time>2014-04-20T08:12:30.000Z</time>
      </trkpt>
      <trkpt lat="43.7126" lon="7.05997">
        <ele>352</ele>
        <time>2014-04-20T08:12:34.000Z</time>
      </trkpt>
      <trkpt lat="43.71249" lon="7.06007">
        <ele>350</ele>
        <time>2014-04-20T08:12:37.000Z</time>
      </trkpt>
      <trkpt lat="43.71247" lon="7.05999">
        <ele>348.20001220703</ele>
        <time>2014-04-20T08:12:40.000Z</time>
      </trkpt>
      <trkpt lat="43.71245" lon="7.05994">
        <ele>347.20001220703</ele>
        <time>2014-04-20T08:12:42.000Z</time>
      </trkpt>
      <trkpt lat="43.7123" lon="7.05997">
        <ele>345.20001220703</ele>
        <time>2014-04-20T08:12:46.000Z</time>
      </trkpt>
      <trkpt lat="43.71208" lon="7.06004">
        <ele>342.79998779297</ele>
        <time>2014-04-20T08:12:50.000Z</time>
      </trkpt>
      <trkpt lat="43.71203" lon="7.06007">
        <ele>340.39999389648</ele>
        <time>2014-04-20T08:12:52.000Z</time>
      </trkpt>
      <trkpt lat="43.71198" lon="7.06003">
        <ele>337.60000610352</ele>
        <time>2014-04-20T08:12:56.000Z</time>
      </trkpt>
      <trkpt lat="43.71192" lon="7.06011">
        <ele>336.20001220703</ele>
        <time>2014-04-20T08:13:00.000Z</time>
      </trkpt>
      <trkpt lat="43.71187" lon="7.0601">
        <ele>335.60000610352</ele>
        <time>2014-04-20T08:13:02.000Z</time>
      </trkpt>
      <trkpt lat="43.71185" lon="7.06003">
        <ele>333.79998779297</ele>
        <time>2014-04-20T08:13:06.000Z</time>
      </trkpt>
      <trkpt lat="43.71184" lon="7.06004">
        <ele>333.20001220703</ele>
        <time>2014-04-20T08:13:08.000Z</time>
      </trkpt>
      <trkpt lat="43.71182" lon="7.06005">
        <ele>332.79998779297</ele>
        <time>2014-04-20T08:13:11.000Z</time>
      </trkpt>
      <trkpt lat="43.71171" lon="7.06008">
        <ele>331.39999389648</ele>
        <time>2014-04-20T08:13:16.000Z</time>
      </trkpt>
      <trkpt lat="43.71169" lon="7.06002">
        <ele>330.39999389648</ele>
        <time>2014-04-20T08:13:20.000Z</time>
      </trkpt>
      <trkpt lat="43.71172" lon="7.05991">
        <ele>329</ele>
        <time>2014-04-20T08:13:23.000Z</time>
      </trkpt>
      <trkpt lat="43.71171" lon="7.0598">
        <ele>328.39999389648</ele>
        <time>2014-04-20T08:13:25.000Z</time>
      </trkpt>
      <trkpt lat="43.71169" lon="7.05977">
        <ele>326.60000610352</ele>
        <time>2014-04-20T08:13:31.000Z</time>
      </trkpt>
      <trkpt lat="43.71169" lon="7.05984">
        <ele>321.60000610352</ele>
        <time>2014-04-20T08:13:52.000Z</time>
      </trkpt>
      <trkpt lat="43.71169" lon="7.05988">
        <ele>319.79998779297</ele>
        <time>2014-04-20T08:13:58.000Z</time>
      </trkpt>
      <trkpt lat="43.7117" lon="7.0599">
        <ele>318.79998779297</ele>
        <time>2014-04-20T08:14:01.000Z</time>
      </trkpt>
      <trkpt lat="43.71169" lon="7.05996">
        <ele>317.39999389648</ele>
        <time>2014-04-20T08:14:05.000Z</time>
      </trkpt>
      <trkpt lat="43.71165" lon="7.06">
        <ele>316.39999389648</ele>
        <time>2014-04-20T08:14:12.000Z</time>
      </trkpt>
      <trkpt lat="43.71165" lon="7.06001">
        <ele>316.39999389648</ele>
        <time>2014-04-20T08:14:15.000Z</time>
      </trkpt>
      <trkpt lat="43.71165" lon="7.06003">
        <ele>316.39999389648</ele>
        <time>2014-04-20T08:14:23.000Z</time>
      </trkpt>
      <trkpt lat="43.71164" lon="7.06003">
        <ele>317.39999389648</ele>
        <time>2014-04-20T08:14:30.000Z</time>
      </trkpt>
      <trkpt lat="43.71163" lon="7.06007">
        <ele>317.39999389648</ele>
        <time>2014-04-20T08:14:37.000Z</time>
      </trkpt>
      <trkpt lat="43.71165" lon="7.06008">
        <ele>316.39999389648</ele>
        <time>2014-04-20T08:14:42.000Z</time>
      </trkpt>
      <trkpt lat="43.71168" lon="7.06006">
        <ele>316.39999389648</ele>
        <time>2014-04-20T08:14:48.000Z</time>
      </trkpt>
      <trkpt lat="43.71171" lon="7.06004">
        <ele>318.79998779297</ele>
        <time>2014-04-20T08:14:55.000Z</time>
      </trkpt>
      <trkpt lat="43.71175" lon="7.06002">
        <ele>319.79998779297</ele>
        <time>2014-04-20T08:15:03.000Z</time>
      </trkpt>
      <trkpt lat="43.71177" lon="7.06004">
        <ele>319.20001220703</ele>
        <time>2014-04-20T08:15:10.000Z</time>
      </trkpt>
      <trkpt lat="43.71176" lon="7.06009">
        <ele>318.79998779297</ele>
        <time>2014-04-20T08:15:18.000Z</time>
      </trkpt>
      <trkpt lat="43.71178" lon="7.0601">
        <ele>318.39999389648</ele>
        <time>2014-04-20T08:15:23.000Z</time>
      </trkpt>
      <trkpt lat="43.71182" lon="7.0601">
        <ele>318.39999389648</ele>
        <time>2014-04-20T08:15:29.000Z</time>
      </trkpt>
      <trkpt lat="43.71184" lon="7.06009">
        <ele>317.39999389648</ele>
        <time>2014-04-20T08:15:35.000Z</time>
      </trkpt>
      <trkpt lat="43.71186" lon="7.06006">
        <ele>317.39999389648</ele>
        <time>2014-04-20T08:15:41.000Z</time>
      </trkpt>
      <trkpt lat="43.7119" lon="7.06005">
        <ele>317.79998779297</ele>
        <time>2014-04-20T08:15:47.000Z</time>
      </trkpt>
      <trkpt lat="43.71192" lon="7.06006">
        <ele>317.79998779297</ele>
        <time>2014-04-20T08:15:55.000Z</time>
      </trkpt>
      <trkpt lat="43.71192" lon="7.0601">
        <ele>317.79998779297</ele>
        <time>2014-04-20T08:16:01.000Z</time>
      </trkpt>
      <trkpt lat="43.71195" lon="7.06008">
        <ele>318.79998779297</ele>
        <time>2014-04-20T08:16:06.000Z</time>
      </trkpt>
      <trkpt lat="43.71202" lon="7.06004">
        <ele>319.79998779297</ele>
        <time>2014-04-20T08:16:15.000Z</time>
      </trkpt>
      <trkpt lat="43.71204" lon="7.06003">
        <ele>320.79998779297</ele>
        <time>2014-04-20T08:16:18.000Z</time>
      </trkpt>
      <trkpt lat="43.71212" lon="7.05999">
        <ele>322.60000610352</ele>
        <time>2014-04-20T08:16:29.000Z</time>
      </trkpt>
      <trkpt lat="43.71217" lon="7.05997">
        <ele>324.60000610352</ele>
        <time>2014-04-20T08:16:37.000Z</time>
      </trkpt>
      <trkpt lat="43.71222" lon="7.05996">
        <ele>326</ele>
        <time>2014-04-20T08:16:45.000Z</time>
      </trkpt>
      <trkpt lat="43.71227" lon="7.05992">
        <ele>327.39999389648</ele>
        <time>2014-04-20T08:16:53.000Z</time>
      </trkpt>
      <trkpt lat="43.71232" lon="7.0599">
        <ele>328.39999389648</ele>
        <time>2014-04-20T08:17:01.000Z</time>
      </trkpt>
      <trkpt lat="43.71233" lon="7.05993">
        <ele>330.39999389648</ele>
        <time>2014-04-20T08:17:07.000Z</time>
      </trkpt>
      <trkpt lat="43.71232" lon="7.05998">
        <ele>330.79998779297</ele>
        <time>2014-04-20T08:17:13.000Z</time>
      </trkpt>
      <trkpt lat="43.71235" lon="7.06001">
        <ele>330.39999389648</ele>
        <time>2014-04-20T08:17:19.000Z</time>
      </trkpt>
      <trkpt lat="43.71241" lon="7.06">
        <ele>330.39999389648</ele>
        <time>2014-04-20T08:17:27.000Z</time>
      </trkpt>
      <trkpt lat="43.71246" lon="7.05996">
        <ele>331.39999389648</ele>
        <time>2014-04-20T08:17:34.000Z</time>
      </trkpt>
      <trkpt lat="43.71247" lon="7.05994">
        <ele>331.39999389648</ele>
        <time>2014-04-20T08:17:37.000Z</time>
      </trkpt>
      <trkpt lat="43.71257" lon="7.05986">
        <ele>333.20001220703</ele>
        <time>2014-04-20T08:17:47.000Z</time>
      </trkpt>
      <trkpt lat="43.71259" lon="7.05985">
        <ele>333.79998779297</ele>
        <time>2014-04-20T08:17:50.000Z</time>
      </trkpt>
      <trkpt lat="43.71263" lon="7.05983">
        <ele>334.20001220703</ele>
        <time>2014-04-20T08:17:58.000Z</time>
      </trkpt>
      <trkpt lat="43.71269" lon="7.05979">
        <ele>336.20001220703</ele>
        <time>2014-04-20T08:18:06.000Z</time>
      </trkpt>
      <trkpt lat="43.71276" lon="7.05978">
        <ele>337.60000610352</ele>
        <time>2014-04-20T08:18:14.000Z</time>
      </trkpt>
      <trkpt lat="43.71283" lon="7.05976">
        <ele>338</ele>
        <time>2014-04-20T08:18:22.000Z</time>
      </trkpt>
      <trkpt lat="43.71287" lon="7.05975">
        <ele>338</ele>
        <time>2014-04-20T08:18:27.000Z</time>
      </trkpt>
      <trkpt lat="43.71291" lon="7.05975">
        <ele>338</ele>
        <time>2014-04-20T08:18:34.000Z</time>
      </trkpt>
      <trkpt lat="43.71298" lon="7.05971">
        <ele>339</ele>
        <time>2014-04-20T08:18:43.000Z</time>
      </trkpt>
      <trkpt lat="43.71306" lon="7.0597">
        <ele>341.39999389648</ele>
        <time>2014-04-20T08:18:51.000Z</time>
      </trkpt>
      <trkpt lat="43.71307" lon="7.05969">
        <ele>342.79998779297</ele>
        <time>2014-04-20T08:18:58.000Z</time>
      </trkpt>
      <trkpt lat="43.7131" lon="7.05968">
        <ele>343.79998779297</ele>
        <time>2014-04-20T08:19:04.000Z</time>
      </trkpt>
      <trkpt lat="43.71314" lon="7.0597">
        <ele>344.79998779297</ele>
        <time>2014-04-20T08:19:09.000Z</time>
      </trkpt>
      <trkpt lat="43.71312" lon="7.05973">
        <ele>344.79998779297</ele>
        <time>2014-04-20T08:19:14.000Z</time>
      </trkpt>
      <trkpt lat="43.71314" lon="7.05977">
        <ele>344.20001220703</ele>
        <time>2014-04-20T08:19:21.000Z</time>
      </trkpt>
      <trkpt lat="43.71317" lon="7.05975">
        <ele>344.79998779297</ele>
        <time>2014-04-20T08:19:26.000Z</time>
      </trkpt>
      <trkpt lat="43.71324" lon="7.05975">
        <ele>344.79998779297</ele>
        <time>2014-04-20T08:19:33.000Z</time>
      </trkpt>
      <trkpt lat="43.71329" lon="7.05975">
        <ele>344.79998779297</ele>
        <time>2014-04-20T08:19:39.000Z</time>
      </trkpt>
      <trkpt lat="43.71333" lon="7.05974">
        <ele>345.20001220703</ele>
        <time>2014-04-20T08:19:46.000Z</time>
      </trkpt>
      <trkpt lat="43.71338" lon="7.05973">
        <ele>346.60000610352</ele>
        <time>2014-04-20T08:19:54.000Z</time>
      </trkpt>
      <trkpt lat="43.71341" lon="7.05973">
        <ele>347.60000610352</ele>
        <time>2014-04-20T08:20:01.000Z</time>
      </trkpt>
      <trkpt lat="43.71346" lon="7.0597">
        <ele>350</ele>
        <time>2014-04-20T08:20:09.000Z</time>
      </trkpt>
      <trkpt lat="43.71349" lon="7.05969">
        <ele>350.60000610352</ele>
        <time>2014-04-20T08:20:15.000Z</time>
      </trkpt>
      <trkpt lat="43.71351" lon="7.05969">
        <ele>351.39999389648</ele>
        <time>2014-04-20T08:20:20.000Z</time>
      </trkpt>
      <trkpt lat="43.71356" lon="7.05969">
        <ele>352</ele>
        <time>2014-04-20T08:20:34.000Z</time>
      </trkpt>
      <trkpt lat="43.71358" lon="7.05969">
        <ele>352</ele>
        <time>2014-04-20T08:20:40.000Z</time>
      </trkpt>
      <trkpt lat="43.71361" lon="7.0597">
        <ele>352</ele>
        <time>2014-04-20T08:20:47.000Z</time>
      </trkpt>
      <trkpt lat="43.71363" lon="7.0597">
        <ele>353</ele>
        <time>2014-04-20T08:20:53.000Z</time>
      </trkpt>
      <trkpt lat="43.71368" lon="7.05969">
        <ele>354.39999389648</ele>
        <time>2014-04-20T08:21:02.000Z</time>
      </trkpt>
      <trkpt lat="43.71369" lon="7.05969">
        <ele>354.39999389648</ele>
        <time>2014-04-20T08:21:03.000Z</time>
      </trkpt>
      <trkpt lat="43.71373" lon="7.05969">
        <ele>355.39999389648</ele>
        <time>2014-04-20T08:21:10.000Z</time>
      </trkpt>
      <trkpt lat="43.71376" lon="7.05968">
        <ele>355.79998779297</ele>
        <time>2014-04-20T08:21:15.000Z</time>
      </trkpt>
      <trkpt lat="43.71382" lon="7.05967">
        <ele>356.79998779297</ele>
        <time>2014-04-20T08:21:23.000Z</time>
      </trkpt>
      <trkpt lat="43.7139" lon="7.05966">
        <ele>358.20001220703</ele>
        <time>2014-04-20T08:21:33.000Z</time>
      </trkpt>
      <trkpt lat="43.71395" lon="7.05965">
        <ele>359.20001220703</ele>
        <time>2014-04-20T08:21:40.000Z</time>
      </trkpt>
      <trkpt lat="43.71396" lon="7.05964">
        <ele>359.60000610352</ele>
        <time>2014-04-20T08:21:41.000Z</time>
      </trkpt>
      <trkpt lat="43.71405" lon="7.05962">
        <ele>361.20001220703</ele>
        <time>2014-04-20T08:21:52.000Z</time>
      </trkpt>
      <trkpt lat="43.71409" lon="7.05961">
        <ele>361.20001220703</ele>
        <time>2014-04-20T08:21:58.000Z</time>
      </trkpt>
      <trkpt lat="43.71414" lon="7.0596">
        <ele>362.60000610352</ele>
        <time>2014-04-20T08:22:16.000Z</time>
      </trkpt>
      <trkpt lat="43.71417" lon="7.05958">
        <ele>364</ele>
        <time>2014-04-20T08:22:23.000Z</time>
      </trkpt>
      <trkpt lat="43.7142" lon="7.0596">
        <ele>365</ele>
        <time>2014-04-20T08:22:33.000Z</time>
      </trkpt>
      <trkpt lat="43.71419" lon="7.05964">
        <ele>365</ele>
        <time>2014-04-20T08:22:39.000Z</time>
      </trkpt>
      <trkpt lat="43.71419" lon="7.0597">
        <ele>364.39999389648</ele>
        <time>2014-04-20T08:22:47.000Z</time>
      </trkpt>
      <trkpt lat="43.71415" lon="7.05974">
        <ele>362.60000610352</ele>
        <time>2014-04-20T08:22:55.000Z</time>
      </trkpt>
      <trkpt lat="43.71418" lon="7.05973">
        <ele>364</ele>
        <time>2014-04-20T08:23:08.000Z</time>
      </trkpt>
      <trkpt lat="43.71421" lon="7.0596">
        <ele>363.60000610352</ele>
        <time>2014-04-20T08:23:13.000Z</time>
      </trkpt>
      <trkpt lat="43.71395" lon="7.05972">
        <ele>358.20001220703</ele>
        <time>2014-04-20T08:23:19.000Z</time>
      </trkpt>
      <trkpt lat="43.71389" lon="7.05973">
        <ele>356.39999389648</ele>
        <time>2014-04-20T08:23:20.000Z</time>
      </trkpt>
      <trkpt lat="43.71361" lon="7.05979">
        <ele>350.60000610352</ele>
        <time>2014-04-20T08:23:24.000Z</time>
      </trkpt>
      <trkpt lat="43.71328" lon="7.05983">
        <ele>345.20001220703</ele>
        <time>2014-04-20T08:23:29.000Z</time>
      </trkpt>
      <trkpt lat="43.71325" lon="7.05983">
        <ele>345.20001220703</ele>
        <time>2014-04-20T08:23:30.000Z</time>
      </trkpt>
      <trkpt lat="43.71325" lon="7.05983">
        <ele>345.20001220703</ele>
        <time>2014-04-20T08:23:30.000Z</time>
      </trkpt>
      <trkpt lat="43.71325" lon="7.05978">
        <ele>344.79998779297</ele>
        <time>2014-04-20T08:23:33.000Z</time>
      </trkpt>
      <trkpt lat="43.71318" lon="7.05976">
        <ele>343.79998779297</ele>
        <time>2014-04-20T08:23:38.000Z</time>
      </trkpt>
      <trkpt lat="43.71295" lon="7.05977">
        <ele>343.39999389648</ele>
        <time>2014-04-20T08:23:43.000Z</time>
      </trkpt>
      <trkpt lat="43.71281" lon="7.05979">
        <ele>342.79998779297</ele>
        <time>2014-04-20T08:23:45.000Z</time>
      </trkpt>
      <trkpt lat="43.71257" lon="7.05993">
        <ele>341</ele>
        <time>2014-04-20T08:23:49.000Z</time>
      </trkpt>
      <trkpt lat="43.71243" lon="7.06004">
        <ele>340</ele>
        <time>2014-04-20T08:23:53.000Z</time>
      </trkpt>
      <trkpt lat="43.71243" lon="7.05995">
        <ele>340</ele>
        <time>2014-04-20T08:23:56.000Z</time>
      </trkpt>
      <trkpt lat="43.71232" lon="7.05992">
        <ele>339</ele>
        <time>2014-04-20T08:24:00.000Z</time>
      </trkpt>
      <trkpt lat="43.71208" lon="7.05995">
        <ele>338</ele>
        <time>2014-04-20T08:24:04.000Z</time>
      </trkpt>
      <trkpt lat="43.71198" lon="7.05997">
        <ele>337</ele>
        <time>2014-04-20T08:24:08.000Z</time>
      </trkpt>
      <trkpt lat="43.71195" lon="7.05993">
        <ele>335.20001220703</ele>
        <time>2014-04-20T08:24:11.000Z</time>
      </trkpt>
      <trkpt lat="43.7119" lon="7.06001">
        <ele>333.79998779297</ele>
        <time>2014-04-20T08:24:14.000Z</time>
      </trkpt>
      <trkpt lat="43.71183" lon="7.06003">
        <ele>331.39999389648</ele>
        <time>2014-04-20T08:24:17.000Z</time>
      </trkpt>
      <trkpt lat="43.71183" lon="7.05997">
        <ele>330.39999389648</ele>
        <time>2014-04-20T08:24:21.000Z</time>
      </trkpt>
      <trkpt lat="43.71171" lon="7.06002">
        <ele>328.39999389648</ele>
        <time>2014-04-20T08:24:26.000Z</time>
      </trkpt>
      <trkpt lat="43.71167" lon="7.05997">
        <ele>325.60000610352</ele>
        <time>2014-04-20T08:24:30.000Z</time>
      </trkpt>
      <trkpt lat="43.7117" lon="7.05987">
        <ele>323.60000610352</ele>
        <time>2014-04-20T08:24:33.000Z</time>
      </trkpt>
      <trkpt lat="43.71163" lon="7.0597">
        <ele>321.60000610352</ele>
        <time>2014-04-20T08:24:38.000Z</time>
      </trkpt>
      <trkpt lat="43.71162" lon="7.05973">
        <ele>322.20001220703</ele>
        <time>2014-04-20T08:24:54.000Z</time>
      </trkpt>
      <trkpt lat="43.71162" lon="7.05972">
        <ele>320.79998779297</ele>
        <time>2014-04-20T08:25:01.000Z</time>
      </trkpt>
      <trkpt lat="43.71161" lon="7.05974">
        <ele>320.79998779297</ele>
        <time>2014-04-20T08:25:10.000Z</time>
      </trkpt>
      <trkpt lat="43.71161" lon="7.05977">
        <ele>320.20001220703</ele>
        <time>2014-04-20T08:25:31.000Z</time>
      </trkpt>
      <trkpt lat="43.71163" lon="7.0598">
        <ele>320.79998779297</ele>
        <time>2014-04-20T08:25:38.000Z</time>
      </trkpt>
      <trkpt lat="43.71164" lon="7.05983">
        <ele>320.20001220703</ele>
        <time>2014-04-20T08:25:42.000Z</time>
      </trkpt>
      <trkpt lat="43.71166" lon="7.05986">
        <ele>320.20001220703</ele>
        <time>2014-04-20T08:25:47.000Z</time>
      </trkpt>
      <trkpt lat="43.71167" lon="7.05989">
        <ele>320.20001220703</ele>
        <time>2014-04-20T08:25:53.000Z</time>
      </trkpt>
      <trkpt lat="43.71166" lon="7.05996">
        <ele>319.20001220703</ele>
        <time>2014-04-20T08:25:59.000Z</time>
      </trkpt>
      <trkpt lat="43.71165" lon="7.06001">
        <ele>318.39999389648</ele>
        <time>2014-04-20T08:26:05.000Z</time>
      </trkpt>
      <trkpt lat="43.71166" lon="7.06004">
        <ele>316.39999389648</ele>
        <time>2014-04-20T08:26:13.000Z</time>
      </trkpt>
      <trkpt lat="43.71169" lon="7.06004">
        <ele>316</ele>
        <time>2014-04-20T08:26:19.000Z</time>
      </trkpt>
      <trkpt lat="43.71173" lon="7.06004">
        <ele>315.39999389648</ele>
        <time>2014-04-20T08:26:26.000Z</time>
      </trkpt>
      <trkpt lat="43.71178" lon="7.06003">
        <ele>315.39999389648</ele>
        <time>2014-04-20T08:26:34.000Z</time>
      </trkpt>
      <trkpt lat="43.7118" lon="7.06003">
        <ele>316</ele>
        <time>2014-04-20T08:26:38.000Z</time>
      </trkpt>
      <trkpt lat="43.71181" lon="7.06006">
        <ele>315.39999389648</ele>
        <time>2014-04-20T08:26:43.000Z</time>
      </trkpt>
      <trkpt lat="43.71182" lon="7.06008">
        <ele>315</ele>
        <time>2014-04-20T08:26:50.000Z</time>
      </trkpt>
      <trkpt lat="43.71186" lon="7.06009">
        <ele>313.60000610352</ele>
        <time>2014-04-20T08:26:57.000Z</time>
      </trkpt>
      <trkpt lat="43.71188" lon="7.06008">
        <ele>312.60000610352</ele>
        <time>2014-04-20T08:27:04.000Z</time>
      </trkpt>
      <trkpt lat="43.71193" lon="7.06006">
        <ele>314.39999389648</ele>
        <time>2014-04-20T08:27:12.000Z</time>
      </trkpt>
      <trkpt lat="43.71195" lon="7.0601">
        <ele>315.39999389648</ele>
        <time>2014-04-20T08:27:19.000Z</time>
      </trkpt>
      <trkpt lat="43.71197" lon="7.06011">
        <ele>315</ele>
        <time>2014-04-20T08:27:25.000Z</time>
      </trkpt>
      <trkpt lat="43.71201" lon="7.06007">
        <ele>316.79998779297</ele>
        <time>2014-04-20T08:27:32.000Z</time>
      </trkpt>
      <trkpt lat="43.71207" lon="7.06003">
        <ele>319.20001220703</ele>
        <time>2014-04-20T08:27:40.000Z</time>
      </trkpt>
      <trkpt lat="43.71211" lon="7.06001">
        <ele>322.60000610352</ele>
        <time>2014-04-20T08:27:47.000Z</time>
      </trkpt>
      <trkpt lat="43.71217" lon="7.05999">
        <ele>325.60000610352</ele>
        <time>2014-04-20T08:27:56.000Z</time>
      </trkpt>
      <trkpt lat="43.71221" lon="7.05998">
        <ele>328</ele>
        <time>2014-04-20T08:28:03.000Z</time>
      </trkpt>
      <trkpt lat="43.71227" lon="7.05994">
        <ele>330.39999389648</ele>
        <time>2014-04-20T08:28:11.000Z</time>
      </trkpt>
      <trkpt lat="43.71233" lon="7.05996">
        <ele>330.39999389648</ele>
        <time>2014-04-20T08:28:19.000Z</time>
      </trkpt>
      <trkpt lat="43.71232" lon="7.06002">
        <ele>329.79998779297</ele>
        <time>2014-04-20T08:28:25.000Z</time>
      </trkpt>
      <trkpt lat="43.71234" lon="7.06006">
        <ele>329.39999389648</ele>
        <time>2014-04-20T08:28:30.000Z</time>
      </trkpt>
      <trkpt lat="43.7124" lon="7.06005">
        <ele>329.79998779297</ele>
        <time>2014-04-20T08:28:38.000Z</time>
      </trkpt>
      <trkpt lat="43.71244" lon="7.06003">
        <ele>329</ele>
        <time>2014-04-20T08:28:43.000Z</time>
      </trkpt>
      <trkpt lat="43.71246" lon="7.06001">
        <ele>327.39999389648</ele>
        <time>2014-04-20T08:28:48.000Z</time>
      </trkpt>
      <trkpt lat="43.71251" lon="7.05998">
        <ele>327.39999389648</ele>
        <time>2014-04-20T08:28:53.000Z</time>
      </trkpt>
      <trkpt lat="43.71256" lon="7.05993">
        <ele>328.39999389648</ele>
        <time>2014-04-20T08:29:00.000Z</time>
      </trkpt>
      <trkpt lat="43.71258" lon="7.05991">
        <ele>329</ele>
        <time>2014-04-20T08:29:03.000Z</time>
      </trkpt>
      <trkpt lat="43.7126" lon="7.05991">
        <ele>329.39999389648</ele>
        <time>2014-04-20T08:29:06.000Z</time>
      </trkpt>
      <trkpt lat="43.71268" lon="7.05986">
        <ele>330.79998779297</ele>
        <time>2014-04-20T08:29:16.000Z</time>
      </trkpt>
      <trkpt lat="43.71271" lon="7.05986">
        <ele>331.39999389648</ele>
        <time>2014-04-20T08:29:19.000Z</time>
      </trkpt>
      <trkpt lat="43.71275" lon="7.05986">
        <ele>331.39999389648</ele>
        <time>2014-04-20T08:29:23.000Z</time>
      </trkpt>
      <trkpt lat="43.71282" lon="7.05984">
        <ele>331.79998779297</ele>
        <time>2014-04-20T08:29:31.000Z</time>
      </trkpt>
      <trkpt lat="43.71288" lon="7.05982">
        <ele>332.20001220703</ele>
        <time>2014-04-20T08:29:39.000Z</time>
      </trkpt>
      <trkpt lat="43.71291" lon="7.05981">
        <ele>332.20001220703</ele>
        <time>2014-04-20T08:29:43.000Z</time>
      </trkpt>
      <trkpt lat="43.71301" lon="7.05977">
        <ele>334.20001220703</ele>
        <time>2014-04-20T08:29:52.000Z</time>
      </trkpt>
      <trkpt lat="43.71308" lon="7.05975">
        <ele>336.20001220703</ele>
        <time>2014-04-20T08:29:59.000Z</time>
      </trkpt>
      <trkpt lat="43.71312" lon="7.05974">
        <ele>337</ele>
        <time>2014-04-20T08:30:04.000Z</time>
      </trkpt>
      <trkpt lat="43.71313" lon="7.05979">
        <ele>337.60000610352</ele>
        <time>2014-04-20T08:30:11.000Z</time>
      </trkpt>
      <trkpt lat="43.71314" lon="7.05982">
        <ele>337</ele>
        <time>2014-04-20T08:30:16.000Z</time>
      </trkpt>
      <trkpt lat="43.71319" lon="7.05981">
        <ele>338</ele>
        <time>2014-04-20T08:30:21.000Z</time>
      </trkpt>
      <trkpt lat="43.7132" lon="7.05981">
        <ele>338</ele>
        <time>2014-04-20T08:30:22.000Z</time>
      </trkpt>
      <trkpt lat="43.71324" lon="7.05981">
        <ele>338.60000610352</ele>
        <time>2014-04-20T08:30:26.000Z</time>
      </trkpt>
      <trkpt lat="43.71333" lon="7.05979">
        <ele>341</ele>
        <time>2014-04-20T08:30:36.000Z</time>
      </trkpt>
      <trkpt lat="43.71339" lon="7.05978">
        <ele>342.79998779297</ele>
        <time>2014-04-20T08:30:44.000Z</time>
      </trkpt>
      <trkpt lat="43.71345" lon="7.05977">
        <ele>343.39999389648</ele>
        <time>2014-04-20T08:30:51.000Z</time>
      </trkpt>
      <trkpt lat="43.71349" lon="7.05976">
        <ele>344.20001220703</ele>
        <time>2014-04-20T08:30:57.000Z</time>
      </trkpt>
      <trkpt lat="43.71354" lon="7.05977">
        <ele>343.79998779297</ele>
        <time>2014-04-20T08:31:03.000Z</time>
      </trkpt>
      <trkpt lat="43.7136" lon="7.05978">
        <ele>341.79998779297</ele>
        <time>2014-04-20T08:31:10.000Z</time>
      </trkpt>
      <trkpt lat="43.71366" lon="7.05979">
        <ele>341.39999389648</ele>
        <time>2014-04-20T08:31:18.000Z</time>
      </trkpt>
      <trkpt lat="43.71372" lon="7.05978">
        <ele>341.79998779297</ele>
        <time>2014-04-20T08:31:25.000Z</time>
      </trkpt>
      <trkpt lat="43.71376" lon="7.05977">
        <ele>342.79998779297</ele>
        <time>2014-04-20T08:31:30.000Z</time>
      </trkpt>
      <trkpt lat="43.7138" lon="7.05976">
        <ele>343.79998779297</ele>
        <time>2014-04-20T08:31:35.000Z</time>
      </trkpt>
      <trkpt lat="43.71386" lon="7.05975">
        <ele>346.20001220703</ele>
        <time>2014-04-20T08:31:43.000Z</time>
      </trkpt>
      <trkpt lat="43.71388" lon="7.05975">
        <ele>346.60000610352</ele>
        <time>2014-04-20T08:31:45.000Z</time>
      </trkpt>
      <trkpt lat="43.71394" lon="7.05973">
        <ele>348.20001220703</ele>
        <time>2014-04-20T08:31:51.000Z</time>
      </trkpt>
      <trkpt lat="43.71398" lon="7.05972">
        <ele>349.60000610352</ele>
        <time>2014-04-20T08:31:56.000Z</time>
      </trkpt>
      <trkpt lat="43.71407" lon="7.05969">
        <ele>351.39999389648</ele>
        <time>2014-04-20T08:32:05.000Z</time>
      </trkpt>
      <trkpt lat="43.71413" lon="7.05966">
        <ele>352.39999389648</ele>
        <time>2014-04-20T08:32:12.000Z</time>
      </trkpt>
      <trkpt lat="43.71416" lon="7.0597">
        <ele>353</ele>
        <time>2014-04-20T08:32:17.000Z</time>
      </trkpt>
      <trkpt lat="43.71415" lon="7.05973">
        <ele>353.39999389648</ele>
        <time>2014-04-20T08:32:19.000Z</time>
      </trkpt>
      <trkpt lat="43.71415" lon="7.05974">
        <ele>354</ele>
        <time>2014-04-20T08:32:21.000Z</time>
      </trkpt>
      <trkpt lat="43.7142" lon="7.05971">
        <ele>355.39999389648</ele>
        <time>2014-04-20T08:32:28.000Z</time>
      </trkpt>
      <trkpt lat="43.71422" lon="7.05969">
        <ele>355.79998779297</ele>
        <time>2014-04-20T08:32:30.000Z</time>
      </trkpt>
      <trkpt lat="43.71425" lon="7.05966">
        <ele>357.20001220703</ele>
        <time>2014-04-20T08:32:34.000Z</time>
      </trkpt>
      <trkpt lat="43.71432" lon="7.05961">
        <ele>359.60000610352</ele>
        <time>2014-04-20T08:32:42.000Z</time>
      </trkpt>
      <trkpt lat="43.71435" lon="7.0596">
        <ele>360.60000610352</ele>
        <time>2014-04-20T08:32:45.000Z</time>
      </trkpt>
      <trkpt lat="43.71439" lon="7.05959">
        <ele>363</ele>
        <time>2014-04-20T08:32:50.000Z</time>
      </trkpt>
      <trkpt lat="43.71447" lon="7.05955">
        <ele>365</ele>
        <time>2014-04-20T08:32:59.000Z</time>
      </trkpt>
      <trkpt lat="43.71455" lon="7.05952">
        <ele>366.39999389648</ele>
        <time>2014-04-20T08:33:07.000Z</time>
      </trkpt>
      <trkpt lat="43.71457" lon="7.05953">
        <ele>366.79998779297</ele>
        <time>2014-04-20T08:33:10.000Z</time>
      </trkpt>
      <trkpt lat="43.7146" lon="7.05953">
        <ele>369.20001220703</ele>
        <time>2014-04-20T08:33:18.000Z</time>
      </trkpt>
      <trkpt lat="43.71463" lon="7.0595">
        <ele>370.20001220703</ele>
        <time>2014-04-20T08:33:27.000Z</time>
      </trkpt>
      <trkpt lat="43.71466" lon="7.05948">
        <ele>371.60000610352</ele>
        <time>2014-04-20T08:33:34.000Z</time>
      </trkpt>
      <trkpt lat="43.71468" lon="7.05946">
        <ele>373.20001220703</ele>
        <time>2014-04-20T08:33:45.000Z</time>
      </trkpt>
      <trkpt lat="43.71469" lon="7.05945">
        <ele>373.20001220703</ele>
        <time>2014-04-20T08:33:56.000Z</time>
      </trkpt>
      <trkpt lat="43.71473" lon="7.05944">
        <ele>373.60000610352</ele>
        <time>2014-04-20T08:34:02.000Z</time>
      </trkpt>
      <trkpt lat="43.71476" lon="7.05944">
        <ele>375</ele>
        <time>2014-04-20T08:34:09.000Z</time>
      </trkpt>
      <trkpt lat="43.71476" lon="7.0594">
        <ele>376</ele>
        <time>2014-04-20T08:34:15.000Z</time>
      </trkpt>
      <trkpt lat="43.71474" lon="7.05934">
        <ele>378</ele>
        <time>2014-04-20T08:34:21.000Z</time>
      </trkpt>
      <trkpt lat="43.71471" lon="7.05927">
        <ele>380.39999389648</ele>
        <time>2014-04-20T08:34:28.000Z</time>
      </trkpt>
      <trkpt lat="43.71472" lon="7.05925">
        <ele>380.79998779297</ele>
        <time>2014-04-20T08:34:30.000Z</time>
      </trkpt>
      <trkpt lat="43.71477" lon="7.05926">
        <ele>382.20001220703</ele>
        <time>2014-04-20T08:34:38.000Z</time>
      </trkpt>
      <trkpt lat="43.7148" lon="7.05925">
        <ele>382.79998779297</ele>
        <time>2014-04-20T08:34:44.000Z</time>
      </trkpt>
      <trkpt lat="43.7148" lon="7.05922">
        <ele>383.20001220703</ele>
        <time>2014-04-20T08:34:47.000Z</time>
      </trkpt>
      <trkpt lat="43.71482" lon="7.05912">
        <ele>385.20001220703</ele>
        <time>2014-04-20T08:34:55.000Z</time>
      </trkpt>
      <trkpt lat="43.71483" lon="7.05911">
        <ele>385.20001220703</ele>
        <time>2014-04-20T08:34:56.000Z</time>
      </trkpt>
      <trkpt lat="43.71485" lon="7.0591">
        <ele>385.60000610352</ele>
        <time>2014-04-20T08:35:03.000Z</time>
      </trkpt>
      <trkpt lat="43.71485" lon="7.0591">
        <ele>386.60000610352</ele>
        <time>2014-04-20T08:35:11.000Z</time>
      </trkpt>
      <trkpt lat="43.71488" lon="7.05908">
        <ele>391.39999389648</ele>
        <time>2014-04-20T08:36:58.000Z</time>
      </trkpt>
      <trkpt lat="43.71488" lon="7.05908">
        <ele>391.79998779297</ele>
        <time>2014-04-20T08:37:36.000Z</time>
      </trkpt>
      <trkpt lat="43.71487" lon="7.05908">
        <ele>391.79998779297</ele>
        <time>2014-04-20T08:37:46.000Z</time>
      </trkpt>
      <trkpt lat="43.71486" lon="7.05911">
        <ele>391</ele>
        <time>2014-04-20T08:37:55.000Z</time>
      </trkpt>
      <trkpt lat="43.71483" lon="7.05924">
        <ele>389</ele>
        <time>2014-04-20T08:37:59.000Z</time>
      </trkpt>
      <trkpt lat="43.71477" lon="7.05922">
        <ele>387.60000610352</ele>
        <time>2014-04-20T08:38:02.000Z</time>
      </trkpt>
      <trkpt lat="43.71479" lon="7.05931">
        <ele>385.60000610352</ele>
        <time>2014-04-20T08:38:05.000Z</time>
      </trkpt>
      <trkpt lat="43.71481" lon="7.05942">
        <ele>382.79998779297</ele>
        <time>2014-04-20T08:38:08.000Z</time>
      </trkpt>
      <trkpt lat="43.71474" lon="7.05945">
        <ele>380.39999389648</ele>
        <time>2014-04-20T08:38:10.000Z</time>
      </trkpt>
      <trkpt lat="43.71443" lon="7.05956">
        <ele>372.60000610352</ele>
        <time>2014-04-20T08:38:16.000Z</time>
      </trkpt>
      <trkpt lat="43.71423" lon="7.05972">
        <ele>369.20001220703</ele>
        <time>2014-04-20T08:38:20.000Z</time>
      </trkpt>
      <trkpt lat="43.71413" lon="7.05987">
        <ele>367.79998779297</ele>
        <time>2014-04-20T08:38:23.000Z</time>
      </trkpt>
      <trkpt lat="43.71408" lon="7.05997">
        <ele>367.79998779297</ele>
        <time>2014-04-20T08:38:26.000Z</time>
      </trkpt>
      <trkpt lat="43.71395" lon="7.06011">
        <ele>367.79998779297</ele>
        <time>2014-04-20T08:38:32.000Z</time>
      </trkpt>
      <trkpt lat="43.71378" lon="7.06022">
        <ele>366.39999389648</ele>
        <time>2014-04-20T08:38:37.000Z</time>
      </trkpt>
      <trkpt lat="43.71363" lon="7.06038">
        <ele>366.39999389648</ele>
        <time>2014-04-20T08:38:41.000Z</time>
      </trkpt>
      <trkpt lat="43.71352" lon="7.06042">
        <ele>365.39999389648</ele>
        <time>2014-04-20T08:38:43.000Z</time>
      </trkpt>
      <trkpt lat="43.71331" lon="7.06063">
        <ele>362</ele>
        <time>2014-04-20T08:38:47.000Z</time>
      </trkpt>
      <trkpt lat="43.71324" lon="7.06074">
        <ele>360.60000610352</ele>
        <time>2014-04-20T08:38:49.000Z</time>
      </trkpt>
      <trkpt lat="43.71308" lon="7.06079">
        <ele>356.39999389648</ele>
        <time>2014-04-20T08:38:54.000Z</time>
      </trkpt>
      <trkpt lat="43.71308" lon="7.06094">
        <ele>354</ele>
        <time>2014-04-20T08:38:59.000Z</time>
      </trkpt>
      <trkpt lat="43.71306" lon="7.06101">
        <ele>352.39999389648</ele>
        <time>2014-04-20T08:39:01.000Z</time>
      </trkpt>
      <trkpt lat="43.71304" lon="7.06105">
        <ele>352.39999389648</ele>
        <time>2014-04-20T08:39:02.000Z</time>
      </trkpt>
      <trkpt lat="43.71292" lon="7.06108">
        <ele>351</ele>
        <time>2014-04-20T08:39:06.000Z</time>
      </trkpt>
      <trkpt lat="43.71277" lon="7.06114">
        <ele>350</ele>
        <time>2014-04-20T08:39:11.000Z</time>
      </trkpt>
      <trkpt lat="43.71276" lon="7.06124">
        <ele>348.60000610352</ele>
        <time>2014-04-20T08:39:14.000Z</time>
      </trkpt>
      <trkpt lat="43.71283" lon="7.06135">
        <ele>346.20001220703</ele>
        <time>2014-04-20T08:39:18.000Z</time>
      </trkpt>
      <trkpt lat="43.71292" lon="7.06142">
        <ele>344.20001220703</ele>
        <time>2014-04-20T08:39:22.000Z</time>
      </trkpt>
      <trkpt lat="43.71289" lon="7.06147">
        <ele>342.79998779297</ele>
        <time>2014-04-20T08:39:24.000Z</time>
      </trkpt>
      <trkpt lat="43.71283" lon="7.06155">
        <ele>341.79998779297</ele>
        <time>2014-04-20T08:39:26.000Z</time>
      </trkpt>
      <trkpt lat="43.7127" lon="7.06175">
        <ele>338</ele>
        <time>2014-04-20T08:39:32.000Z</time>
      </trkpt>
      <trkpt lat="43.71258" lon="7.06195">
        <ele>335.20001220703</ele>
        <time>2014-04-20T08:39:36.000Z</time>
      </trkpt>
      <trkpt lat="43.71251" lon="7.062">
        <ele>334.60000610352</ele>
        <time>2014-04-20T08:39:40.000Z</time>
      </trkpt>
      <trkpt lat="43.71236" lon="7.06211">
        <ele>331.39999389648</ele>
        <time>2014-04-20T08:39:46.000Z</time>
      </trkpt>
      <trkpt lat="43.71226" lon="7.0622">
        <ele>329</ele>
        <time>2014-04-20T08:39:50.000Z</time>
      </trkpt>
      <trkpt lat="43.71218" lon="7.06227">
        <ele>326.60000610352</ele>
        <time>2014-04-20T08:39:54.000Z</time>
      </trkpt>
      <trkpt lat="43.71207" lon="7.06227">
        <ele>324.20001220703</ele>
        <time>2014-04-20T08:39:58.000Z</time>
      </trkpt>
      <trkpt lat="43.71202" lon="7.06233">
        <ele>323.20001220703</ele>
        <time>2014-04-20T08:40:00.000Z</time>
      </trkpt>
      <trkpt lat="43.71188" lon="7.06243">
        <ele>320.79998779297</ele>
        <time>2014-04-20T08:40:06.000Z</time>
      </trkpt>
      <trkpt lat="43.71186" lon="7.06234">
        <ele>320.20001220703</ele>
        <time>2014-04-20T08:40:09.000Z</time>
      </trkpt>
      <trkpt lat="43.71186" lon="7.06226">
        <ele>320.79998779297</ele>
        <time>2014-04-20T08:40:12.000Z</time>
      </trkpt>
      <trkpt lat="43.71187" lon="7.06208">
        <ele>320.79998779297</ele>
        <time>2014-04-20T08:40:19.000Z</time>
      </trkpt>
      <trkpt lat="43.71185" lon="7.0618">
        <ele>320.20001220703</ele>
        <time>2014-04-20T08:40:28.000Z</time>
      </trkpt>
      <trkpt lat="43.71182" lon="7.06157">
        <ele>320.79998779297</ele>
        <time>2014-04-20T08:40:35.000Z</time>
      </trkpt>
      <trkpt lat="43.7119" lon="7.06154">
        <ele>321.20001220703</ele>
        <time>2014-04-20T08:40:39.000Z</time>
      </trkpt>
      <trkpt lat="43.71194" lon="7.06163">
        <ele>321.20001220703</ele>
        <time>2014-04-20T08:40:42.000Z</time>
      </trkpt>
      <trkpt lat="43.7121" lon="7.06198">
        <ele>320.20001220703</ele>
        <time>2014-04-20T08:40:52.000Z</time>
      </trkpt>
      <trkpt lat="43.71222" lon="7.06218">
        <ele>319.20001220703</ele>
        <time>2014-04-20T08:40:58.000Z</time>
      </trkpt>
      <trkpt lat="43.71232" lon="7.06229">
        <ele>318.79998779297</ele>
        <time>2014-04-20T08:41:02.000Z</time>
      </trkpt>
      <trkpt lat="43.7126" lon="7.06254">
        <ele>317.79998779297</ele>
        <time>2014-04-20T08:41:11.000Z</time>
      </trkpt>
      <trkpt lat="43.71289" lon="7.06279">
        <ele>318.39999389648</ele>
        <time>2014-04-20T08:41:20.000Z</time>
      </trkpt>
      <trkpt lat="43.71315" lon="7.06303">
        <ele>318.79998779297</ele>
        <time>2014-04-20T08:41:29.000Z</time>
      </trkpt>
      <trkpt lat="43.71323" lon="7.06309">
        <ele>318.79998779297</ele>
        <time>2014-04-20T08:41:34.000Z</time>
      </trkpt>
      <trkpt lat="43.71337" lon="7.0632">
        <ele>319.20001220703</ele>
        <time>2014-04-20T08:41:41.000Z</time>
      </trkpt>
      <trkpt lat="43.7136" lon="7.06341">
        <ele>319.79998779297</ele>
        <time>2014-04-20T08:41:49.000Z</time>
      </trkpt>
      <trkpt lat="43.71386" lon="7.06363">
        <ele>319.20001220703</ele>
        <time>2014-04-20T08:41:57.000Z</time>
      </trkpt>
      <trkpt lat="43.71406" lon="7.06394">
        <ele>319.20001220703</ele>
        <time>2014-04-20T08:42:05.000Z</time>
      </trkpt>
      <trkpt lat="43.71417" lon="7.06422">
        <ele>318.79998779297</ele>
        <time>2014-04-20T08:42:11.000Z</time>
      </trkpt>
      <trkpt lat="43.71426" lon="7.06457">
        <ele>318.79998779297</ele>
        <time>2014-04-20T08:42:18.000Z</time>
      </trkpt>
      <trkpt lat="43.71431" lon="7.06481">
        <ele>319.20001220703</ele>
        <time>2014-04-20T08:42:23.000Z</time>
      </trkpt>
      <trkpt lat="43.71432" lon="7.06501">
        <ele>318.39999389648</ele>
        <time>2014-04-20T08:42:27.000Z</time>
      </trkpt>
      <trkpt lat="43.71431" lon="7.06532">
        <ele>319.20001220703</ele>
        <time>2014-04-20T08:42:33.000Z</time>
      </trkpt>
      <trkpt lat="43.71428" lon="7.06568">
        <ele>319.79998779297</ele>
        <time>2014-04-20T08:42:40.000Z</time>
      </trkpt>
      <trkpt lat="43.71422" lon="7.06625">
        <ele>321.60000610352</ele>
        <time>2014-04-20T08:42:51.000Z</time>
      </trkpt>
      <trkpt lat="43.71417" lon="7.06668">
        <ele>322.20001220703</ele>
        <time>2014-04-20T08:42:59.000Z</time>
      </trkpt>
      <trkpt lat="43.71413" lon="7.06709">
        <ele>323.60000610352</ele>
        <time>2014-04-20T08:43:07.000Z</time>
      </trkpt>
      <trkpt lat="43.71408" lon="7.06756">
        <ele>324.60000610352</ele>
        <time>2014-04-20T08:43:16.000Z</time>
      </trkpt>
      <trkpt lat="43.71404" lon="7.06809">
        <ele>326</ele>
        <time>2014-04-20T08:43:26.000Z</time>
      </trkpt>
      <trkpt lat="43.714" lon="7.06846">
        <ele>326.60000610352</ele>
        <time>2014-04-20T08:43:33.000Z</time>
      </trkpt>
      <trkpt lat="43.71397" lon="7.06872">
        <ele>327</ele>
        <time>2014-04-20T08:43:38.000Z</time>
      </trkpt>
      <trkpt lat="43.71396" lon="7.06877">
        <ele>327</ele>
        <time>2014-04-20T08:43:39.000Z</time>
      </trkpt>
      <trkpt lat="43.71396" lon="7.06877">
        <ele>327</ele>
        <time>2014-04-20T08:43:39.000Z</time>
      </trkpt>
      <trkpt lat="43.71391" lon="7.06928">
        <ele>328.39999389648</ele>
        <time>2014-04-20T08:43:49.000Z</time>
      </trkpt>
      <trkpt lat="43.71387" lon="7.06974">
        <ele>329.39999389648</ele>
        <time>2014-04-20T08:43:58.000Z</time>
      </trkpt>
      <trkpt lat="43.71381" lon="7.07023">
        <ele>330.79998779297</ele>
        <time>2014-04-20T08:44:07.000Z</time>
      </trkpt>
      <trkpt lat="43.71377" lon="7.07058">
        <ele>331.39999389648</ele>
        <time>2014-04-20T08:44:14.000Z</time>
      </trkpt>
      <trkpt lat="43.71375" lon="7.07067">
        <ele>331.79998779297</ele>
        <time>2014-04-20T08:44:16.000Z</time>
      </trkpt>
      <trkpt lat="43.71355" lon="7.07072">
        <ele>328</ele>
        <time>2014-04-20T08:44:21.000Z</time>
      </trkpt>
      <trkpt lat="43.71323" lon="7.07066">
        <ele>324.20001220703</ele>
        <time>2014-04-20T08:44:25.000Z</time>
      </trkpt>
      <trkpt lat="43.7127" lon="7.07054">
        <ele>320.20001220703</ele>
        <time>2014-04-20T08:44:31.000Z</time>
      </trkpt>
      <trkpt lat="43.71261" lon="7.07052">
        <ele>319.79998779297</ele>
        <time>2014-04-20T08:44:32.000Z</time>
      </trkpt>
      <trkpt lat="43.7123" lon="7.07061">
        <ele>316.79998779297</ele>
        <time>2014-04-20T08:44:36.000Z</time>
      </trkpt>
      <trkpt lat="43.71224" lon="7.07067">
        <ele>316.79998779297</ele>
        <time>2014-04-20T08:44:37.000Z</time>
      </trkpt>
      <trkpt lat="43.71196" lon="7.07102">
        <ele>315.39999389648</ele>
        <time>2014-04-20T08:44:43.000Z</time>
      </trkpt>
      <trkpt lat="43.71183" lon="7.07113">
        <ele>313.60000610352</ele>
        <time>2014-04-20T08:44:45.000Z</time>
      </trkpt>
      <trkpt lat="43.71159" lon="7.07143">
        <ele>311.20001220703</ele>
        <time>2014-04-20T08:44:49.000Z</time>
      </trkpt>
      <trkpt lat="43.71142" lon="7.0719">
        <ele>309.60000610352</ele>
        <time>2014-04-20T08:44:54.000Z</time>
      </trkpt>
      <trkpt lat="43.71135" lon="7.0722">
        <ele>308.20001220703</ele>
        <time>2014-04-20T08:44:57.000Z</time>
      </trkpt>
      <trkpt lat="43.71123" lon="7.07249">
        <ele>307.20001220703</ele>
        <time>2014-04-20T08:45:00.000Z</time>
      </trkpt>
      <trkpt lat="43.71121" lon="7.07274">
        <ele>306.79998779297</ele>
        <time>2014-04-20T08:45:03.000Z</time>
      </trkpt>
      <trkpt lat="43.71127" lon="7.07301">
        <ele>306.39999389648</ele>
        <time>2014-04-20T08:45:07.000Z</time>
      </trkpt>
      <trkpt lat="43.71118" lon="7.07315">
        <ele>305.79998779297</ele>
        <time>2014-04-20T08:45:10.000Z</time>
      </trkpt>
      <trkpt lat="43.7111" lon="7.07321">
        <ele>305.39999389648</ele>
        <time>2014-04-20T08:45:12.000Z</time>
      </trkpt>
      <trkpt lat="43.71072" lon="7.07342">
        <ele>304.39999389648</ele>
        <time>2014-04-20T08:45:20.000Z</time>
      </trkpt>
      <trkpt lat="43.71036" lon="7.07363">
        <ele>302.39999389648</ele>
        <time>2014-04-20T08:45:27.000Z</time>
      </trkpt>
      <trkpt lat="43.71026" lon="7.07371">
        <ele>302</ele>
        <time>2014-04-20T08:45:29.000Z</time>
      </trkpt>
      <trkpt lat="43.70992" lon="7.07397">
        <ele>301.60000610352</ele>
        <time>2014-04-20T08:45:35.000Z</time>
      </trkpt>
      <trkpt lat="43.70981" lon="7.07404">
        <ele>301</ele>
        <time>2014-04-20T08:45:37.000Z</time>
      </trkpt>
      <trkpt lat="43.70953" lon="7.07431">
        <ele>299.20001220703</ele>
        <time>2014-04-20T08:45:42.000Z</time>
      </trkpt>
      <trkpt lat="43.70916" lon="7.0746">
        <ele>297.20001220703</ele>
        <time>2014-04-20T08:45:48.000Z</time>
      </trkpt>
      <trkpt lat="43.70892" lon="7.07478">
        <ele>296.79998779297</ele>
        <time>2014-04-20T08:45:52.000Z</time>
      </trkpt>
      <trkpt lat="43.70867" lon="7.07501">
        <ele>296.79998779297</ele>
        <time>2014-04-20T08:45:57.000Z</time>
      </trkpt>
      <trkpt lat="43.7084" lon="7.07531">
        <ele>295.79998779297</ele>
        <time>2014-04-20T08:46:04.000Z</time>
      </trkpt>
      <trkpt lat="43.70829" lon="7.07541">
        <ele>295.20001220703</ele>
        <time>2014-04-20T08:46:07.000Z</time>
      </trkpt>
      <trkpt lat="43.70817" lon="7.07552">
        <ele>294.39999389648</ele>
        <time>2014-04-20T08:46:10.000Z</time>
      </trkpt>
      <trkpt lat="43.70801" lon="7.07569">
        <ele>292.79998779297</ele>
        <time>2014-04-20T08:46:14.000Z</time>
      </trkpt>
      <trkpt lat="43.70798" lon="7.07578">
        <ele>292.79998779297</ele>
        <time>2014-04-20T08:46:16.000Z</time>
      </trkpt>
      <trkpt lat="43.70797" lon="7.07584">
        <ele>292.39999389648</ele>
        <time>2014-04-20T08:46:17.000Z</time>
      </trkpt>
      <trkpt lat="43.70797" lon="7.07584">
        <ele>292.39999389648</ele>
        <time>2014-04-20T08:46:17.000Z</time>
      </trkpt>
      <trkpt lat="43.708" lon="7.076">
        <ele>292.39999389648</ele>
        <time>2014-04-20T08:46:20.000Z</time>
      </trkpt>
      <trkpt lat="43.70802" lon="7.07606">
        <ele>291.79998779297</ele>
        <time>2014-04-20T08:46:21.000Z</time>
      </trkpt>
      <trkpt lat="43.70798" lon="7.07626">
        <ele>290.39999389648</ele>
        <time>2014-04-20T08:46:26.000Z</time>
      </trkpt>
      <trkpt lat="43.70788" lon="7.07637">
        <ele>290</ele>
        <time>2014-04-20T08:46:28.000Z</time>
      </trkpt>
      <trkpt lat="43.7076" lon="7.07665">
        <ele>289</ele>
        <time>2014-04-20T08:46:33.000Z</time>
      </trkpt>
      <trkpt lat="43.70745" lon="7.07682">
        <ele>287</ele>
        <time>2014-04-20T08:46:36.000Z</time>
      </trkpt>
      <trkpt lat="43.70729" lon="7.0771">
        <ele>284.60000610352</ele>
        <time>2014-04-20T08:46:41.000Z</time>
      </trkpt>
      <trkpt lat="43.70723" lon="7.07722">
        <ele>284.20001220703</ele>
        <time>2014-04-20T08:46:43.000Z</time>
      </trkpt>
      <trkpt lat="43.70724" lon="7.0773">
        <ele>280.39999389648</ele>
        <time>2014-04-20T08:46:48.000Z</time>
      </trkpt>
      <trkpt lat="43.7073" lon="7.07731">
        <ele>278.39999389648</ele>
        <time>2014-04-20T08:46:51.000Z</time>
      </trkpt>
      <trkpt lat="43.7073" lon="7.07733">
        <ele>278</ele>
        <time>2014-04-20T08:46:52.000Z</time>
      </trkpt>
      <trkpt lat="43.70719" lon="7.0775">
        <ele>274.20001220703</ele>
        <time>2014-04-20T08:46:56.000Z</time>
      </trkpt>
      <trkpt lat="43.70714" lon="7.07763">
        <ele>271.79998779297</ele>
        <time>2014-04-20T08:46:59.000Z</time>
      </trkpt>
      <trkpt lat="43.70723" lon="7.07763">
        <ele>268.39999389648</ele>
        <time>2014-04-20T08:47:03.000Z</time>
      </trkpt>
      <trkpt lat="43.70731" lon="7.07761">
        <ele>267.79998779297</ele>
        <time>2014-04-20T08:47:05.000Z</time>
      </trkpt>
      <trkpt lat="43.70742" lon="7.07769">
        <ele>265</ele>
        <time>2014-04-20T08:47:09.000Z</time>
      </trkpt>
      <trkpt lat="43.70749" lon="7.07772">
        <ele>264</ele>
        <time>2014-04-20T08:47:11.000Z</time>
      </trkpt>
      <trkpt lat="43.70745" lon="7.07777">
        <ele>262.60000610352</ele>
        <time>2014-04-20T08:47:15.000Z</time>
      </trkpt>
      <trkpt lat="43.70736" lon="7.07787">
        <ele>261.20001220703</ele>
        <time>2014-04-20T08:47:18.000Z</time>
      </trkpt>
      <trkpt lat="43.70721" lon="7.07797">
        <ele>260.60000610352</ele>
        <time>2014-04-20T08:47:22.000Z</time>
      </trkpt>
      <trkpt lat="43.70707" lon="7.07808">
        <ele>259.20001220703</ele>
        <time>2014-04-20T08:47:25.000Z</time>
      </trkpt>
      <trkpt lat="43.70685" lon="7.07826">
        <ele>258.20001220703</ele>
        <time>2014-04-20T08:47:29.000Z</time>
      </trkpt>
      <trkpt lat="43.70655" lon="7.07846">
        <ele>257.20001220703</ele>
        <time>2014-04-20T08:47:35.000Z</time>
      </trkpt>
      <trkpt lat="43.70635" lon="7.07867">
        <ele>255.80000305176</ele>
        <time>2014-04-20T08:47:39.000Z</time>
      </trkpt>
      <trkpt lat="43.70622" lon="7.07881">
        <ele>253.39999389648</ele>
        <time>2014-04-20T08:47:42.000Z</time>
      </trkpt>
      <trkpt lat="43.70608" lon="7.07894">
        <ele>251.60000610352</ele>
        <time>2014-04-20T08:47:46.000Z</time>
      </trkpt>
      <trkpt lat="43.70592" lon="7.07914">
        <ele>246.19999694824</ele>
        <time>2014-04-20T08:47:51.000Z</time>
      </trkpt>
      <trkpt lat="43.70584" lon="7.07921">
        <ele>243.80000305176</ele>
        <time>2014-04-20T08:47:53.000Z</time>
      </trkpt>
      <trkpt lat="43.70575" lon="7.07926">
        <ele>241.39999389648</ele>
        <time>2014-04-20T08:47:55.000Z</time>
      </trkpt>
      <trkpt lat="43.70558" lon="7.07937">
        <ele>236.19999694824</ele>
        <time>2014-04-20T08:48:00.000Z</time>
      </trkpt>
      <trkpt lat="43.70554" lon="7.07945">
        <ele>231.80000305176</ele>
        <time>2014-04-20T08:48:04.000Z</time>
      </trkpt>
      <trkpt lat="43.70553" lon="7.07952">
        <ele>227.39999389648</ele>
        <time>2014-04-20T08:48:08.000Z</time>
      </trkpt>
      <trkpt lat="43.70552" lon="7.07953">
        <ele>224.60000610352</ele>
        <time>2014-04-20T08:48:17.000Z</time>
      </trkpt>
      <trkpt lat="43.70552" lon="7.07954">
        <ele>223.19999694824</ele>
        <time>2014-04-20T08:48:25.000Z</time>
      </trkpt>
      <trkpt lat="43.70552" lon="7.07956">
        <ele>221.80000305176</ele>
        <time>2014-04-20T08:48:35.000Z</time>
      </trkpt>
      <trkpt lat="43.7055" lon="7.07957">
        <ele>219.80000305176</ele>
        <time>2014-04-20T08:48:41.000Z</time>
      </trkpt>
      <trkpt lat="43.70547" lon="7.07959">
        <ele>217</ele>
        <time>2014-04-20T08:49:00.000Z</time>
      </trkpt>
      <trkpt lat="43.70545" lon="7.07959">
        <ele>216</ele>
        <time>2014-04-20T08:49:06.000Z</time>
      </trkpt>
      <trkpt lat="43.70541" lon="7.07956">
        <ele>214</ele>
        <time>2014-04-20T08:49:13.000Z</time>
      </trkpt>
      <trkpt lat="43.70538" lon="7.07957">
        <ele>213</ele>
        <time>2014-04-20T08:49:18.000Z</time>
      </trkpt>
      <trkpt lat="43.70535" lon="7.07958">
        <ele>212.60000610352</ele>
        <time>2014-04-20T08:49:23.000Z</time>
      </trkpt>
      <trkpt lat="43.70533" lon="7.07959">
        <ele>212.19999694824</ele>
        <time>2014-04-20T08:49:30.000Z</time>
      </trkpt>
      <trkpt lat="43.70531" lon="7.0796">
        <ele>211.60000610352</ele>
        <time>2014-04-20T08:49:35.000Z</time>
      </trkpt>
      <trkpt lat="43.70528" lon="7.07963">
        <ele>211.60000610352</ele>
        <time>2014-04-20T08:49:41.000Z</time>
      </trkpt>
      <trkpt lat="43.70523" lon="7.07962">
        <ele>209.80000305176</ele>
        <time>2014-04-20T08:49:50.000Z</time>
      </trkpt>
      <trkpt lat="43.70518" lon="7.07964">
        <ele>208.19999694824</ele>
        <time>2014-04-20T08:49:58.000Z</time>
      </trkpt>
      <trkpt lat="43.70514" lon="7.07965">
        <ele>207.39999389648</ele>
        <time>2014-04-20T08:50:05.000Z</time>
      </trkpt>
      <trkpt lat="43.7051" lon="7.0797">
        <ele>207.80000305176</ele>
        <time>2014-04-20T08:50:14.000Z</time>
      </trkpt>
      <trkpt lat="43.70507" lon="7.07969">
        <ele>207.80000305176</ele>
        <time>2014-04-20T08:50:19.000Z</time>
      </trkpt>
      <trkpt lat="43.70502" lon="7.07971">
        <ele>208.80000305176</ele>
        <time>2014-04-20T08:50:27.000Z</time>
      </trkpt>
      <trkpt lat="43.70497" lon="7.07973">
        <ele>209.19999694824</ele>
        <time>2014-04-20T08:50:35.000Z</time>
      </trkpt>
      <trkpt lat="43.70493" lon="7.07974">
        <ele>209.80000305176</ele>
        <time>2014-04-20T08:50:42.000Z</time>
      </trkpt>
      <trkpt lat="43.7049" lon="7.0797">
        <ele>208.80000305176</ele>
        <time>2014-04-20T08:50:50.000Z</time>
      </trkpt>
      <trkpt lat="43.70485" lon="7.07969">
        <ele>207.39999389648</ele>
        <time>2014-04-20T08:50:58.000Z</time>
      </trkpt>
      <trkpt lat="43.7048" lon="7.07967">
        <ele>206.39999389648</ele>
        <time>2014-04-20T08:51:04.000Z</time>
      </trkpt>
      <trkpt lat="43.70472" lon="7.07968">
        <ele>206.39999389648</ele>
        <time>2014-04-20T08:51:12.000Z</time>
      </trkpt>
      <trkpt lat="43.70469" lon="7.0797">
        <ele>206.39999389648</ele>
        <time>2014-04-20T08:51:15.000Z</time>
      </trkpt>
      <trkpt lat="43.70461" lon="7.07969">
        <ele>204.80000305176</ele>
        <time>2014-04-20T08:51:22.000Z</time>
      </trkpt>
      <trkpt lat="43.70454" lon="7.0797">
        <ele>204.39999389648</ele>
        <time>2014-04-20T08:51:27.000Z</time>
      </trkpt>
      <trkpt lat="43.70442" lon="7.07962">
        <ele>204.39999389648</ele>
        <time>2014-04-20T08:51:31.000Z</time>
      </trkpt>
      <trkpt lat="43.70426" lon="7.0796">
        <ele>204.80000305176</ele>
        <time>2014-04-20T08:51:37.000Z</time>
      </trkpt>
      <trkpt lat="43.70422" lon="7.0796">
        <ele>204.39999389648</ele>
        <time>2014-04-20T08:51:39.000Z</time>
      </trkpt>
      <trkpt lat="43.70418" lon="7.07962">
        <ele>204.80000305176</ele>
        <time>2014-04-20T08:51:44.000Z</time>
      </trkpt>
      <trkpt lat="43.70414" lon="7.07963">
        <ele>206.39999389648</ele>
        <time>2014-04-20T08:51:50.000Z</time>
      </trkpt>
      <trkpt lat="43.70409" lon="7.07964">
        <ele>208.19999694824</ele>
        <time>2014-04-20T08:51:57.000Z</time>
      </trkpt>
      <trkpt lat="43.70408" lon="7.07964">
        <ele>208.19999694824</ele>
        <time>2014-04-20T08:51:59.000Z</time>
      </trkpt>
      <trkpt lat="43.704" lon="7.07961">
        <ele>208.19999694824</ele>
        <time>2014-04-20T08:52:05.000Z</time>
      </trkpt>
      <trkpt lat="43.70393" lon="7.07958">
        <ele>208.80000305176</ele>
        <time>2014-04-20T08:52:10.000Z</time>
      </trkpt>
      <trkpt lat="43.70384" lon="7.07952">
        <ele>208.19999694824</ele>
        <time>2014-04-20T08:52:16.000Z</time>
      </trkpt>
      <trkpt lat="43.70375" lon="7.07944">
        <ele>209.19999694824</ele>
        <time>2014-04-20T08:52:21.000Z</time>
      </trkpt>
      <trkpt lat="43.70367" lon="7.07935">
        <ele>209.80000305176</ele>
        <time>2014-04-20T08:52:24.000Z</time>
      </trkpt>
      <trkpt lat="43.70351" lon="7.0792">
        <ele>209.80000305176</ele>
        <time>2014-04-20T08:52:31.000Z</time>
      </trkpt>
      <trkpt lat="43.70334" lon="7.07918">
        <ele>207.80000305176</ele>
        <time>2014-04-20T08:52:37.000Z</time>
      </trkpt>
      <trkpt lat="43.70321" lon="7.07912">
        <ele>207.80000305176</ele>
        <time>2014-04-20T08:52:41.000Z</time>
      </trkpt>
      <trkpt lat="43.70307" lon="7.07904">
        <ele>208.19999694824</ele>
        <time>2014-04-20T08:52:47.000Z</time>
      </trkpt>
      <trkpt lat="43.70298" lon="7.07896">
        <ele>209.19999694824</ele>
        <time>2014-04-20T08:52:51.000Z</time>
      </trkpt>
      <trkpt lat="43.70286" lon="7.07886">
        <ele>209.80000305176</ele>
        <time>2014-04-20T08:52:56.000Z</time>
      </trkpt>
      <trkpt lat="43.70281" lon="7.07887">
        <ele>209.80000305176</ele>
        <time>2014-04-20T08:53:00.000Z</time>
      </trkpt>
      <trkpt lat="43.70274" lon="7.07884">
        <ele>209.80000305176</ele>
        <time>2014-04-20T08:53:06.000Z</time>
      </trkpt>
      <trkpt lat="43.7026" lon="7.07878">
        <ele>209.19999694824</ele>
        <time>2014-04-20T08:53:13.000Z</time>
      </trkpt>
      <trkpt lat="43.70257" lon="7.07877">
        <ele>209.19999694824</ele>
        <time>2014-04-20T08:53:15.000Z</time>
      </trkpt>
      <trkpt lat="43.70253" lon="7.07874">
        <ele>209.80000305176</ele>
        <time>2014-04-20T08:53:22.000Z</time>
      </trkpt>
      <trkpt lat="43.70249" lon="7.07872">
        <ele>210.19999694824</ele>
        <time>2014-04-20T08:53:28.000Z</time>
      </trkpt>
      <trkpt lat="43.70248" lon="7.0787">
        <ele>209.80000305176</ele>
        <time>2014-04-20T08:53:34.000Z</time>
      </trkpt>
      <trkpt lat="43.70244" lon="7.07869">
        <ele>209.19999694824</ele>
        <time>2014-04-20T08:53:39.000Z</time>
      </trkpt>
      <trkpt lat="43.7024" lon="7.07868">
        <ele>209.80000305176</ele>
        <time>2014-04-20T08:53:44.000Z</time>
      </trkpt>
      <trkpt lat="43.70239" lon="7.07868">
        <ele>209.80000305176</ele>
        <time>2014-04-20T08:53:45.000Z</time>
      </trkpt>
      <trkpt lat="43.70236" lon="7.07866">
        <ele>208.80000305176</ele>
        <time>2014-04-20T08:53:50.000Z</time>
      </trkpt>
      <trkpt lat="43.70233" lon="7.07867">
        <ele>208.19999694824</ele>
        <time>2014-04-20T08:53:55.000Z</time>
      </trkpt>
      <trkpt lat="43.70232" lon="7.07867">
        <ele>208.19999694824</ele>
        <time>2014-04-20T08:53:56.000Z</time>
      </trkpt>
      <trkpt lat="43.70224" lon="7.07862">
        <ele>208.19999694824</ele>
        <time>2014-04-20T08:54:01.000Z</time>
      </trkpt>
      <trkpt lat="43.70217" lon="7.07855">
        <ele>208.19999694824</ele>
        <time>2014-04-20T08:54:06.000Z</time>
      </trkpt>
      <trkpt lat="43.7021" lon="7.07845">
        <ele>209.19999694824</ele>
        <time>2014-04-20T08:54:11.000Z</time>
      </trkpt>
      <trkpt lat="43.702" lon="7.07833">
        <ele>209.80000305176</ele>
        <time>2014-04-20T08:54:17.000Z</time>
      </trkpt>
      <trkpt lat="43.70194" lon="7.07822">
        <ele>209.80000305176</ele>
        <time>2014-04-20T08:54:21.000Z</time>
      </trkpt>
      <trkpt lat="43.70188" lon="7.07812">
        <ele>209.19999694824</ele>
        <time>2014-04-20T08:54:25.000Z</time>
      </trkpt>
      <trkpt lat="43.70185" lon="7.07801">
        <ele>208.19999694824</ele>
        <time>2014-04-20T08:54:28.000Z</time>
      </trkpt>
      <trkpt lat="43.70176" lon="7.07791">
        <ele>207.80000305176</ele>
        <time>2014-04-20T08:54:32.000Z</time>
      </trkpt>
      <trkpt lat="43.70174" lon="7.0779">
        <ele>207.39999389648</ele>
        <time>2014-04-20T08:54:33.000Z</time>
      </trkpt>
      <trkpt lat="43.70169" lon="7.07788">
        <ele>206.80000305176</ele>
        <time>2014-04-20T08:54:35.000Z</time>
      </trkpt>
      <trkpt lat="43.70168" lon="7.07788">
        <ele>206.39999389648</ele>
        <time>2014-04-20T08:54:37.000Z</time>
      </trkpt>
      <trkpt lat="43.70164" lon="7.07787">
        <ele>204.80000305176</ele>
        <time>2014-04-20T08:54:42.000Z</time>
      </trkpt>
      <trkpt lat="43.7016" lon="7.07787">
        <ele>202.39999389648</ele>
        <time>2014-04-20T08:54:49.000Z</time>
      </trkpt>
      <trkpt lat="43.70156" lon="7.07789">
        <ele>200</ele>
        <time>2014-04-20T08:54:56.000Z</time>
      </trkpt>
      <trkpt lat="43.70151" lon="7.07789">
        <ele>198.60000610352</ele>
        <time>2014-04-20T08:55:00.000Z</time>
      </trkpt>
      <trkpt lat="43.70149" lon="7.07789">
        <ele>197.19999694824</ele>
        <time>2014-04-20T08:55:05.000Z</time>
      </trkpt>
      <trkpt lat="43.70142" lon="7.07788">
        <ele>195.19999694824</ele>
        <time>2014-04-20T08:55:12.000Z</time>
      </trkpt>
      <trkpt lat="43.70133" lon="7.07785">
        <ele>193.80000305176</ele>
        <time>2014-04-20T08:55:15.000Z</time>
      </trkpt>
      <trkpt lat="43.70122" lon="7.07779">
        <ele>192</ele>
        <time>2014-04-20T08:55:20.000Z</time>
      </trkpt>
      <trkpt lat="43.70114" lon="7.07773">
        <ele>192</ele>
        <time>2014-04-20T08:55:23.000Z</time>
      </trkpt>
      <trkpt lat="43.70108" lon="7.07765">
        <ele>192.39999389648</ele>
        <time>2014-04-20T08:55:28.000Z</time>
      </trkpt>
      <trkpt lat="43.70104" lon="7.07756">
        <ele>192</ele>
        <time>2014-04-20T08:55:33.000Z</time>
      </trkpt>
      <trkpt lat="43.70101" lon="7.07754">
        <ele>191</ele>
        <time>2014-04-20T08:55:40.000Z</time>
      </trkpt>
      <trkpt lat="43.70099" lon="7.07749">
        <ele>189.60000610352</ele>
        <time>2014-04-20T08:55:52.000Z</time>
      </trkpt>
      <trkpt lat="43.70095" lon="7.07742">
        <ele>188</ele>
        <time>2014-04-20T08:55:57.000Z</time>
      </trkpt>
      <trkpt lat="43.70093" lon="7.07741">
        <ele>187.60000610352</ele>
        <time>2014-04-20T08:55:58.000Z</time>
      </trkpt>
      <trkpt lat="43.70088" lon="7.07732">
        <ele>187.60000610352</ele>
        <time>2014-04-20T08:56:03.000Z</time>
      </trkpt>
      <trkpt lat="43.7008" lon="7.07721">
        <ele>186.60000610352</ele>
        <time>2014-04-20T08:56:07.000Z</time>
      </trkpt>
      <trkpt lat="43.70071" lon="7.07719">
        <ele>187.19999694824</ele>
        <time>2014-04-20T08:56:11.000Z</time>
      </trkpt>
      <trkpt lat="43.70063" lon="7.07713">
        <ele>186.60000610352</ele>
        <time>2014-04-20T08:56:16.000Z</time>
      </trkpt>
      <trkpt lat="43.70048" lon="7.07693">
        <ele>186.60000610352</ele>
        <time>2014-04-20T08:56:21.000Z</time>
      </trkpt>
      <trkpt lat="43.70034" lon="7.07675">
        <ele>186.60000610352</ele>
        <time>2014-04-20T08:56:25.000Z</time>
      </trkpt>
      <trkpt lat="43.70027" lon="7.07659">
        <ele>186.60000610352</ele>
        <time>2014-04-20T08:56:28.000Z</time>
      </trkpt>
      <trkpt lat="43.70023" lon="7.07644">
        <ele>186.60000610352</ele>
        <time>2014-04-20T08:56:30.000Z</time>
      </trkpt>
      <trkpt lat="43.70015" lon="7.07612">
        <ele>185.60000610352</ele>
        <time>2014-04-20T08:56:34.000Z</time>
      </trkpt>
      <trkpt lat="43.70011" lon="7.07597">
        <ele>184.19999694824</ele>
        <time>2014-04-20T08:56:36.000Z</time>
      </trkpt>
      <trkpt lat="43.69999" lon="7.0758">
        <ele>182.39999389648</ele>
        <time>2014-04-20T08:56:41.000Z</time>
      </trkpt>
      <trkpt lat="43.69996" lon="7.0758">
        <ele>180.80000305176</ele>
        <time>2014-04-20T08:56:45.000Z</time>
      </trkpt>
      <trkpt lat="43.69991" lon="7.0758">
        <ele>179</ele>
        <time>2014-04-20T08:56:49.000Z</time>
      </trkpt>
      <trkpt lat="43.69986" lon="7.0758">
        <ele>178.39999389648</ele>
        <time>2014-04-20T08:56:55.000Z</time>
      </trkpt>
      <trkpt lat="43.69984" lon="7.0758">
        <ele>178</ele>
        <time>2014-04-20T08:56:57.000Z</time>
      </trkpt>
      <trkpt lat="43.69974" lon="7.07581">
        <ele>176</ele>
        <time>2014-04-20T08:57:04.000Z</time>
      </trkpt>
      <trkpt lat="43.69972" lon="7.07582">
        <ele>176</ele>
        <time>2014-04-20T08:57:06.000Z</time>
      </trkpt>
      <trkpt lat="43.69968" lon="7.07582">
        <ele>175</ele>
        <time>2014-04-20T08:57:12.000Z</time>
      </trkpt>
      <trkpt lat="43.69957" lon="7.07586">
        <ele>173.19999694824</ele>
        <time>2014-04-20T08:57:19.000Z</time>
      </trkpt>
      <trkpt lat="43.69955" lon="7.07586">
        <ele>173.19999694824</ele>
        <time>2014-04-20T08:57:20.000Z</time>
      </trkpt>
      <trkpt lat="43.69941" lon="7.07586">
        <ele>172.19999694824</ele>
        <time>2014-04-20T08:57:25.000Z</time>
      </trkpt>
      <trkpt lat="43.69929" lon="7.0759">
        <ele>171.80000305176</ele>
        <time>2014-04-20T08:57:30.000Z</time>
      </trkpt>
      <trkpt lat="43.69915" lon="7.07596">
        <ele>172.19999694824</ele>
        <time>2014-04-20T08:57:36.000Z</time>
      </trkpt>
      <trkpt lat="43.69907" lon="7.07605">
        <ele>172.19999694824</ele>
        <time>2014-04-20T08:57:41.000Z</time>
      </trkpt>
      <trkpt lat="43.69901" lon="7.07615">
        <ele>171.80000305176</ele>
        <time>2014-04-20T08:57:46.000Z</time>
      </trkpt>
      <trkpt lat="43.69894" lon="7.07622">
        <ele>171.19999694824</ele>
        <time>2014-04-20T08:57:53.000Z</time>
      </trkpt>
      <trkpt lat="43.69889" lon="7.07629">
        <ele>171.19999694824</ele>
        <time>2014-04-20T08:57:59.000Z</time>
      </trkpt>
      <trkpt lat="43.69886" lon="7.07633">
        <ele>171.80000305176</ele>
        <time>2014-04-20T08:58:03.000Z</time>
      </trkpt>
      <trkpt lat="43.69881" lon="7.07641">
        <ele>171.80000305176</ele>
        <time>2014-04-20T08:58:09.000Z</time>
      </trkpt>
      <trkpt lat="43.69878" lon="7.07648">
        <ele>171.19999694824</ele>
        <time>2014-04-20T08:58:14.000Z</time>
      </trkpt>
      <trkpt lat="43.6987" lon="7.07653">
        <ele>169.80000305176</ele>
        <time>2014-04-20T08:58:19.000Z</time>
      </trkpt>
      <trkpt lat="43.69862" lon="7.07659">
        <ele>168.80000305176</ele>
        <time>2014-04-20T08:58:23.000Z</time>
      </trkpt>
      <trkpt lat="43.69846" lon="7.07668">
        <ele>167.80000305176</ele>
        <time>2014-04-20T08:58:29.000Z</time>
      </trkpt>
      <trkpt lat="43.69844" lon="7.0767">
        <ele>167.80000305176</ele>
        <time>2014-04-20T08:58:30.000Z</time>
      </trkpt>
      <trkpt lat="43.69839" lon="7.07677">
        <ele>167.80000305176</ele>
        <time>2014-04-20T08:58:34.000Z</time>
      </trkpt>
      <trkpt lat="43.69829" lon="7.07682">
        <ele>166</ele>
        <time>2014-04-20T08:58:40.000Z</time>
      </trkpt>
      <trkpt lat="43.69825" lon="7.07684">
        <ele>166.39999389648</ele>
        <time>2014-04-20T08:58:43.000Z</time>
      </trkpt>
      <trkpt lat="43.69814" lon="7.07687">
        <ele>166.39999389648</ele>
        <time>2014-04-20T08:58:50.000Z</time>
      </trkpt>
      <trkpt lat="43.69803" lon="7.07688">
        <ele>167.39999389648</ele>
        <time>2014-04-20T08:58:57.000Z</time>
      </trkpt>
      <trkpt lat="43.6979" lon="7.07687">
        <ele>168.39999389648</ele>
        <time>2014-04-20T08:59:05.000Z</time>
      </trkpt>
      <trkpt lat="43.69781" lon="7.07691">
        <ele>168.39999389648</ele>
        <time>2014-04-20T08:59:12.000Z</time>
      </trkpt>
      <trkpt lat="43.6977" lon="7.07694">
        <ele>169.80000305176</ele>
        <time>2014-04-20T08:59:20.000Z</time>
      </trkpt>
      <trkpt lat="43.69766" lon="7.07696">
        <ele>170.19999694824</ele>
        <time>2014-04-20T08:59:23.000Z</time>
      </trkpt>
      <trkpt lat="43.69756" lon="7.07701">
        <ele>171.19999694824</ele>
        <time>2014-04-20T08:59:30.000Z</time>
      </trkpt>
      <trkpt lat="43.69749" lon="7.07708">
        <ele>174.19999694824</ele>
        <time>2014-04-20T08:59:37.000Z</time>
      </trkpt>
      <trkpt lat="43.69743" lon="7.07712">
        <ele>175.60000610352</ele>
        <time>2014-04-20T08:59:40.000Z</time>
      </trkpt>
      <trkpt lat="43.69733" lon="7.07721">
        <ele>178</ele>
        <time>2014-04-20T08:59:46.000Z</time>
      </trkpt>
      <trkpt lat="43.69722" lon="7.07731">
        <ele>180.39999389648</ele>
        <time>2014-04-20T08:59:52.000Z</time>
      </trkpt>
      <trkpt lat="43.69715" lon="7.0774">
        <ele>181.80000305176</ele>
        <time>2014-04-20T08:59:58.000Z</time>
      </trkpt>
      <trkpt lat="43.69708" lon="7.07747">
        <ele>183.80000305176</ele>
        <time>2014-04-20T09:00:03.000Z</time>
      </trkpt>
      <trkpt lat="43.69699" lon="7.07758">
        <ele>185.60000610352</ele>
        <time>2014-04-20T09:00:09.000Z</time>
      </trkpt>
      <trkpt lat="43.69694" lon="7.07765">
        <ele>186.60000610352</ele>
        <time>2014-04-20T09:00:14.000Z</time>
      </trkpt>
      <trkpt lat="43.6969" lon="7.0777">
        <ele>187.19999694824</ele>
        <time>2014-04-20T09:00:17.000Z</time>
      </trkpt>
      <trkpt lat="43.6968" lon="7.07778">
        <ele>189</ele>
        <time>2014-04-20T09:00:24.000Z</time>
      </trkpt>
      <trkpt lat="43.69675" lon="7.07783">
        <ele>190.39999389648</ele>
        <time>2014-04-20T09:00:29.000Z</time>
      </trkpt>
      <trkpt lat="43.69673" lon="7.07785">
        <ele>191</ele>
        <time>2014-04-20T09:00:31.000Z</time>
      </trkpt>
      <trkpt lat="43.6966" lon="7.07792">
        <ele>192.80000305176</ele>
        <time>2014-04-20T09:00:38.000Z</time>
      </trkpt>
      <trkpt lat="43.6965" lon="7.07801">
        <ele>194.39999389648</ele>
        <time>2014-04-20T09:00:45.000Z</time>
      </trkpt>
      <trkpt lat="43.69637" lon="7.07806">
        <ele>196.19999694824</ele>
        <time>2014-04-20T09:00:51.000Z</time>
      </trkpt>
      <trkpt lat="43.69623" lon="7.07808">
        <ele>197.19999694824</ele>
        <time>2014-04-20T09:00:58.000Z</time>
      </trkpt>
      <trkpt lat="43.69612" lon="7.07807">
        <ele>199.19999694824</ele>
        <time>2014-04-20T09:01:04.000Z</time>
      </trkpt>
      <trkpt lat="43.696" lon="7.07807">
        <ele>201.60000610352</ele>
        <time>2014-04-20T09:01:10.000Z</time>
      </trkpt>
      <trkpt lat="43.69591" lon="7.07807">
        <ele>203.39999389648</ele>
        <time>2014-04-20T09:01:16.000Z</time>
      </trkpt>
      <trkpt lat="43.69579" lon="7.0781">
        <ele>206.39999389648</ele>
        <time>2014-04-20T09:01:23.000Z</time>
      </trkpt>
      <trkpt lat="43.6957" lon="7.07809">
        <ele>206.80000305176</ele>
        <time>2014-04-20T09:01:29.000Z</time>
      </trkpt>
      <trkpt lat="43.69556" lon="7.07811">
        <ele>208.80000305176</ele>
        <time>2014-04-20T09:01:37.000Z</time>
      </trkpt>
      <trkpt lat="43.69549" lon="7.07816">
        <ele>210.19999694824</ele>
        <time>2014-04-20T09:01:43.000Z</time>
      </trkpt>
      <trkpt lat="43.69543" lon="7.07819">
        <ele>210.60000610352</ele>
        <time>2014-04-20T09:01:48.000Z</time>
      </trkpt>
      <trkpt lat="43.69539" lon="7.07822">
        <ele>211.19999694824</ele>
        <time>2014-04-20T09:01:51.000Z</time>
      </trkpt>
      <trkpt lat="43.69535" lon="7.07827">
        <ele>211.60000610352</ele>
        <time>2014-04-20T09:01:55.000Z</time>
      </trkpt>
      <trkpt lat="43.69529" lon="7.07831">
        <ele>212.19999694824</ele>
        <time>2014-04-20T09:02:00.000Z</time>
      </trkpt>
      <trkpt lat="43.69524" lon="7.07836">
        <ele>212.60000610352</ele>
        <time>2014-04-20T09:02:05.000Z</time>
      </trkpt>
      <trkpt lat="43.69517" lon="7.07842">
        <ele>213</ele>
        <time>2014-04-20T09:02:12.000Z</time>
      </trkpt>
      <trkpt lat="43.69509" lon="7.07848">
        <ele>214</ele>
        <time>2014-04-20T09:02:18.000Z</time>
      </trkpt>
      <trkpt lat="43.69502" lon="7.07857">
        <ele>216</ele>
        <time>2014-04-20T09:02:24.000Z</time>
      </trkpt>
      <trkpt lat="43.69495" lon="7.07865">
        <ele>217</ele>
        <time>2014-04-20T09:02:30.000Z</time>
      </trkpt>
      <trkpt lat="43.69489" lon="7.07871">
        <ele>217.80000305176</ele>
        <time>2014-04-20T09:02:35.000Z</time>
      </trkpt>
      <trkpt lat="43.69484" lon="7.07877">
        <ele>218.80000305176</ele>
        <time>2014-04-20T09:02:40.000Z</time>
      </trkpt>
      <trkpt lat="43.69483" lon="7.07878">
        <ele>219.39999389648</ele>
        <time>2014-04-20T09:02:41.000Z</time>
      </trkpt>
      <trkpt lat="43.69479" lon="7.07883">
        <ele>219.39999389648</ele>
        <time>2014-04-20T09:02:45.000Z</time>
      </trkpt>
      <trkpt lat="43.69471" lon="7.0789">
        <ele>218.80000305176</ele>
        <time>2014-04-20T09:02:50.000Z</time>
      </trkpt>
      <trkpt lat="43.69463" lon="7.07899">
        <ele>218.80000305176</ele>
        <time>2014-04-20T09:02:53.000Z</time>
      </trkpt>
      <trkpt lat="43.69448" lon="7.07921">
        <ele>218.39999389648</ele>
        <time>2014-04-20T09:02:59.000Z</time>
      </trkpt>
      <trkpt lat="43.69446" lon="7.07923">
        <ele>218.39999389648</ele>
        <time>2014-04-20T09:03:00.000Z</time>
      </trkpt>
      <trkpt lat="43.69441" lon="7.07933">
        <ele>216.39999389648</ele>
        <time>2014-04-20T09:03:04.000Z</time>
      </trkpt>
      <trkpt lat="43.69432" lon="7.07946">
        <ele>216</ele>
        <time>2014-04-20T09:03:07.000Z</time>
      </trkpt>
      <trkpt lat="43.69427" lon="7.07951">
        <ele>215.39999389648</ele>
        <time>2014-04-20T09:03:08.000Z</time>
      </trkpt>
      <trkpt lat="43.69427" lon="7.07951">
        <ele>215.39999389648</ele>
        <time>2014-04-20T09:03:08.000Z</time>
      </trkpt>
      <trkpt lat="43.69408" lon="7.0796">
        <ele>216.39999389648</ele>
        <time>2014-04-20T09:03:12.000Z</time>
      </trkpt>
      <trkpt lat="43.69395" lon="7.07964">
        <ele>218.39999389648</ele>
        <time>2014-04-20T09:03:16.000Z</time>
      </trkpt>
      <trkpt lat="43.69373" lon="7.07965">
        <ele>219.39999389648</ele>
        <time>2014-04-20T09:03:23.000Z</time>
      </trkpt>
      <trkpt lat="43.69364" lon="7.07967">
        <ele>219.39999389648</ele>
        <time>2014-04-20T09:03:27.000Z</time>
      </trkpt>
      <trkpt lat="43.69355" lon="7.07966">
        <ele>219.80000305176</ele>
        <time>2014-04-20T09:03:31.000Z</time>
      </trkpt>
      <trkpt lat="43.69347" lon="7.07966">
        <ele>219.80000305176</ele>
        <time>2014-04-20T09:03:35.000Z</time>
      </trkpt>
      <trkpt lat="43.69332" lon="7.0796">
        <ele>222.60000610352</ele>
        <time>2014-04-20T09:03:42.000Z</time>
      </trkpt>
      <trkpt lat="43.69318" lon="7.07955">
        <ele>223.60000610352</ele>
        <time>2014-04-20T09:03:48.000Z</time>
      </trkpt>
      <trkpt lat="43.69303" lon="7.07953">
        <ele>225.60000610352</ele>
        <time>2014-04-20T09:03:53.000Z</time>
      </trkpt>
      <trkpt lat="43.69291" lon="7.07959">
        <ele>226.60000610352</ele>
        <time>2014-04-20T09:03:57.000Z</time>
      </trkpt>
      <trkpt lat="43.69288" lon="7.07961">
        <ele>226.60000610352</ele>
        <time>2014-04-20T09:03:58.000Z</time>
      </trkpt>
      <trkpt lat="43.69271" lon="7.07954">
        <ele>227</ele>
        <time>2014-04-20T09:04:03.000Z</time>
      </trkpt>
      <trkpt lat="43.69253" lon="7.07945">
        <ele>227.39999389648</ele>
        <time>2014-04-20T09:04:07.000Z</time>
      </trkpt>
      <trkpt lat="43.69224" lon="7.07939">
        <ele>228</ele>
        <time>2014-04-20T09:04:12.000Z</time>
      </trkpt>
      <trkpt lat="43.69211" lon="7.07938">
        <ele>228.39999389648</ele>
        <time>2014-04-20T09:04:14.000Z</time>
      </trkpt>
      <trkpt lat="43.69183" lon="7.07943">
        <ele>228</ele>
        <time>2014-04-20T09:04:18.000Z</time>
      </trkpt>
      <trkpt lat="43.6915" lon="7.07949">
        <ele>227</ele>
        <time>2014-04-20T09:04:23.000Z</time>
      </trkpt>
      <trkpt lat="43.69146" lon="7.07947">
        <ele>226.60000610352</ele>
        <time>2014-04-20T09:04:24.000Z</time>
      </trkpt>
      <trkpt lat="43.6913" lon="7.07934">
        <ele>226.60000610352</ele>
        <time>2014-04-20T09:04:28.000Z</time>
      </trkpt>
      <trkpt lat="43.69106" lon="7.07918">
        <ele>227</ele>
        <time>2014-04-20T09:04:33.000Z</time>
      </trkpt>
      <trkpt lat="43.69092" lon="7.07911">
        <ele>225.60000610352</ele>
        <time>2014-04-20T09:04:37.000Z</time>
      </trkpt>
      <trkpt lat="43.69089" lon="7.07924">
        <ele>224.60000610352</ele>
        <time>2014-04-20T09:04:40.000Z</time>
      </trkpt>
      <trkpt lat="43.69078" lon="7.07938">
        <ele>223.19999694824</ele>
        <time>2014-04-20T09:04:43.000Z</time>
      </trkpt>
      <trkpt lat="43.69063" lon="7.0795">
        <ele>221.80000305176</ele>
        <time>2014-04-20T09:04:46.000Z</time>
      </trkpt>
      <trkpt lat="43.69048" lon="7.07954">
        <ele>219.80000305176</ele>
        <time>2014-04-20T09:04:49.000Z</time>
      </trkpt>
      <trkpt lat="43.69037" lon="7.07949">
        <ele>217.39999389648</ele>
        <time>2014-04-20T09:04:52.000Z</time>
      </trkpt>
      <trkpt lat="43.69035" lon="7.07929">
        <ele>217</ele>
        <time>2014-04-20T09:04:55.000Z</time>
      </trkpt>
      <trkpt lat="43.69029" lon="7.07921">
        <ele>216</ele>
        <time>2014-04-20T09:04:57.000Z</time>
      </trkpt>
      <trkpt lat="43.69018" lon="7.07925">
        <ele>214</ele>
        <time>2014-04-20T09:04:59.000Z</time>
      </trkpt>
      <trkpt lat="43.69002" lon="7.07927">
        <ele>211.60000610352</ele>
        <time>2014-04-20T09:05:01.000Z</time>
      </trkpt>
      <trkpt lat="43.68982" lon="7.07915">
        <ele>208.19999694824</ele>
        <time>2014-04-20T09:05:04.000Z</time>
      </trkpt>
      <trkpt lat="43.68975" lon="7.07887">
        <ele>206.80000305176</ele>
        <time>2014-04-20T09:05:07.000Z</time>
      </trkpt>
      <trkpt lat="43.68975" lon="7.0786">
        <ele>205.80000305176</ele>
        <time>2014-04-20T09:05:10.000Z</time>
      </trkpt>
      <trkpt lat="43.6897" lon="7.07834">
        <ele>204.80000305176</ele>
        <time>2014-04-20T09:05:13.000Z</time>
      </trkpt>
      <trkpt lat="43.68975" lon="7.07819">
        <ele>204.80000305176</ele>
        <time>2014-04-20T09:05:15.000Z</time>
      </trkpt>
      <trkpt lat="43.68979" lon="7.07805">
        <ele>204</ele>
        <time>2014-04-20T09:05:18.000Z</time>
      </trkpt>
      <trkpt lat="43.68978" lon="7.07787">
        <ele>204</ele>
        <time>2014-04-20T09:05:21.000Z</time>
      </trkpt>
      <trkpt lat="43.68979" lon="7.07785">
        <ele>204</ele>
        <time>2014-04-20T09:05:22.000Z</time>
      </trkpt>
      <trkpt lat="43.68983" lon="7.07776">
        <ele>203.39999389648</ele>
        <time>2014-04-20T09:05:24.000Z</time>
      </trkpt>
      <trkpt lat="43.68986" lon="7.07749">
        <ele>202</ele>
        <time>2014-04-20T09:05:28.000Z</time>
      </trkpt>
      <trkpt lat="43.68987" lon="7.07736">
        <ele>201.60000610352</ele>
        <time>2014-04-20T09:05:30.000Z</time>
      </trkpt>
      <trkpt lat="43.68984" lon="7.0772">
        <ele>200.60000610352</ele>
        <time>2014-04-20T09:05:33.000Z</time>
      </trkpt>
      <trkpt lat="43.68982" lon="7.07707">
        <ele>200</ele>
        <time>2014-04-20T09:05:35.000Z</time>
      </trkpt>
      <trkpt lat="43.68984" lon="7.07683">
        <ele>199.19999694824</ele>
        <time>2014-04-20T09:05:39.000Z</time>
      </trkpt>
      <trkpt lat="43.68986" lon="7.07666">
        <ele>195.80000305176</ele>
        <time>2014-04-20T09:05:43.000Z</time>
      </trkpt>
      <trkpt lat="43.68989" lon="7.07666">
        <ele>193.80000305176</ele>
        <time>2014-04-20T09:05:46.000Z</time>
      </trkpt>
      <trkpt lat="43.68993" lon="7.07664">
        <ele>191.39999389648</ele>
        <time>2014-04-20T09:05:50.000Z</time>
      </trkpt>
      <trkpt lat="43.68993" lon="7.07659">
        <ele>191</ele>
        <time>2014-04-20T09:05:51.000Z</time>
      </trkpt>
      <trkpt lat="43.68992" lon="7.07612">
        <ele>187.19999694824</ele>
        <time>2014-04-20T09:05:56.000Z</time>
      </trkpt>
      <trkpt lat="43.68988" lon="7.07577">
        <ele>184.19999694824</ele>
        <time>2014-04-20T09:05:59.000Z</time>
      </trkpt>
      <trkpt lat="43.68985" lon="7.07565">
        <ele>180.80000305176</ele>
        <time>2014-04-20T09:06:02.000Z</time>
      </trkpt>
      <trkpt lat="43.68985" lon="7.07561">
        <ele>180</ele>
        <time>2014-04-20T09:06:03.000Z</time>
      </trkpt>
      <trkpt lat="43.68984" lon="7.07551">
        <ele>176.60000610352</ele>
        <time>2014-04-20T09:06:05.000Z</time>
      </trkpt>
      <trkpt lat="43.68981" lon="7.07543">
        <ele>170.80000305176</ele>
        <time>2014-04-20T09:06:08.000Z</time>
      </trkpt>
      <trkpt lat="43.68973" lon="7.07535">
        <ele>166</ele>
        <time>2014-04-20T09:06:12.000Z</time>
      </trkpt>
      <trkpt lat="43.68964" lon="7.07521">
        <ele>162.60000610352</ele>
        <time>2014-04-20T09:06:15.000Z</time>
      </trkpt>
      <trkpt lat="43.68943" lon="7.07508">
        <ele>156.39999389648</ele>
        <time>2014-04-20T09:06:19.000Z</time>
      </trkpt>
      <trkpt lat="43.68925" lon="7.07496">
        <ele>153</ele>
        <time>2014-04-20T09:06:22.000Z</time>
      </trkpt>
      <trkpt lat="43.68904" lon="7.07477">
        <ele>148.19999694824</ele>
        <time>2014-04-20T09:06:27.000Z</time>
      </trkpt>
      <trkpt lat="43.68888" lon="7.07449">
        <ele>144.39999389648</ele>
        <time>2014-04-20T09:06:32.000Z</time>
      </trkpt>
      <trkpt lat="43.68885" lon="7.07443">
        <ele>143.39999389648</ele>
        <time>2014-04-20T09:06:33.000Z</time>
      </trkpt>
      <trkpt lat="43.68885" lon="7.07443">
        <ele>143.39999389648</ele>
        <time>2014-04-20T09:06:33.000Z</time>
      </trkpt>
      <trkpt lat="43.68873" lon="7.07412">
        <ele>137.60000610352</ele>
        <time>2014-04-20T09:06:38.000Z</time>
      </trkpt>
      <trkpt lat="43.68865" lon="7.07388">
        <ele>131.80000305176</ele>
        <time>2014-04-20T09:06:43.000Z</time>
      </trkpt>
      <trkpt lat="43.68862" lon="7.07375">
        <ele>130</ele>
        <time>2014-04-20T09:06:45.000Z</time>
      </trkpt>
      <trkpt lat="43.68854" lon="7.07346">
        <ele>127</ele>
        <time>2014-04-20T09:06:49.000Z</time>
      </trkpt>
      <trkpt lat="43.6885" lon="7.07316">
        <ele>123.19999694824</ele>
        <time>2014-04-20T09:06:53.000Z</time>
      </trkpt>
      <trkpt lat="43.68848" lon="7.07299">
        <ele>118.40000152588</ele>
        <time>2014-04-20T09:06:56.000Z</time>
      </trkpt>
      <trkpt lat="43.68839" lon="7.0729">
        <ele>111.19999694824</ele>
        <time>2014-04-20T09:06:59.000Z</time>
      </trkpt>
      <trkpt lat="43.68834" lon="7.07289">
        <ele>108.80000305176</ele>
        <time>2014-04-20T09:07:00.000Z</time>
      </trkpt>
      <trkpt lat="43.68816" lon="7.07291">
        <ele>100.59999847412</ele>
        <time>2014-04-20T09:07:04.000Z</time>
      </trkpt>
      <trkpt lat="43.6881" lon="7.07287">
        <ele>95.400001525879</ele>
        <time>2014-04-20T09:07:08.000Z</time>
      </trkpt>
      <trkpt lat="43.68803" lon="7.07285">
        <ele>92.400001525879</ele>
        <time>2014-04-20T09:07:11.000Z</time>
      </trkpt>
      <trkpt lat="43.68799" lon="7.07277">
        <ele>88.599998474121</ele>
        <time>2014-04-20T09:07:14.000Z</time>
      </trkpt>
      <trkpt lat="43.68794" lon="7.0727">
        <ele>85.599998474121</ele>
        <time>2014-04-20T09:07:17.000Z</time>
      </trkpt>
      <trkpt lat="43.68792" lon="7.07268">
        <ele>84.800003051758</ele>
        <time>2014-04-20T09:07:18.000Z</time>
      </trkpt>
      <trkpt lat="43.68783" lon="7.07252">
        <ele>77.599998474121</ele>
        <time>2014-04-20T09:07:23.000Z</time>
      </trkpt>
      <trkpt lat="43.68764" lon="7.07241">
        <ele>73.599998474121</ele>
        <time>2014-04-20T09:07:28.000Z</time>
      </trkpt>
      <trkpt lat="43.68748" lon="7.07235">
        <ele>69.800003051758</ele>
        <time>2014-04-20T09:07:33.000Z</time>
      </trkpt>
      <trkpt lat="43.68727" lon="7.0723">
        <ele>67</ele>
        <time>2014-04-20T09:07:39.000Z</time>
      </trkpt>
      <trkpt lat="43.68712" lon="7.07226">
        <ele>64</ele>
        <time>2014-04-20T09:07:44.000Z</time>
      </trkpt>
      <trkpt lat="43.68692" lon="7.0722">
        <ele>61.200000762939</ele>
        <time>2014-04-20T09:07:51.000Z</time>
      </trkpt>
      <trkpt lat="43.68662" lon="7.07212">
        <ele>57.799999237061</ele>
        <time>2014-04-20T09:08:00.000Z</time>
      </trkpt>
      <trkpt lat="43.68632" lon="7.07204">
        <ele>55.799999237061</ele>
        <time>2014-04-20T09:08:08.000Z</time>
      </trkpt>
      <trkpt lat="43.68603" lon="7.07196">
        <ele>55</ele>
        <time>2014-04-20T09:08:16.000Z</time>
      </trkpt>
      <trkpt lat="43.68585" lon="7.07188">
        <ele>54.400001525879</ele>
        <time>2014-04-20T09:08:21.000Z</time>
      </trkpt>
      <trkpt lat="43.68572" lon="7.07185">
        <ele>53.400001525879</ele>
        <time>2014-04-20T09:08:25.000Z</time>
      </trkpt>
      <trkpt lat="43.68551" lon="7.07191">
        <ele>53.400001525879</ele>
        <time>2014-04-20T09:08:31.000Z</time>
      </trkpt>
      <trkpt lat="43.68527" lon="7.07207">
        <ele>54.400001525879</ele>
        <time>2014-04-20T09:08:38.000Z</time>
      </trkpt>
      <trkpt lat="43.68509" lon="7.07222">
        <ele>55.400001525879</ele>
        <time>2014-04-20T09:08:44.000Z</time>
      </trkpt>
      <trkpt lat="43.68483" lon="7.07243">
        <ele>56.400001525879</ele>
        <time>2014-04-20T09:08:52.000Z</time>
      </trkpt>
      <trkpt lat="43.68469" lon="7.07253">
        <ele>56.400001525879</ele>
        <time>2014-04-20T09:08:58.000Z</time>
      </trkpt>
      <trkpt lat="43.68448" lon="7.07272">
        <ele>57.400001525879</ele>
        <time>2014-04-20T09:09:06.000Z</time>
      </trkpt>
      <trkpt lat="43.68434" lon="7.07289">
        <ele>57.400001525879</ele>
        <time>2014-04-20T09:09:11.000Z</time>
      </trkpt>
      <trkpt lat="43.6842" lon="7.07305">
        <ele>57.400001525879</ele>
        <time>2014-04-20T09:09:16.000Z</time>
      </trkpt>
      <trkpt lat="43.68396" lon="7.07326">
        <ele>55.799999237061</ele>
        <time>2014-04-20T09:09:23.000Z</time>
      </trkpt>
      <trkpt lat="43.68371" lon="7.07346">
        <ele>55</ele>
        <time>2014-04-20T09:09:30.000Z</time>
      </trkpt>
      <trkpt lat="43.68355" lon="7.07356">
        <ele>54.400001525879</ele>
        <time>2014-04-20T09:09:35.000Z</time>
      </trkpt>
      <trkpt lat="43.6835" lon="7.07362">
        <ele>55</ele>
        <time>2014-04-20T09:09:37.000Z</time>
      </trkpt>
      <trkpt lat="43.68338" lon="7.07384">
        <ele>55</ele>
        <time>2014-04-20T09:09:42.000Z</time>
      </trkpt>
      <trkpt lat="43.68329" lon="7.07405">
        <ele>55</ele>
        <time>2014-04-20T09:09:46.000Z</time>
      </trkpt>
      <trkpt lat="43.68323" lon="7.07423">
        <ele>54.400001525879</ele>
        <time>2014-04-20T09:09:50.000Z</time>
      </trkpt>
      <trkpt lat="43.68322" lon="7.07428">
        <ele>54</ele>
        <time>2014-04-20T09:09:51.000Z</time>
      </trkpt>
      <trkpt lat="43.68309" lon="7.07451">
        <ele>53.400001525879</ele>
        <time>2014-04-20T09:09:56.000Z</time>
      </trkpt>
      <trkpt lat="43.68286" lon="7.07482">
        <ele>54</ele>
        <time>2014-04-20T09:10:03.000Z</time>
      </trkpt>
      <trkpt lat="43.68272" lon="7.0751">
        <ele>54.400001525879</ele>
        <time>2014-04-20T09:10:08.000Z</time>
      </trkpt>
      <trkpt lat="43.68267" lon="7.07521">
        <ele>54</ele>
        <time>2014-04-20T09:10:10.000Z</time>
      </trkpt>
      <trkpt lat="43.68254" lon="7.07548">
        <ele>54.400001525879</ele>
        <time>2014-04-20T09:10:15.000Z</time>
      </trkpt>
      <trkpt lat="43.68249" lon="7.07558">
        <ele>55</ele>
        <time>2014-04-20T09:10:17.000Z</time>
      </trkpt>
      <trkpt lat="43.68238" lon="7.07578">
        <ele>55</ele>
        <time>2014-04-20T09:10:21.000Z</time>
      </trkpt>
      <trkpt lat="43.68224" lon="7.07605">
        <ele>54.400001525879</ele>
        <time>2014-04-20T09:10:27.000Z</time>
      </trkpt>
      <trkpt lat="43.68219" lon="7.07614">
        <ele>54.400001525879</ele>
        <time>2014-04-20T09:10:29.000Z</time>
      </trkpt>
      <trkpt lat="43.68219" lon="7.07614">
        <ele>54.400001525879</ele>
        <time>2014-04-20T09:10:29.000Z</time>
      </trkpt>
      <trkpt lat="43.6821" lon="7.07627">
        <ele>54.400001525879</ele>
        <time>2014-04-20T09:10:32.000Z</time>
      </trkpt>
      <trkpt lat="43.6819" lon="7.07654">
        <ele>55</ele>
        <time>2014-04-20T09:10:38.000Z</time>
      </trkpt>
      <trkpt lat="43.68178" lon="7.07666">
        <ele>55</ele>
        <time>2014-04-20T09:10:41.000Z</time>
      </trkpt>
      <trkpt lat="43.68154" lon="7.07689">
        <ele>55</ele>
        <time>2014-04-20T09:10:47.000Z</time>
      </trkpt>
      <trkpt lat="43.68146" lon="7.07696">
        <ele>55.400001525879</ele>
        <time>2014-04-20T09:10:49.000Z</time>
      </trkpt>
      <trkpt lat="43.68126" lon="7.07716">
        <ele>55.400001525879</ele>
        <time>2014-04-20T09:10:54.000Z</time>
      </trkpt>
      <trkpt lat="43.68102" lon="7.07743">
        <ele>54.400001525879</ele>
        <time>2014-04-20T09:11:01.000Z</time>
      </trkpt>
      <trkpt lat="43.6808" lon="7.07779">
        <ele>54.400001525879</ele>
        <time>2014-04-20T09:11:07.000Z</time>
      </trkpt>
      <trkpt lat="43.68068" lon="7.07811">
        <ele>54</ele>
        <time>2014-04-20T09:11:13.000Z</time>
      </trkpt>
      <trkpt lat="43.68066" lon="7.07822">
        <ele>54</ele>
        <time>2014-04-20T09:11:15.000Z</time>
      </trkpt>
      <trkpt lat="43.68054" lon="7.07851">
        <ele>53</ele>
        <time>2014-04-20T09:11:20.000Z</time>
      </trkpt>
      <trkpt lat="43.68045" lon="7.07874">
        <ele>53.400001525879</ele>
        <time>2014-04-20T09:11:24.000Z</time>
      </trkpt>
      <trkpt lat="43.68026" lon="7.07915">
        <ele>52.599998474121</ele>
        <time>2014-04-20T09:11:31.000Z</time>
      </trkpt>
      <trkpt lat="43.68017" lon="7.07938">
        <ele>52.599998474121</ele>
        <time>2014-04-20T09:11:35.000Z</time>
      </trkpt>
      <trkpt lat="43.68014" lon="7.07961">
        <ele>53</ele>
        <time>2014-04-20T09:11:39.000Z</time>
      </trkpt>
      <trkpt lat="43.68017" lon="7.07982">
        <ele>53.400001525879</ele>
        <time>2014-04-20T09:11:43.000Z</time>
      </trkpt>
      <trkpt lat="43.68021" lon="7.08017">
        <ele>54</ele>
        <time>2014-04-20T09:11:51.000Z</time>
      </trkpt>
      <trkpt lat="43.68022" lon="7.08021">
        <ele>53.400001525879</ele>
        <time>2014-04-20T09:11:52.000Z</time>
      </trkpt>
      <trkpt lat="43.68016" lon="7.08026">
        <ele>53</ele>
        <time>2014-04-20T09:11:56.000Z</time>
      </trkpt>
      <trkpt lat="43.68015" lon="7.08025">
        <ele>53</ele>
        <time>2014-04-20T09:11:57.000Z</time>
      </trkpt>
      <trkpt lat="43.68014" lon="7.08022">
        <ele>52.599998474121</ele>
        <time>2014-04-20T09:11:59.000Z</time>
      </trkpt>
      <trkpt lat="43.68013" lon="7.08018">
        <ele>51.599998474121</ele>
        <time>2014-04-20T09:12:02.000Z</time>
      </trkpt>
      <trkpt lat="43.68008" lon="7.08013">
        <ele>50.599998474121</ele>
        <time>2014-04-20T09:12:08.000Z</time>
      </trkpt>
      <trkpt lat="43.68005" lon="7.08017">
        <ele>50.599998474121</ele>
        <time>2014-04-20T09:12:13.000Z</time>
      </trkpt>
      <trkpt lat="43.68001" lon="7.08025">
        <ele>51</ele>
        <time>2014-04-20T09:12:19.000Z</time>
      </trkpt>
      <trkpt lat="43.67998" lon="7.08029">
        <ele>51</ele>
        <time>2014-04-20T09:12:22.000Z</time>
      </trkpt>
      <trkpt lat="43.67991" lon="7.08033">
        <ele>51</ele>
        <time>2014-04-20T09:12:28.000Z</time>
      </trkpt>
      <trkpt lat="43.67986" lon="7.08032">
        <ele>52.599998474121</ele>
        <time>2014-04-20T09:12:34.000Z</time>
      </trkpt>
      <trkpt lat="43.67982" lon="7.08032">
        <ele>53.400001525879</ele>
        <time>2014-04-20T09:12:39.000Z</time>
      </trkpt>
      <trkpt lat="43.67974" lon="7.08032">
        <ele>55</ele>
        <time>2014-04-20T09:12:47.000Z</time>
      </trkpt>
      <trkpt lat="43.67973" lon="7.08032">
        <ele>55</ele>
        <time>2014-04-20T09:12:48.000Z</time>
      </trkpt>
      <trkpt lat="43.67969" lon="7.08034">
        <ele>56.799999237061</ele>
        <time>2014-04-20T09:12:54.000Z</time>
      </trkpt>
      <trkpt lat="43.67967" lon="7.08033">
        <ele>57.400001525879</ele>
        <time>2014-04-20T09:12:56.000Z</time>
      </trkpt>
      <trkpt lat="43.67963" lon="7.08031">
        <ele>57.799999237061</ele>
        <time>2014-04-20T09:13:00.000Z</time>
      </trkpt>
      <trkpt lat="43.67958" lon="7.08025">
        <ele>58.799999237061</ele>
        <time>2014-04-20T09:13:06.000Z</time>
      </trkpt>
      <trkpt lat="43.67956" lon="7.08021">
        <ele>59.799999237061</ele>
        <time>2014-04-20T09:13:10.000Z</time>
      </trkpt>
      <trkpt lat="43.6795" lon="7.0802">
        <ele>62.200000762939</ele>
        <time>2014-04-20T09:13:15.000Z</time>
      </trkpt>
      <trkpt lat="43.67946" lon="7.08024">
        <ele>64</ele>
        <time>2014-04-20T09:13:20.000Z</time>
      </trkpt>
      <trkpt lat="43.67946" lon="7.08027">
        <ele>65.599998474121</ele>
        <time>2014-04-20T09:13:23.000Z</time>
      </trkpt>
      <trkpt lat="43.67943" lon="7.08032">
        <ele>67</ele>
        <time>2014-04-20T09:13:27.000Z</time>
      </trkpt>
      <trkpt lat="43.67939" lon="7.08037">
        <ele>68.400001525879</ele>
        <time>2014-04-20T09:13:33.000Z</time>
      </trkpt>
      <trkpt lat="43.67934" lon="7.08043">
        <ele>70.400001525879</ele>
        <time>2014-04-20T09:13:39.000Z</time>
      </trkpt>
      <trkpt lat="43.67929" lon="7.08048">
        <ele>72.199996948242</ele>
        <time>2014-04-20T09:13:44.000Z</time>
      </trkpt>
      <trkpt lat="43.67925" lon="7.08052">
        <ele>73.599998474121</ele>
        <time>2014-04-20T09:13:48.000Z</time>
      </trkpt>
      <trkpt lat="43.67924" lon="7.08053">
        <ele>74.199996948242</ele>
        <time>2014-04-20T09:13:49.000Z</time>
      </trkpt>
      <trkpt lat="43.67917" lon="7.08057">
        <ele>76.599998474121</ele>
        <time>2014-04-20T09:13:55.000Z</time>
      </trkpt>
      <trkpt lat="43.67911" lon="7.08059">
        <ele>78.400001525879</ele>
        <time>2014-04-20T09:14:00.000Z</time>
      </trkpt>
      <trkpt lat="43.67905" lon="7.08071">
        <ele>81.800003051758</ele>
        <time>2014-04-20T09:14:07.000Z</time>
      </trkpt>
      <trkpt lat="43.67903" lon="7.08088">
        <ele>86.599998474121</ele>
        <time>2014-04-20T09:14:15.000Z</time>
      </trkpt>
      <trkpt lat="43.67903" lon="7.08092">
        <ele>87.599998474121</ele>
        <time>2014-04-20T09:14:17.000Z</time>
      </trkpt>
      <trkpt lat="43.67903" lon="7.08104">
        <ele>89</ele>
        <time>2014-04-20T09:14:23.000Z</time>
      </trkpt>
      <trkpt lat="43.67903" lon="7.08107">
        <ele>89.599998474121</ele>
        <time>2014-04-20T09:14:25.000Z</time>
      </trkpt>
      <trkpt lat="43.67903" lon="7.08124">
        <ele>92</ele>
        <time>2014-04-20T09:14:34.000Z</time>
      </trkpt>
      <trkpt lat="43.67902" lon="7.08146">
        <ele>93.800003051758</ele>
        <time>2014-04-20T09:14:45.000Z</time>
      </trkpt>
      <trkpt lat="43.67902" lon="7.0816">
        <ele>94.800003051758</ele>
        <time>2014-04-20T09:14:53.000Z</time>
      </trkpt>
      <trkpt lat="43.67901" lon="7.08173">
        <ele>95.400001525879</ele>
        <time>2014-04-20T09:15:00.000Z</time>
      </trkpt>
      <trkpt lat="43.67901" lon="7.08186">
        <ele>95.400001525879</ele>
        <time>2014-04-20T09:15:07.000Z</time>
      </trkpt>
      <trkpt lat="43.67902" lon="7.082">
        <ele>96.800003051758</ele>
        <time>2014-04-20T09:15:14.000Z</time>
      </trkpt>
      <trkpt lat="43.67903" lon="7.08215">
        <ele>98.199996948242</ele>
        <time>2014-04-20T09:15:21.000Z</time>
      </trkpt>
      <trkpt lat="43.67901" lon="7.08228">
        <ele>98.599998474121</ele>
        <time>2014-04-20T09:15:27.000Z</time>
      </trkpt>
      <trkpt lat="43.67902" lon="7.08246">
        <ele>99.599998474121</ele>
        <time>2014-04-20T09:15:36.000Z</time>
      </trkpt>
      <trkpt lat="43.679" lon="7.08259">
        <ele>99.199996948242</ele>
        <time>2014-04-20T09:15:43.000Z</time>
      </trkpt>
      <trkpt lat="43.679" lon="7.08271">
        <ele>99.199996948242</ele>
        <time>2014-04-20T09:15:50.000Z</time>
      </trkpt>
      <trkpt lat="43.67896" lon="7.08285">
        <ele>100.19999694824</ele>
        <time>2014-04-20T09:15:59.000Z</time>
      </trkpt>
      <trkpt lat="43.67891" lon="7.08294">
        <ele>99.599998474121</ele>
        <time>2014-04-20T09:16:05.000Z</time>
      </trkpt>
      <trkpt lat="43.67888" lon="7.08301">
        <ele>100.59999847412</ele>
        <time>2014-04-20T09:16:11.000Z</time>
      </trkpt>
      <trkpt lat="43.67887" lon="7.08303">
        <ele>101</ele>
        <time>2014-04-20T09:16:13.000Z</time>
      </trkpt>
      <trkpt lat="43.67883" lon="7.08308">
        <ele>101.59999847412</ele>
        <time>2014-04-20T09:16:18.000Z</time>
      </trkpt>
      <trkpt lat="43.67879" lon="7.08314">
        <ele>102</ele>
        <time>2014-04-20T09:16:24.000Z</time>
      </trkpt>
      <trkpt lat="43.67873" lon="7.08321">
        <ele>103</ele>
        <time>2014-04-20T09:16:30.000Z</time>
      </trkpt>
      <trkpt lat="43.67867" lon="7.08327">
        <ele>104</ele>
        <time>2014-04-20T09:16:36.000Z</time>
      </trkpt>
      <trkpt lat="43.6786" lon="7.08334">
        <ele>105</ele>
        <time>2014-04-20T09:16:43.000Z</time>
      </trkpt>
      <trkpt lat="43.67854" lon="7.08339">
        <ele>105</ele>
        <time>2014-04-20T09:16:49.000Z</time>
      </trkpt>
      <trkpt lat="43.6785" lon="7.08344">
        <ele>105.40000152588</ele>
        <time>2014-04-20T09:16:53.000Z</time>
      </trkpt>
      <trkpt lat="43.67845" lon="7.08353">
        <ele>106.40000152588</ele>
        <time>2014-04-20T09:16:59.000Z</time>
      </trkpt>
      <trkpt lat="43.6784" lon="7.0836">
        <ele>106.80000305176</ele>
        <time>2014-04-20T09:17:04.000Z</time>
      </trkpt>
      <trkpt lat="43.67836" lon="7.08364">
        <ele>107.40000152588</ele>
        <time>2014-04-20T09:17:09.000Z</time>
      </trkpt>
      <trkpt lat="43.67829" lon="7.08372">
        <ele>107.80000305176</ele>
        <time>2014-04-20T09:17:15.000Z</time>
      </trkpt>
      <trkpt lat="43.67826" lon="7.08375">
        <ele>107.80000305176</ele>
        <time>2014-04-20T09:17:18.000Z</time>
      </trkpt>
      <trkpt lat="43.67819" lon="7.08382">
        <ele>107.80000305176</ele>
        <time>2014-04-20T09:17:24.000Z</time>
      </trkpt>
      <trkpt lat="43.67816" lon="7.08387">
        <ele>107.80000305176</ele>
        <time>2014-04-20T09:17:31.000Z</time>
      </trkpt>
      <trkpt lat="43.67809" lon="7.08394">
        <ele>111.59999847412</ele>
        <time>2014-04-20T09:17:53.000Z</time>
      </trkpt>
      <trkpt lat="43.67806" lon="7.08396">
        <ele>112.19999694824</ele>
        <time>2014-04-20T09:17:56.000Z</time>
      </trkpt>
      <trkpt lat="43.67801" lon="7.08406">
        <ele>114.59999847412</ele>
        <time>2014-04-20T09:18:03.000Z</time>
      </trkpt>
      <trkpt lat="43.67797" lon="7.08415">
        <ele>114.59999847412</ele>
        <time>2014-04-20T09:18:07.000Z</time>
      </trkpt>
      <trkpt lat="43.67793" lon="7.08427">
        <ele>113.59999847412</ele>
        <time>2014-04-20T09:18:13.000Z</time>
      </trkpt>
      <trkpt lat="43.67787" lon="7.08435">
        <ele>113</ele>
        <time>2014-04-20T09:18:18.000Z</time>
      </trkpt>
      <trkpt lat="43.67777" lon="7.08443">
        <ele>113</ele>
        <time>2014-04-20T09:18:25.000Z</time>
      </trkpt>
      <trkpt lat="43.67769" lon="7.08448">
        <ele>112.59999847412</ele>
        <time>2014-04-20T09:18:30.000Z</time>
      </trkpt>
      <trkpt lat="43.67755" lon="7.08457">
        <ele>112.59999847412</ele>
        <time>2014-04-20T09:18:37.000Z</time>
      </trkpt>
      <trkpt lat="43.67742" lon="7.08465">
        <ele>112.59999847412</ele>
        <time>2014-04-20T09:18:43.000Z</time>
      </trkpt>
      <trkpt lat="43.67733" lon="7.08473">
        <ele>112.19999694824</ele>
        <time>2014-04-20T09:18:47.000Z</time>
      </trkpt>
      <trkpt lat="43.67727" lon="7.08476">
        <ele>112.19999694824</ele>
        <time>2014-04-20T09:18:49.000Z</time>
      </trkpt>
      <trkpt lat="43.67727" lon="7.08476">
        <ele>112.19999694824</ele>
        <time>2014-04-20T09:18:49.000Z</time>
      </trkpt>
      <trkpt lat="43.67718" lon="7.08483">
        <ele>111.59999847412</ele>
        <time>2014-04-20T09:18:53.000Z</time>
      </trkpt>
      <trkpt lat="43.67704" lon="7.08495">
        <ele>112.19999694824</ele>
        <time>2014-04-20T09:18:59.000Z</time>
      </trkpt>
      <trkpt lat="43.67687" lon="7.08507">
        <ele>111.59999847412</ele>
        <time>2014-04-20T09:19:05.000Z</time>
      </trkpt>
      <trkpt lat="43.67669" lon="7.08518">
        <ele>112.19999694824</ele>
        <time>2014-04-20T09:19:11.000Z</time>
      </trkpt>
      <trkpt lat="43.67653" lon="7.08524">
        <ele>113</ele>
        <time>2014-04-20T09:19:17.000Z</time>
      </trkpt>
      <trkpt lat="43.67642" lon="7.08525">
        <ele>113</ele>
        <time>2014-04-20T09:19:22.000Z</time>
      </trkpt>
      <trkpt lat="43.67636" lon="7.08525">
        <ele>113</ele>
        <time>2014-04-20T09:19:25.000Z</time>
      </trkpt>
      <trkpt lat="43.6763" lon="7.08523">
        <ele>113</ele>
        <time>2014-04-20T09:19:29.000Z</time>
      </trkpt>
      <trkpt lat="43.67627" lon="7.08523">
        <ele>113</ele>
        <time>2014-04-20T09:19:31.000Z</time>
      </trkpt>
      <trkpt lat="43.67618" lon="7.08523">
        <ele>113</ele>
        <time>2014-04-20T09:19:36.000Z</time>
      </trkpt>
      <trkpt lat="43.67603" lon="7.08526">
        <ele>113</ele>
        <time>2014-04-20T09:19:42.000Z</time>
      </trkpt>
      <trkpt lat="43.67586" lon="7.08535">
        <ele>114</ele>
        <time>2014-04-20T09:19:47.000Z</time>
      </trkpt>
      <trkpt lat="43.67568" lon="7.08546">
        <ele>114</ele>
        <time>2014-04-20T09:19:53.000Z</time>
      </trkpt>
      <trkpt lat="43.67544" lon="7.08562">
        <ele>113.59999847412</ele>
        <time>2014-04-20T09:19:58.000Z</time>
      </trkpt>
      <trkpt lat="43.67532" lon="7.0857">
        <ele>113.59999847412</ele>
        <time>2014-04-20T09:20:00.000Z</time>
      </trkpt>
      <trkpt lat="43.675" lon="7.0858">
        <ele>113.59999847412</ele>
        <time>2014-04-20T09:20:05.000Z</time>
      </trkpt>
      <trkpt lat="43.67491" lon="7.08581">
        <ele>113</ele>
        <time>2014-04-20T09:20:07.000Z</time>
      </trkpt>
      <trkpt lat="43.6748" lon="7.08583">
        <ele>113</ele>
        <time>2014-04-20T09:20:10.000Z</time>
      </trkpt>
      <trkpt lat="43.67469" lon="7.08584">
        <ele>112.19999694824</ele>
        <time>2014-04-20T09:20:14.000Z</time>
      </trkpt>
      <trkpt lat="43.67456" lon="7.08581">
        <ele>111.59999847412</ele>
        <time>2014-04-20T09:20:20.000Z</time>
      </trkpt>
      <trkpt lat="43.67443" lon="7.0858">
        <ele>111.19999694824</ele>
        <time>2014-04-20T09:20:25.000Z</time>
      </trkpt>
      <trkpt lat="43.67425" lon="7.08571">
        <ele>111.19999694824</ele>
        <time>2014-04-20T09:20:33.000Z</time>
      </trkpt>
      <trkpt lat="43.67411" lon="7.08564">
        <ele>111.59999847412</ele>
        <time>2014-04-20T09:20:40.000Z</time>
      </trkpt>
      <trkpt lat="43.67403" lon="7.08559">
        <ele>112.19999694824</ele>
        <time>2014-04-20T09:20:45.000Z</time>
      </trkpt>
      <trkpt lat="43.67393" lon="7.08552">
        <ele>114.59999847412</ele>
        <time>2014-04-20T09:20:52.000Z</time>
      </trkpt>
      <trkpt lat="43.67391" lon="7.08551">
        <ele>114.59999847412</ele>
        <time>2014-04-20T09:20:53.000Z</time>
      </trkpt>
      <trkpt lat="43.67382" lon="7.08546">
        <ele>115</ele>
        <time>2014-04-20T09:20:59.000Z</time>
      </trkpt>
      <trkpt lat="43.67373" lon="7.08541">
        <ele>116</ele>
        <time>2014-04-20T09:21:06.000Z</time>
      </trkpt>
      <trkpt lat="43.67361" lon="7.08534">
        <ele>117</ele>
        <time>2014-04-20T09:21:14.000Z</time>
      </trkpt>
      <trkpt lat="43.67356" lon="7.08532">
        <ele>117.80000305176</ele>
        <time>2014-04-20T09:21:17.000Z</time>
      </trkpt>
      <trkpt lat="43.67347" lon="7.08527">
        <ele>118.40000152588</ele>
        <time>2014-04-20T09:21:23.000Z</time>
      </trkpt>
      <trkpt lat="43.67342" lon="7.08524">
        <ele>118.80000305176</ele>
        <time>2014-04-20T09:21:27.000Z</time>
      </trkpt>
      <trkpt lat="43.67334" lon="7.0852">
        <ele>119.80000305176</ele>
        <time>2014-04-20T09:21:33.000Z</time>
      </trkpt>
      <trkpt lat="43.67325" lon="7.08511">
        <ele>121.19999694824</ele>
        <time>2014-04-20T09:21:41.000Z</time>
      </trkpt>
      <trkpt lat="43.67316" lon="7.08506">
        <ele>121.80000305176</ele>
        <time>2014-04-20T09:21:48.000Z</time>
      </trkpt>
      <trkpt lat="43.67313" lon="7.08505">
        <ele>122.19999694824</ele>
        <time>2014-04-20T09:21:50.000Z</time>
      </trkpt>
      <trkpt lat="43.67304" lon="7.08498">
        <ele>123.19999694824</ele>
        <time>2014-04-20T09:21:57.000Z</time>
      </trkpt>
      <trkpt lat="43.67293" lon="7.08493">
        <ele>124.19999694824</ele>
        <time>2014-04-20T09:22:04.000Z</time>
      </trkpt>
      <trkpt lat="43.67282" lon="7.08485">
        <ele>126.59999847412</ele>
        <time>2014-04-20T09:22:12.000Z</time>
      </trkpt>
      <trkpt lat="43.67274" lon="7.08477">
        <ele>128</ele>
        <time>2014-04-20T09:22:19.000Z</time>
      </trkpt>
      <trkpt lat="43.67272" lon="7.08475">
        <ele>128.39999389648</ele>
        <time>2014-04-20T09:22:21.000Z</time>
      </trkpt>
      <trkpt lat="43.67268" lon="7.08472">
        <ele>128.39999389648</ele>
        <time>2014-04-20T09:22:24.000Z</time>
      </trkpt>
      <trkpt lat="43.67261" lon="7.08459">
        <ele>128.39999389648</ele>
        <time>2014-04-20T09:22:32.000Z</time>
      </trkpt>
      <trkpt lat="43.67256" lon="7.08451">
        <ele>130</ele>
        <time>2014-04-20T09:22:37.000Z</time>
      </trkpt>
      <trkpt lat="43.67248" lon="7.08441">
        <ele>132.39999389648</ele>
        <time>2014-04-20T09:22:44.000Z</time>
      </trkpt>
      <trkpt lat="43.67242" lon="7.08432">
        <ele>133.80000305176</ele>
        <time>2014-04-20T09:22:50.000Z</time>
      </trkpt>
      <trkpt lat="43.67232" lon="7.08426">
        <ele>134.19999694824</ele>
        <time>2014-04-20T09:22:57.000Z</time>
      </trkpt>
      <trkpt lat="43.67221" lon="7.08419">
        <ele>133.80000305176</ele>
        <time>2014-04-20T09:23:04.000Z</time>
      </trkpt>
      <trkpt lat="43.67212" lon="7.0841">
        <ele>135.60000610352</ele>
        <time>2014-04-20T09:23:11.000Z</time>
      </trkpt>
      <trkpt lat="43.67206" lon="7.08405">
        <ele>137.19999694824</ele>
        <time>2014-04-20T09:23:16.000Z</time>
      </trkpt>
      <trkpt lat="43.67197" lon="7.084">
        <ele>140</ele>
        <time>2014-04-20T09:23:23.000Z</time>
      </trkpt>
      <trkpt lat="43.6719" lon="7.08401">
        <ele>141.39999389648</ele>
        <time>2014-04-20T09:23:28.000Z</time>
      </trkpt>
      <trkpt lat="43.67183" lon="7.08404">
        <ele>142.80000305176</ele>
        <time>2014-04-20T09:23:33.000Z</time>
      </trkpt>
      <trkpt lat="43.67173" lon="7.08407">
        <ele>143.39999389648</ele>
        <time>2014-04-20T09:23:39.000Z</time>
      </trkpt>
      <trkpt lat="43.67162" lon="7.0841">
        <ele>145.19999694824</ele>
        <time>2014-04-20T09:23:46.000Z</time>
      </trkpt>
      <trkpt lat="43.67152" lon="7.08412">
        <ele>146.19999694824</ele>
        <time>2014-04-20T09:23:53.000Z</time>
      </trkpt>
      <trkpt lat="43.67142" lon="7.08414">
        <ele>147.19999694824</ele>
        <time>2014-04-20T09:24:00.000Z</time>
      </trkpt>
      <trkpt lat="43.67138" lon="7.08414">
        <ele>147.60000610352</ele>
        <time>2014-04-20T09:24:03.000Z</time>
      </trkpt>
      <trkpt lat="43.67134" lon="7.08416">
        <ele>149.19999694824</ele>
        <time>2014-04-20T09:24:07.000Z</time>
      </trkpt>
      <trkpt lat="43.67126" lon="7.08422">
        <ele>150.19999694824</ele>
        <time>2014-04-20T09:24:15.000Z</time>
      </trkpt>
      <trkpt lat="43.67118" lon="7.0843">
        <ele>150.60000610352</ele>
        <time>2014-04-20T09:24:22.000Z</time>
      </trkpt>
      <trkpt lat="43.67109" lon="7.08434">
        <ele>152</ele>
        <time>2014-04-20T09:24:28.000Z</time>
      </trkpt>
      <trkpt lat="43.67098" lon="7.0844">
        <ele>154.39999389648</ele>
        <time>2014-04-20T09:24:36.000Z</time>
      </trkpt>
      <trkpt lat="43.67086" lon="7.08444">
        <ele>155.39999389648</ele>
        <time>2014-04-20T09:24:42.000Z</time>
      </trkpt>
      <trkpt lat="43.67076" lon="7.08448">
        <ele>156.39999389648</ele>
        <time>2014-04-20T09:24:47.000Z</time>
      </trkpt>
      <trkpt lat="43.67059" lon="7.08453">
        <ele>158.80000305176</ele>
        <time>2014-04-20T09:24:56.000Z</time>
      </trkpt>
      <trkpt lat="43.67043" lon="7.08456">
        <ele>159.80000305176</ele>
        <time>2014-04-20T09:25:04.000Z</time>
      </trkpt>
      <trkpt lat="43.67027" lon="7.08459">
        <ele>161.60000610352</ele>
        <time>2014-04-20T09:25:13.000Z</time>
      </trkpt>
      <trkpt lat="43.67011" lon="7.08461">
        <ele>164</ele>
        <time>2014-04-20T09:25:22.000Z</time>
      </trkpt>
      <trkpt lat="43.66999" lon="7.08462">
        <ele>165.39999389648</ele>
        <time>2014-04-20T09:25:29.000Z</time>
      </trkpt>
      <trkpt lat="43.66983" lon="7.08459">
        <ele>166.39999389648</ele>
        <time>2014-04-20T09:25:37.000Z</time>
      </trkpt>
      <trkpt lat="43.66967" lon="7.08453">
        <ele>168.39999389648</ele>
        <time>2014-04-20T09:25:45.000Z</time>
      </trkpt>
      <trkpt lat="43.66954" lon="7.08446">
        <ele>168.80000305176</ele>
        <time>2014-04-20T09:25:52.000Z</time>
      </trkpt>
      <trkpt lat="43.66941" lon="7.08441">
        <ele>168.39999389648</ele>
        <time>2014-04-20T09:25:58.000Z</time>
      </trkpt>
      <trkpt lat="43.66922" lon="7.0843">
        <ele>168.39999389648</ele>
        <time>2014-04-20T09:26:07.000Z</time>
      </trkpt>
      <trkpt lat="43.66912" lon="7.08419">
        <ele>169.80000305176</ele>
        <time>2014-04-20T09:26:13.000Z</time>
      </trkpt>
      <trkpt lat="43.6691" lon="7.08418">
        <ele>169.80000305176</ele>
        <time>2014-04-20T09:26:17.000Z</time>
      </trkpt>
      <trkpt lat="43.66904" lon="7.08416">
        <ele>170.80000305176</ele>
        <time>2014-04-20T09:26:27.000Z</time>
      </trkpt>
      <trkpt lat="43.66897" lon="7.08411">
        <ele>171.80000305176</ele>
        <time>2014-04-20T09:26:34.000Z</time>
      </trkpt>
      <trkpt lat="43.66897" lon="7.08411">
        <ele>171.80000305176</ele>
        <time>2014-04-20T09:26:34.000Z</time>
      </trkpt>
      <trkpt lat="43.66894" lon="7.08414">
        <ele>171.80000305176</ele>
        <time>2014-04-20T09:26:41.000Z</time>
      </trkpt>
      <trkpt lat="43.66888" lon="7.08422">
        <ele>172.19999694824</ele>
        <time>2014-04-20T09:26:45.000Z</time>
      </trkpt>
      <trkpt lat="43.66892" lon="7.08434">
        <ele>171.80000305176</ele>
        <time>2014-04-20T09:26:50.000Z</time>
      </trkpt>
      <trkpt lat="43.66893" lon="7.08439">
        <ele>171.19999694824</ele>
        <time>2014-04-20T09:26:51.000Z</time>
      </trkpt>
      <trkpt lat="43.66896" lon="7.0847">
        <ele>169.39999389648</ele>
        <time>2014-04-20T09:26:55.000Z</time>
      </trkpt>
      <trkpt lat="43.66895" lon="7.08488">
        <ele>167.80000305176</ele>
        <time>2014-04-20T09:26:57.000Z</time>
      </trkpt>
      <trkpt lat="43.66897" lon="7.08507">
        <ele>167</ele>
        <time>2014-04-20T09:26:59.000Z</time>
      </trkpt>
      <trkpt lat="43.66906" lon="7.08534">
        <ele>165.39999389648</ele>
        <time>2014-04-20T09:27:03.000Z</time>
      </trkpt>
      <trkpt lat="43.6691" lon="7.08552">
        <ele>165</ele>
        <time>2014-04-20T09:27:06.000Z</time>
      </trkpt>
      <trkpt lat="43.66913" lon="7.08572">
        <ele>165</ele>
        <time>2014-04-20T09:27:10.000Z</time>
      </trkpt>
      <trkpt lat="43.66913" lon="7.08601">
        <ele>166.39999389648</ele>
        <time>2014-04-20T09:27:17.000Z</time>
      </trkpt>
      <trkpt lat="43.6691" lon="7.08608">
        <ele>167</ele>
        <time>2014-04-20T09:27:22.000Z</time>
      </trkpt>
      <trkpt lat="43.66909" lon="7.0861">
        <ele>168.39999389648</ele>
        <time>2014-04-20T09:27:32.000Z</time>
      </trkpt>
      <trkpt lat="43.66909" lon="7.08612">
        <ele>168.80000305176</ele>
        <time>2014-04-20T09:27:36.000Z</time>
      </trkpt>
      <trkpt lat="43.66908" lon="7.08615">
        <ele>168.39999389648</ele>
        <time>2014-04-20T09:27:42.000Z</time>
      </trkpt>
      <trkpt lat="43.66907" lon="7.08616">
        <ele>168.80000305176</ele>
        <time>2014-04-20T09:27:46.000Z</time>
      </trkpt>
      <trkpt lat="43.66906" lon="7.08632">
        <ele>168.80000305176</ele>
        <time>2014-04-20T09:27:53.000Z</time>
      </trkpt>
      <trkpt lat="43.66906" lon="7.08638">
        <ele>168.80000305176</ele>
        <time>2014-04-20T09:27:55.000Z</time>
      </trkpt>
      <trkpt lat="43.66903" lon="7.08664">
        <ele>168.80000305176</ele>
        <time>2014-04-20T09:28:03.000Z</time>
      </trkpt>
      <trkpt lat="43.66901" lon="7.08683">
        <ele>168.39999389648</ele>
        <time>2014-04-20T09:28:09.000Z</time>
      </trkpt>
      <trkpt lat="43.66901" lon="7.08698">
        <ele>167.80000305176</ele>
        <time>2014-04-20T09:28:15.000Z</time>
      </trkpt>
      <trkpt lat="43.66901" lon="7.08715">
        <ele>167</ele>
        <time>2014-04-20T09:28:19.000Z</time>
      </trkpt>
      <trkpt lat="43.66905" lon="7.08747">
        <ele>163.60000610352</ele>
        <time>2014-04-20T09:28:24.000Z</time>
      </trkpt>
      <trkpt lat="43.66907" lon="7.08774">
        <ele>159.80000305176</ele>
        <time>2014-04-20T09:28:27.000Z</time>
      </trkpt>
      <trkpt lat="43.66897" lon="7.0883">
        <ele>154</ele>
        <time>2014-04-20T09:28:32.000Z</time>
      </trkpt>
      <trkpt lat="43.66884" lon="7.08888">
        <ele>147.19999694824</ele>
        <time>2014-04-20T09:28:37.000Z</time>
      </trkpt>
      <trkpt lat="43.66878" lon="7.08909">
        <ele>145.80000305176</ele>
        <time>2014-04-20T09:28:40.000Z</time>
      </trkpt>
      <trkpt lat="43.66876" lon="7.08915">
        <ele>145.80000305176</ele>
        <time>2014-04-20T09:28:44.000Z</time>
      </trkpt>
      <trkpt lat="43.66874" lon="7.08923">
        <ele>145.80000305176</ele>
        <time>2014-04-20T09:28:54.000Z</time>
      </trkpt>
      <trkpt lat="43.66865" lon="7.08935">
        <ele>145.19999694824</ele>
        <time>2014-04-20T09:28:58.000Z</time>
      </trkpt>
      <trkpt lat="43.66852" lon="7.08955">
        <ele>144.39999389648</ele>
        <time>2014-04-20T09:29:03.000Z</time>
      </trkpt>
      <trkpt lat="43.66848" lon="7.08974">
        <ele>143.39999389648</ele>
        <time>2014-04-20T09:29:06.000Z</time>
      </trkpt>
      <trkpt lat="43.66856" lon="7.08986">
        <ele>142.80000305176</ele>
        <time>2014-04-20T09:29:10.000Z</time>
      </trkpt>
      <trkpt lat="43.66859" lon="7.0899">
        <ele>142.39999389648</ele>
        <time>2014-04-20T09:29:12.000Z</time>
      </trkpt>
      <trkpt lat="43.66857" lon="7.09007">
        <ele>141.39999389648</ele>
        <time>2014-04-20T09:29:18.000Z</time>
      </trkpt>
      <trkpt lat="43.66857" lon="7.09009">
        <ele>141.39999389648</ele>
        <time>2014-04-20T09:29:19.000Z</time>
      </trkpt>
      <trkpt lat="43.66857" lon="7.09014">
        <ele>141</ele>
        <time>2014-04-20T09:29:21.000Z</time>
      </trkpt>
      <trkpt lat="43.66858" lon="7.09026">
        <ele>141</ele>
        <time>2014-04-20T09:29:25.000Z</time>
      </trkpt>
      <trkpt lat="43.66857" lon="7.09033">
        <ele>141</ele>
        <time>2014-04-20T09:29:27.000Z</time>
      </trkpt>
      <trkpt lat="43.66855" lon="7.09053">
        <ele>142.80000305176</ele>
        <time>2014-04-20T09:29:35.000Z</time>
      </trkpt>
      <trkpt lat="43.66855" lon="7.09063">
        <ele>143.80000305176</ele>
        <time>2014-04-20T09:29:40.000Z</time>
      </trkpt>
      <trkpt lat="43.66855" lon="7.09078">
        <ele>143.80000305176</ele>
        <time>2014-04-20T09:29:46.000Z</time>
      </trkpt>
      <trkpt lat="43.66855" lon="7.09085">
        <ele>143.80000305176</ele>
        <time>2014-04-20T09:29:51.000Z</time>
      </trkpt>
      <trkpt lat="43.66854" lon="7.09091">
        <ele>144.80000305176</ele>
        <time>2014-04-20T09:29:58.000Z</time>
      </trkpt>
      <trkpt lat="43.66853" lon="7.09102">
        <ele>144.39999389648</ele>
        <time>2014-04-20T09:30:03.000Z</time>
      </trkpt>
      <trkpt lat="43.66853" lon="7.09112">
        <ele>144.39999389648</ele>
        <time>2014-04-20T09:30:09.000Z</time>
      </trkpt>
      <trkpt lat="43.66854" lon="7.09123">
        <ele>144.80000305176</ele>
        <time>2014-04-20T09:30:13.000Z</time>
      </trkpt>
      <trkpt lat="43.66853" lon="7.09135">
        <ele>144.39999389648</ele>
        <time>2014-04-20T09:30:17.000Z</time>
      </trkpt>
      <trkpt lat="43.66852" lon="7.09144">
        <ele>143.39999389648</ele>
        <time>2014-04-20T09:30:22.000Z</time>
      </trkpt>
      <trkpt lat="43.66847" lon="7.09158">
        <ele>146.80000305176</ele>
        <time>2014-04-20T09:30:40.000Z</time>
      </trkpt>
      <trkpt lat="43.66847" lon="7.09164">
        <ele>148.19999694824</ele>
        <time>2014-04-20T09:30:51.000Z</time>
      </trkpt>
      <trkpt lat="43.66846" lon="7.09173">
        <ele>148.19999694824</ele>
        <time>2014-04-20T09:31:00.000Z</time>
      </trkpt>
      <trkpt lat="43.66845" lon="7.0919">
        <ele>147.19999694824</ele>
        <time>2014-04-20T09:31:06.000Z</time>
      </trkpt>
      <trkpt lat="43.66844" lon="7.09193">
        <ele>147.19999694824</ele>
        <time>2014-04-20T09:31:07.000Z</time>
      </trkpt>
      <trkpt lat="43.66844" lon="7.09199">
        <ele>146.19999694824</ele>
        <time>2014-04-20T09:31:09.000Z</time>
      </trkpt>
      <trkpt lat="43.6684" lon="7.09221">
        <ele>142</ele>
        <time>2014-04-20T09:31:15.000Z</time>
      </trkpt>
      <trkpt lat="43.66835" lon="7.0924">
        <ele>139</ele>
        <time>2014-04-20T09:31:19.000Z</time>
      </trkpt>
      <trkpt lat="43.66842" lon="7.09261">
        <ele>134.19999694824</ele>
        <time>2014-04-20T09:31:24.000Z</time>
      </trkpt>
      <trkpt lat="43.66848" lon="7.09277">
        <ele>130.39999389648</ele>
        <time>2014-04-20T09:31:28.000Z</time>
      </trkpt>
      <trkpt lat="43.66854" lon="7.09293">
        <ele>127</ele>
        <time>2014-04-20T09:31:31.000Z</time>
      </trkpt>
      <trkpt lat="43.66855" lon="7.09319">
        <ele>123.19999694824</ele>
        <time>2014-04-20T09:31:35.000Z</time>
      </trkpt>
      <trkpt lat="43.66848" lon="7.09335">
        <ele>121.19999694824</ele>
        <time>2014-04-20T09:31:38.000Z</time>
      </trkpt>
      <trkpt lat="43.66844" lon="7.09348">
        <ele>120.40000152588</ele>
        <time>2014-04-20T09:31:40.000Z</time>
      </trkpt>
      <trkpt lat="43.66837" lon="7.09373">
        <ele>118.80000305176</ele>
        <time>2014-04-20T09:31:44.000Z</time>
      </trkpt>
      <trkpt lat="43.66834" lon="7.09391">
        <ele>117.80000305176</ele>
        <time>2014-04-20T09:31:47.000Z</time>
      </trkpt>
      <trkpt lat="43.66837" lon="7.09419">
        <ele>116</ele>
        <time>2014-04-20T09:31:52.000Z</time>
      </trkpt>
      <trkpt lat="43.66831" lon="7.09442">
        <ele>113.59999847412</ele>
        <time>2014-04-20T09:31:56.000Z</time>
      </trkpt>
      <trkpt lat="43.66826" lon="7.0946">
        <ele>112.59999847412</ele>
        <time>2014-04-20T09:31:59.000Z</time>
      </trkpt>
      <trkpt lat="43.66811" lon="7.09481">
        <ele>111.59999847412</ele>
        <time>2014-04-20T09:32:05.000Z</time>
      </trkpt>
      <trkpt lat="43.66801" lon="7.09492">
        <ele>111.59999847412</ele>
        <time>2014-04-20T09:32:11.000Z</time>
      </trkpt>
      <trkpt lat="43.66791" lon="7.09496">
        <ele>111.19999694824</ele>
        <time>2014-04-20T09:32:16.000Z</time>
      </trkpt>
      <trkpt lat="43.66785" lon="7.09496">
        <ele>111.19999694824</ele>
        <time>2014-04-20T09:32:19.000Z</time>
      </trkpt>
      <trkpt lat="43.66776" lon="7.09506">
        <ele>110.19999694824</ele>
        <time>2014-04-20T09:32:25.000Z</time>
      </trkpt>
      <trkpt lat="43.66773" lon="7.09533">
        <ele>108.19999694824</ele>
        <time>2014-04-20T09:32:30.000Z</time>
      </trkpt>
      <trkpt lat="43.6677" lon="7.09547">
        <ele>107.80000305176</ele>
        <time>2014-04-20T09:32:32.000Z</time>
      </trkpt>
      <trkpt lat="43.66764" lon="7.09571">
        <ele>107.40000152588</ele>
        <time>2014-04-20T09:32:35.000Z</time>
      </trkpt>
      <trkpt lat="43.66759" lon="7.09587">
        <ele>106.40000152588</ele>
        <time>2014-04-20T09:32:37.000Z</time>
      </trkpt>
      <trkpt lat="43.6675" lon="7.09619">
        <ele>105.40000152588</ele>
        <time>2014-04-20T09:32:42.000Z</time>
      </trkpt>
      <trkpt lat="43.66745" lon="7.09634">
        <ele>105</ele>
        <time>2014-04-20T09:32:44.000Z</time>
      </trkpt>
      <trkpt lat="43.66741" lon="7.0965">
        <ele>104.40000152588</ele>
        <time>2014-04-20T09:32:46.000Z</time>
      </trkpt>
      <trkpt lat="43.66727" lon="7.09687">
        <ele>103.40000152588</ele>
        <time>2014-04-20T09:32:51.000Z</time>
      </trkpt>
      <trkpt lat="43.66716" lon="7.09708">
        <ele>102.59999847412</ele>
        <time>2014-04-20T09:32:54.000Z</time>
      </trkpt>
      <trkpt lat="43.66709" lon="7.09725">
        <ele>102.59999847412</ele>
        <time>2014-04-20T09:32:56.000Z</time>
      </trkpt>
      <trkpt lat="43.66694" lon="7.09776">
        <ele>100.19999694824</ele>
        <time>2014-04-20T09:33:01.000Z</time>
      </trkpt>
      <trkpt lat="43.66688" lon="7.09817">
        <ele>99.199996948242</ele>
        <time>2014-04-20T09:33:05.000Z</time>
      </trkpt>
      <trkpt lat="43.66684" lon="7.09827">
        <ele>99.199996948242</ele>
        <time>2014-04-20T09:33:06.000Z</time>
      </trkpt>
      <trkpt lat="43.66666" lon="7.09867">
        <ele>97.199996948242</ele>
        <time>2014-04-20T09:33:10.000Z</time>
      </trkpt>
      <trkpt lat="43.66664" lon="7.09896">
        <ele>95.800003051758</ele>
        <time>2014-04-20T09:33:13.000Z</time>
      </trkpt>
      <trkpt lat="43.66658" lon="7.09915">
        <ele>93.800003051758</ele>
        <time>2014-04-20T09:33:15.000Z</time>
      </trkpt>
      <trkpt lat="43.66653" lon="7.09967">
        <ele>89</ele>
        <time>2014-04-20T09:33:20.000Z</time>
      </trkpt>
      <trkpt lat="43.6665" lon="7.10029">
        <ele>81.800003051758</ele>
        <time>2014-04-20T09:33:26.000Z</time>
      </trkpt>
      <trkpt lat="43.66649" lon="7.10037">
        <ele>80.400001525879</ele>
        <time>2014-04-20T09:33:27.000Z</time>
      </trkpt>
      <trkpt lat="43.66652" lon="7.10071">
        <ele>73.599998474121</ele>
        <time>2014-04-20T09:33:31.000Z</time>
      </trkpt>
      <trkpt lat="43.66653" lon="7.1008">
        <ele>71.199996948242</ele>
        <time>2014-04-20T09:33:32.000Z</time>
      </trkpt>
      <trkpt lat="43.66658" lon="7.10107">
        <ele>68</ele>
        <time>2014-04-20T09:33:36.000Z</time>
      </trkpt>
      <trkpt lat="43.66667" lon="7.10117">
        <ele>66.400001525879</ele>
        <time>2014-04-20T09:33:38.000Z</time>
      </trkpt>
      <trkpt lat="43.66679" lon="7.10129">
        <ele>63.599998474121</ele>
        <time>2014-04-20T09:33:40.000Z</time>
      </trkpt>
      <trkpt lat="43.66699" lon="7.1017">
        <ele>58.200000762939</ele>
        <time>2014-04-20T09:33:44.000Z</time>
      </trkpt>
      <trkpt lat="43.66719" lon="7.10196">
        <ele>54.400001525879</ele>
        <time>2014-04-20T09:33:48.000Z</time>
      </trkpt>
      <trkpt lat="43.66723" lon="7.102">
        <ele>53.400001525879</ele>
        <time>2014-04-20T09:33:49.000Z</time>
      </trkpt>
      <trkpt lat="43.6673" lon="7.1021">
        <ele>52</ele>
        <time>2014-04-20T09:33:51.000Z</time>
      </trkpt>
      <trkpt lat="43.66735" lon="7.1022">
        <ele>51</ele>
        <time>2014-04-20T09:33:53.000Z</time>
      </trkpt>
      <trkpt lat="43.66747" lon="7.10239">
        <ele>49.200000762939</ele>
        <time>2014-04-20T09:33:57.000Z</time>
      </trkpt>
      <trkpt lat="43.66752" lon="7.10258">
        <ele>46.200000762939</ele>
        <time>2014-04-20T09:34:00.000Z</time>
      </trkpt>
      <trkpt lat="43.66763" lon="7.10271">
        <ele>44.400001525879</ele>
        <time>2014-04-20T09:34:03.000Z</time>
      </trkpt>
      <trkpt lat="43.66784" lon="7.10299">
        <ele>41.400001525879</ele>
        <time>2014-04-20T09:34:08.000Z</time>
      </trkpt>
      <trkpt lat="43.668" lon="7.1032">
        <ele>39</ele>
        <time>2014-04-20T09:34:11.000Z</time>
      </trkpt>
      <trkpt lat="43.66815" lon="7.1034">
        <ele>37.200000762939</ele>
        <time>2014-04-20T09:34:15.000Z</time>
      </trkpt>
      <trkpt lat="43.66821" lon="7.10367">
        <ele>36.200000762939</ele>
        <time>2014-04-20T09:34:19.000Z</time>
      </trkpt>
      <trkpt lat="43.66828" lon="7.10399">
        <ele>34.200000762939</ele>
        <time>2014-04-20T09:34:24.000Z</time>
      </trkpt>
      <trkpt lat="43.66826" lon="7.10405">
        <ele>33.400001525879</ele>
        <time>2014-04-20T09:34:28.000Z</time>
      </trkpt>
      <trkpt lat="43.66823" lon="7.10409">
        <ele>32.799999237061</ele>
        <time>2014-04-20T09:34:35.000Z</time>
      </trkpt>
      <trkpt lat="43.66822" lon="7.10412">
        <ele>32.400001525879</ele>
        <time>2014-04-20T09:34:39.000Z</time>
      </trkpt>
      <trkpt lat="43.66824" lon="7.10414">
        <ele>33.400001525879</ele>
        <time>2014-04-20T09:34:44.000Z</time>
      </trkpt>
      <trkpt lat="43.66825" lon="7.10414">
        <ele>32.799999237061</ele>
        <time>2014-04-20T09:34:45.000Z</time>
      </trkpt>
      <trkpt lat="43.66843" lon="7.10409">
        <ele>31.799999237061</ele>
        <time>2014-04-20T09:34:50.000Z</time>
      </trkpt>
      <trkpt lat="43.66873" lon="7.10401">
        <ele>31.39999961853</ele>
        <time>2014-04-20T09:34:57.000Z</time>
      </trkpt>
      <trkpt lat="43.66884" lon="7.104">
        <ele>31.39999961853</ele>
        <time>2014-04-20T09:35:00.000Z</time>
      </trkpt>
      <trkpt lat="43.66906" lon="7.10409">
        <ele>30</ele>
        <time>2014-04-20T09:35:07.000Z</time>
      </trkpt>
      <trkpt lat="43.66909" lon="7.10411">
        <ele>30</ele>
        <time>2014-04-20T09:35:08.000Z</time>
      </trkpt>
      <trkpt lat="43.66933" lon="7.10427">
        <ele>29</ele>
        <time>2014-04-20T09:35:16.000Z</time>
      </trkpt>
      <trkpt lat="43.66942" lon="7.10431">
        <ele>29.39999961853</ele>
        <time>2014-04-20T09:35:19.000Z</time>
      </trkpt>
      <trkpt lat="43.66949" lon="7.10452">
        <ele>28</ele>
        <time>2014-04-20T09:35:25.000Z</time>
      </trkpt>
      <trkpt lat="43.66947" lon="7.10475">
        <ele>27.60000038147</ele>
        <time>2014-04-20T09:35:30.000Z</time>
      </trkpt>
      <trkpt lat="43.66941" lon="7.10493">
        <ele>27</ele>
        <time>2014-04-20T09:35:34.000Z</time>
      </trkpt>
      <trkpt lat="43.66941" lon="7.10493">
        <ele>27</ele>
        <time>2014-04-20T09:35:34.000Z</time>
      </trkpt>
      <trkpt lat="43.66939" lon="7.10496">
        <ele>27</ele>
        <time>2014-04-20T09:35:35.000Z</time>
      </trkpt>
      <trkpt lat="43.66926" lon="7.10529">
        <ele>28</ele>
        <time>2014-04-20T09:35:43.000Z</time>
      </trkpt>
      <trkpt lat="43.66915" lon="7.1056">
        <ele>28</ele>
        <time>2014-04-20T09:35:50.000Z</time>
      </trkpt>
      <trkpt lat="43.66902" lon="7.10594">
        <ele>27.60000038147</ele>
        <time>2014-04-20T09:35:57.000Z</time>
      </trkpt>
      <trkpt lat="43.66892" lon="7.10643">
        <ele>26.60000038147</ele>
        <time>2014-04-20T09:36:06.000Z</time>
      </trkpt>
      <trkpt lat="43.6688" lon="7.10687">
        <ele>27</ele>
        <time>2014-04-20T09:36:14.000Z</time>
      </trkpt>
      <trkpt lat="43.66861" lon="7.10749">
        <ele>26</ele>
        <time>2014-04-20T09:36:25.000Z</time>
      </trkpt>
      <trkpt lat="43.66852" lon="7.10791">
        <ele>25.60000038147</ele>
        <time>2014-04-20T09:36:32.000Z</time>
      </trkpt>
      <trkpt lat="43.66846" lon="7.10827">
        <ele>26</ele>
        <time>2014-04-20T09:36:38.000Z</time>
      </trkpt>
      <trkpt lat="43.66833" lon="7.10876">
        <ele>26</ele>
        <time>2014-04-20T09:36:46.000Z</time>
      </trkpt>
      <trkpt lat="43.6682" lon="7.10915">
        <ele>26</ele>
        <time>2014-04-20T09:36:52.000Z</time>
      </trkpt>
      <trkpt lat="43.66816" lon="7.10951">
        <ele>26.60000038147</ele>
        <time>2014-04-20T09:36:57.000Z</time>
      </trkpt>
      <trkpt lat="43.66807" lon="7.10976">
        <ele>26.60000038147</ele>
        <time>2014-04-20T09:37:01.000Z</time>
      </trkpt>
      <trkpt lat="43.66787" lon="7.11007">
        <ele>26.60000038147</ele>
        <time>2014-04-20T09:37:07.000Z</time>
      </trkpt>
      <trkpt lat="43.66777" lon="7.11029">
        <ele>27.60000038147</ele>
        <time>2014-04-20T09:37:11.000Z</time>
      </trkpt>
      <trkpt lat="43.66743" lon="7.11074">
        <ele>27</ele>
        <time>2014-04-20T09:37:20.000Z</time>
      </trkpt>
      <trkpt lat="43.66723" lon="7.11095">
        <ele>26.60000038147</ele>
        <time>2014-04-20T09:37:25.000Z</time>
      </trkpt>
      <trkpt lat="43.66703" lon="7.11116">
        <ele>26</ele>
        <time>2014-04-20T09:37:30.000Z</time>
      </trkpt>
      <trkpt lat="43.66689" lon="7.11128">
        <ele>25.60000038147</ele>
        <time>2014-04-20T09:37:33.000Z</time>
      </trkpt>
      <trkpt lat="43.66655" lon="7.1115">
        <ele>25.60000038147</ele>
        <time>2014-04-20T09:37:40.000Z</time>
      </trkpt>
      <trkpt lat="43.66645" lon="7.11155">
        <ele>25.200000762939</ele>
        <time>2014-04-20T09:37:42.000Z</time>
      </trkpt>
      <trkpt lat="43.66616" lon="7.11173">
        <ele>25.200000762939</ele>
        <time>2014-04-20T09:37:48.000Z</time>
      </trkpt>
      <trkpt lat="43.66611" lon="7.11176">
        <ele>25.200000762939</ele>
        <time>2014-04-20T09:37:49.000Z</time>
      </trkpt>
      <trkpt lat="43.66595" lon="7.11178">
        <ele>25.60000038147</ele>
        <time>2014-04-20T09:37:52.000Z</time>
      </trkpt>
      <trkpt lat="43.66562" lon="7.11182">
        <ele>24.200000762939</ele>
        <time>2014-04-20T09:37:58.000Z</time>
      </trkpt>
      <trkpt lat="43.66527" lon="7.112">
        <ele>24.200000762939</ele>
        <time>2014-04-20T09:38:05.000Z</time>
      </trkpt>
      <trkpt lat="43.66493" lon="7.11218">
        <ele>24.200000762939</ele>
        <time>2014-04-20T09:38:12.000Z</time>
      </trkpt>
      <trkpt lat="43.66471" lon="7.11237">
        <ele>24.60000038147</ele>
        <time>2014-04-20T09:38:17.000Z</time>
      </trkpt>
      <trkpt lat="43.66454" lon="7.11264">
        <ele>25.200000762939</ele>
        <time>2014-04-20T09:38:22.000Z</time>
      </trkpt>
      <trkpt lat="43.66436" lon="7.11276">
        <ele>25.60000038147</ele>
        <time>2014-04-20T09:38:26.000Z</time>
      </trkpt>
      <trkpt lat="43.66422" lon="7.11281">
        <ele>25.200000762939</ele>
        <time>2014-04-20T09:38:29.000Z</time>
      </trkpt>
      <trkpt lat="43.66413" lon="7.11289">
        <ele>25.200000762939</ele>
        <time>2014-04-20T09:38:31.000Z</time>
      </trkpt>
      <trkpt lat="43.66386" lon="7.11313">
        <ele>24.60000038147</ele>
        <time>2014-04-20T09:38:37.000Z</time>
      </trkpt>
      <trkpt lat="43.66372" lon="7.11322">
        <ele>25.200000762939</ele>
        <time>2014-04-20T09:38:40.000Z</time>
      </trkpt>
      <trkpt lat="43.66372" lon="7.11322">
        <ele>25.200000762939</ele>
        <time>2014-04-20T09:38:40.000Z</time>
      </trkpt>
      <trkpt lat="43.66362" lon="7.11325">
        <ele>25.200000762939</ele>
        <time>2014-04-20T09:38:42.000Z</time>
      </trkpt>
      <trkpt lat="43.66342" lon="7.11333">
        <ele>24.60000038147</ele>
        <time>2014-04-20T09:38:46.000Z</time>
      </trkpt>
      <trkpt lat="43.66323" lon="7.11344">
        <ele>25.60000038147</ele>
        <time>2014-04-20T09:38:50.000Z</time>
      </trkpt>
      <trkpt lat="43.66294" lon="7.11353">
        <ele>26</ele>
        <time>2014-04-20T09:38:56.000Z</time>
      </trkpt>
      <trkpt lat="43.66284" lon="7.11354">
        <ele>26</ele>
        <time>2014-04-20T09:38:58.000Z</time>
      </trkpt>
      <trkpt lat="43.66265" lon="7.11359">
        <ele>26.60000038147</ele>
        <time>2014-04-20T09:39:02.000Z</time>
      </trkpt>
      <trkpt lat="43.66236" lon="7.11364">
        <ele>25.60000038147</ele>
        <time>2014-04-20T09:39:08.000Z</time>
      </trkpt>
      <trkpt lat="43.66208" lon="7.11381">
        <ele>24.60000038147</ele>
        <time>2014-04-20T09:39:14.000Z</time>
      </trkpt>
      <trkpt lat="43.66199" lon="7.11389">
        <ele>24.60000038147</ele>
        <time>2014-04-20T09:39:16.000Z</time>
      </trkpt>
      <trkpt lat="43.66172" lon="7.11408">
        <ele>25.200000762939</ele>
        <time>2014-04-20T09:39:23.000Z</time>
      </trkpt>
      <trkpt lat="43.66162" lon="7.11418">
        <ele>25.60000038147</ele>
        <time>2014-04-20T09:39:26.000Z</time>
      </trkpt>
      <trkpt lat="43.66143" lon="7.11433">
        <ele>26.60000038147</ele>
        <time>2014-04-20T09:39:31.000Z</time>
      </trkpt>
      <trkpt lat="43.66135" lon="7.11441">
        <ele>27</ele>
        <time>2014-04-20T09:39:33.000Z</time>
      </trkpt>
      <trkpt lat="43.66121" lon="7.11454">
        <ele>27</ele>
        <time>2014-04-20T09:39:37.000Z</time>
      </trkpt>
      <trkpt lat="43.66107" lon="7.11472">
        <ele>27.60000038147</ele>
        <time>2014-04-20T09:39:41.000Z</time>
      </trkpt>
      <trkpt lat="43.66103" lon="7.11476">
        <ele>27</ele>
        <time>2014-04-20T09:39:42.000Z</time>
      </trkpt>
      <trkpt lat="43.66095" lon="7.11484">
        <ele>27.60000038147</ele>
        <time>2014-04-20T09:39:44.000Z</time>
      </trkpt>
      <trkpt lat="43.66081" lon="7.11508">
        <ele>28</ele>
        <time>2014-04-20T09:39:49.000Z</time>
      </trkpt>
      <trkpt lat="43.66078" lon="7.11517">
        <ele>28</ele>
        <time>2014-04-20T09:39:51.000Z</time>
      </trkpt>
      <trkpt lat="43.66071" lon="7.11549">
        <ele>28.39999961853</ele>
        <time>2014-04-20T09:39:58.000Z</time>
      </trkpt>
      <trkpt lat="43.6606" lon="7.11578">
        <ele>28.39999961853</ele>
        <time>2014-04-20T09:40:03.000Z</time>
      </trkpt>
      <trkpt lat="43.66056" lon="7.1159">
        <ele>28.39999961853</ele>
        <time>2014-04-20T09:40:05.000Z</time>
      </trkpt>
      <trkpt lat="43.66046" lon="7.11613">
        <ele>29.39999961853</ele>
        <time>2014-04-20T09:40:09.000Z</time>
      </trkpt>
      <trkpt lat="43.6604" lon="7.1164">
        <ele>29.39999961853</ele>
        <time>2014-04-20T09:40:13.000Z</time>
      </trkpt>
      <trkpt lat="43.66035" lon="7.11651">
        <ele>29</ele>
        <time>2014-04-20T09:40:15.000Z</time>
      </trkpt>
      <trkpt lat="43.66023" lon="7.11669">
        <ele>28.39999961853</ele>
        <time>2014-04-20T09:40:19.000Z</time>
      </trkpt>
      <trkpt lat="43.66016" lon="7.11687">
        <ele>28</ele>
        <time>2014-04-20T09:40:22.000Z</time>
      </trkpt>
      <trkpt lat="43.66007" lon="7.11704">
        <ele>28</ele>
        <time>2014-04-20T09:40:25.000Z</time>
      </trkpt>
      <trkpt lat="43.65999" lon="7.1172">
        <ele>27.60000038147</ele>
        <time>2014-04-20T09:40:28.000Z</time>
      </trkpt>
      <trkpt lat="43.65989" lon="7.11743">
        <ele>27.60000038147</ele>
        <time>2014-04-20T09:40:32.000Z</time>
      </trkpt>
      <trkpt lat="43.65981" lon="7.11763">
        <ele>26</ele>
        <time>2014-04-20T09:40:36.000Z</time>
      </trkpt>
      <trkpt lat="43.65976" lon="7.11774">
        <ele>26</ele>
        <time>2014-04-20T09:40:38.000Z</time>
      </trkpt>
      <trkpt lat="43.65963" lon="7.11798">
        <ele>25.200000762939</ele>
        <time>2014-04-20T09:40:43.000Z</time>
      </trkpt>
      <trkpt lat="43.65955" lon="7.11811">
        <ele>24.60000038147</ele>
        <time>2014-04-20T09:40:46.000Z</time>
      </trkpt>
      <trkpt lat="43.65933" lon="7.11862">
        <ele>23.60000038147</ele>
        <time>2014-04-20T09:40:55.000Z</time>
      </trkpt>
      <trkpt lat="43.65914" lon="7.11894">
        <ele>24.200000762939</ele>
        <time>2014-04-20T09:41:01.000Z</time>
      </trkpt>
      <trkpt lat="43.65911" lon="7.11899">
        <ele>24.60000038147</ele>
        <time>2014-04-20T09:41:02.000Z</time>
      </trkpt>
      <trkpt lat="43.65896" lon="7.11916">
        <ele>24.200000762939</ele>
        <time>2014-04-20T09:41:06.000Z</time>
      </trkpt>
      <trkpt lat="43.65871" lon="7.11952">
        <ele>25.200000762939</ele>
        <time>2014-04-20T09:41:13.000Z</time>
      </trkpt>
      <trkpt lat="43.65857" lon="7.11968">
        <ele>25.200000762939</ele>
        <time>2014-04-20T09:41:17.000Z</time>
      </trkpt>
      <trkpt lat="43.65858" lon="7.11981">
        <ele>25.60000038147</ele>
        <time>2014-04-20T09:41:21.000Z</time>
      </trkpt>
      <trkpt lat="43.65863" lon="7.1199">
        <ele>25.200000762939</ele>
        <time>2014-04-20T09:41:24.000Z</time>
      </trkpt>
      <trkpt lat="43.65875" lon="7.12012">
        <ele>24.60000038147</ele>
        <time>2014-04-20T09:41:30.000Z</time>
      </trkpt>
      <trkpt lat="43.65892" lon="7.12033">
        <ele>23.200000762939</ele>
        <time>2014-04-20T09:41:36.000Z</time>
      </trkpt>
      <trkpt lat="43.6591" lon="7.12053">
        <ele>22.799999237061</ele>
        <time>2014-04-20T09:41:42.000Z</time>
      </trkpt>
      <trkpt lat="43.65922" lon="7.12044">
        <ele>22.799999237061</ele>
        <time>2014-04-20T09:41:48.000Z</time>
      </trkpt>
      <trkpt lat="43.65933" lon="7.12025">
        <ele>22.799999237061</ele>
        <time>2014-04-20T09:41:53.000Z</time>
      </trkpt>
      <trkpt lat="43.65951" lon="7.12002">
        <ele>23.200000762939</ele>
        <time>2014-04-20T09:42:00.000Z</time>
      </trkpt>
      <trkpt lat="43.65971" lon="7.11987">
        <ele>23.200000762939</ele>
        <time>2014-04-20T09:42:06.000Z</time>
      </trkpt>
      <trkpt lat="43.65971" lon="7.11987">
        <ele>23.200000762939</ele>
        <time>2014-04-20T09:42:06.000Z</time>
      </trkpt>
      <trkpt lat="43.6599" lon="7.11987">
        <ele>22.799999237061</ele>
        <time>2014-04-20T09:42:11.000Z</time>
      </trkpt>
      <trkpt lat="43.66021" lon="7.11984">
        <ele>22.799999237061</ele>
        <time>2014-04-20T09:42:18.000Z</time>
      </trkpt>
      <trkpt lat="43.66062" lon="7.11983">
        <ele>21.200000762939</ele>
        <time>2014-04-20T09:42:27.000Z</time>
      </trkpt>
      <trkpt lat="43.66085" lon="7.11983">
        <ele>21.200000762939</ele>
        <time>2014-04-20T09:42:33.000Z</time>
      </trkpt>
      <trkpt lat="43.66108" lon="7.11989">
        <ele>21.799999237061</ele>
        <time>2014-04-20T09:42:39.000Z</time>
      </trkpt>
      <trkpt lat="43.66112" lon="7.1199">
        <ele>21.799999237061</ele>
        <time>2014-04-20T09:42:40.000Z</time>
      </trkpt>
      <trkpt lat="43.66137" lon="7.12">
        <ele>21.200000762939</ele>
        <time>2014-04-20T09:42:46.000Z</time>
      </trkpt>
      <trkpt lat="43.66157" lon="7.12005">
        <ele>20.799999237061</ele>
        <time>2014-04-20T09:42:51.000Z</time>
      </trkpt>
      <trkpt lat="43.66173" lon="7.12001">
        <ele>20.39999961853</ele>
        <time>2014-04-20T09:42:55.000Z</time>
      </trkpt>
      <trkpt lat="43.66191" lon="7.11989">
        <ele>20.39999961853</ele>
        <time>2014-04-20T09:43:00.000Z</time>
      </trkpt>
      <trkpt lat="43.66202" lon="7.11993">
        <ele>20.39999961853</ele>
        <time>2014-04-20T09:43:03.000Z</time>
      </trkpt>
      <trkpt lat="43.66204" lon="7.11997">
        <ele>20.39999961853</ele>
        <time>2014-04-20T09:43:04.000Z</time>
      </trkpt>
      <trkpt lat="43.66217" lon="7.12046">
        <ele>20.799999237061</ele>
        <time>2014-04-20T09:43:14.000Z</time>
      </trkpt>
      <trkpt lat="43.66228" lon="7.12088">
        <ele>21.799999237061</ele>
        <time>2014-04-20T09:43:23.000Z</time>
      </trkpt>
      <trkpt lat="43.66235" lon="7.12119">
        <ele>22.200000762939</ele>
        <time>2014-04-20T09:43:30.000Z</time>
      </trkpt>
      <trkpt lat="43.6624" lon="7.12147">
        <ele>23.200000762939</ele>
        <time>2014-04-20T09:43:37.000Z</time>
      </trkpt>
      <trkpt lat="43.66243" lon="7.12166">
        <ele>25.200000762939</ele>
        <time>2014-04-20T09:43:43.000Z</time>
      </trkpt>
      <trkpt lat="43.66244" lon="7.12188">
        <ele>27.60000038147</ele>
        <time>2014-04-20T09:43:50.000Z</time>
      </trkpt>
      <trkpt lat="43.66245" lon="7.12213">
        <ele>28.39999961853</ele>
        <time>2014-04-20T09:43:58.000Z</time>
      </trkpt>
      <trkpt lat="43.66246" lon="7.12232">
        <ele>30</ele>
        <time>2014-04-20T09:44:04.000Z</time>
      </trkpt>
      <trkpt lat="43.66247" lon="7.12233">
        <ele>30.39999961853</ele>
        <time>2014-04-20T09:44:08.000Z</time>
      </trkpt>
    </trkseg>
  </trk>
</gpx>